<?xml version="1.0" encoding="UTF-8" standalone="no" ?>
<gpx xmlns="http://www.topografix.com/GPX/1/1" xmlns:xsi="http://www.w3.org/2001/XMLSchema-instance" xsi:schemaLocation="http://www.topografix.com/GPX/1/1 http://www.topografix.com/GPX/1/1/gpx.xsd" version="1.1" creator="VisuGPX - https://www.visugpx.com">
  <metadata>
    <name>Reco Anet - 28 avril 2018</name>
    <desc><![CDATA[Reco
Départ : Anet
Parcours : Forêt de Dreux]]></desc>
  </metadata>
  <trk>
    <name><![CDATA[Reco - Anet]]></name>
    <trkseg>
      <trkpt lat="48.85829" lon="1.44255">
        <ele>67.599998474121</ele>
        <time>2018-04-28T11:44:00.000Z</time>
      </trkpt>
      <trkpt lat="48.85827" lon="1.44242">
        <ele>67.199996948242</ele>
        <time>2018-04-28T11:44:06.000Z</time>
      </trkpt>
      <trkpt lat="48.85826" lon="1.44221">
        <ele>67.400001525879</ele>
        <time>2018-04-28T11:44:14.000Z</time>
      </trkpt>
      <trkpt lat="48.85825" lon="1.44201">
        <ele>67.800003051758</ele>
        <time>2018-04-28T11:44:23.000Z</time>
      </trkpt>
      <trkpt lat="48.85823" lon="1.4419">
        <ele>68.199996948242</ele>
        <time>2018-04-28T11:44:27.000Z</time>
      </trkpt>
      <trkpt lat="48.85825" lon="1.4418">
        <ele>68.400001525879</ele>
        <time>2018-04-28T11:44:35.000Z</time>
      </trkpt>
      <trkpt lat="48.85825" lon="1.4417">
        <ele>68.599998474121</ele>
        <time>2018-04-28T11:44:41.000Z</time>
      </trkpt>
      <trkpt lat="48.85826" lon="1.44156">
        <ele>69</ele>
        <time>2018-04-28T11:44:48.000Z</time>
      </trkpt>
      <trkpt lat="48.85826" lon="1.44145">
        <ele>69</ele>
        <time>2018-04-28T11:44:53.000Z</time>
      </trkpt>
      <trkpt lat="48.85825" lon="1.4413">
        <ele>68.800003051758</ele>
        <time>2018-04-28T11:45:00.000Z</time>
      </trkpt>
      <trkpt lat="48.85823" lon="1.44122">
        <ele>68.800003051758</ele>
        <time>2018-04-28T11:45:03.000Z</time>
      </trkpt>
      <trkpt lat="48.85821" lon="1.44117">
        <ele>68.800003051758</ele>
        <time>2018-04-28T11:45:05.000Z</time>
      </trkpt>
      <trkpt lat="48.85821" lon="1.44107">
        <ele>68.800003051758</ele>
        <time>2018-04-28T11:45:09.000Z</time>
      </trkpt>
      <trkpt lat="48.8582" lon="1.44104">
        <ele>68.800003051758</ele>
        <time>2018-04-28T11:45:10.000Z</time>
      </trkpt>
      <trkpt lat="48.85819" lon="1.44092">
        <ele>68.599998474121</ele>
        <time>2018-04-28T11:45:15.000Z</time>
      </trkpt>
      <trkpt lat="48.85819" lon="1.44088">
        <ele>68.599998474121</ele>
        <time>2018-04-28T11:45:17.000Z</time>
      </trkpt>
      <trkpt lat="48.85816" lon="1.44077">
        <ele>68.599998474121</ele>
        <time>2018-04-28T11:45:23.000Z</time>
      </trkpt>
      <trkpt lat="48.85813" lon="1.44068">
        <ele>68.599998474121</ele>
        <time>2018-04-28T11:45:28.000Z</time>
      </trkpt>
      <trkpt lat="48.8581" lon="1.4406">
        <ele>68.599998474121</ele>
        <time>2018-04-28T11:45:32.000Z</time>
      </trkpt>
      <trkpt lat="48.85806" lon="1.44049">
        <ele>68.599998474121</ele>
        <time>2018-04-28T11:45:39.000Z</time>
      </trkpt>
      <trkpt lat="48.85805" lon="1.44037">
        <ele>68.400001525879</ele>
        <time>2018-04-28T11:45:45.000Z</time>
      </trkpt>
      <trkpt lat="48.85804" lon="1.44027">
        <ele>68.400001525879</ele>
        <time>2018-04-28T11:45:49.000Z</time>
      </trkpt>
      <trkpt lat="48.85799" lon="1.44018">
        <ele>68.400001525879</ele>
        <time>2018-04-28T11:45:54.000Z</time>
      </trkpt>
      <trkpt lat="48.85796" lon="1.44017">
        <ele>68.599998474121</ele>
        <time>2018-04-28T11:45:56.000Z</time>
      </trkpt>
      <trkpt lat="48.85791" lon="1.44017">
        <ele>68.800003051758</ele>
        <time>2018-04-28T11:45:59.000Z</time>
      </trkpt>
      <trkpt lat="48.85784" lon="1.44018">
        <ele>69</ele>
        <time>2018-04-28T11:46:04.000Z</time>
      </trkpt>
      <trkpt lat="48.85772" lon="1.4402">
        <ele>69.400001525879</ele>
        <time>2018-04-28T11:46:11.000Z</time>
      </trkpt>
      <trkpt lat="48.85763" lon="1.44022">
        <ele>69.800003051758</ele>
        <time>2018-04-28T11:46:16.000Z</time>
      </trkpt>
      <trkpt lat="48.85754" lon="1.44022">
        <ele>70</ele>
        <time>2018-04-28T11:46:22.000Z</time>
      </trkpt>
      <trkpt lat="48.85748" lon="1.44022">
        <ele>70</ele>
        <time>2018-04-28T11:46:26.000Z</time>
      </trkpt>
      <trkpt lat="48.85746" lon="1.44023">
        <ele>70.199996948242</ele>
        <time>2018-04-28T11:46:27.000Z</time>
      </trkpt>
      <trkpt lat="48.85741" lon="1.44022">
        <ele>70.199996948242</ele>
        <time>2018-04-28T11:46:30.000Z</time>
      </trkpt>
      <trkpt lat="48.85735" lon="1.44021">
        <ele>70.400001525879</ele>
        <time>2018-04-28T11:46:33.000Z</time>
      </trkpt>
      <trkpt lat="48.85729" lon="1.44019">
        <ele>70.599998474121</ele>
        <time>2018-04-28T11:46:37.000Z</time>
      </trkpt>
      <trkpt lat="48.85721" lon="1.4402">
        <ele>70.599998474121</ele>
        <time>2018-04-28T11:46:42.000Z</time>
      </trkpt>
      <trkpt lat="48.85717" lon="1.44018">
        <ele>70.599998474121</ele>
        <time>2018-04-28T11:46:45.000Z</time>
      </trkpt>
      <trkpt lat="48.85714" lon="1.44017">
        <ele>70.599998474121</ele>
        <time>2018-04-28T11:46:47.000Z</time>
      </trkpt>
      <trkpt lat="48.85707" lon="1.44018">
        <ele>70.599998474121</ele>
        <time>2018-04-28T11:46:51.000Z</time>
      </trkpt>
      <trkpt lat="48.857" lon="1.44018">
        <ele>70.599998474121</ele>
        <time>2018-04-28T11:46:55.000Z</time>
      </trkpt>
      <trkpt lat="48.85699" lon="1.4402">
        <ele>70.599998474121</ele>
        <time>2018-04-28T11:46:57.000Z</time>
      </trkpt>
      <trkpt lat="48.85694" lon="1.4402">
        <ele>70.599998474121</ele>
        <time>2018-04-28T11:46:59.000Z</time>
      </trkpt>
      <trkpt lat="48.85689" lon="1.44019">
        <ele>70.599998474121</ele>
        <time>2018-04-28T11:47:03.000Z</time>
      </trkpt>
      <trkpt lat="48.85687" lon="1.44019">
        <ele>70.599998474121</ele>
        <time>2018-04-28T11:47:04.000Z</time>
      </trkpt>
      <trkpt lat="48.85677" lon="1.44019">
        <ele>70.400001525879</ele>
        <time>2018-04-28T11:47:09.000Z</time>
      </trkpt>
      <trkpt lat="48.85663" lon="1.44017">
        <ele>70.199996948242</ele>
        <time>2018-04-28T11:47:16.000Z</time>
      </trkpt>
      <trkpt lat="48.85652" lon="1.44015">
        <ele>70.199996948242</ele>
        <time>2018-04-28T11:47:22.000Z</time>
      </trkpt>
      <trkpt lat="48.85646" lon="1.44017">
        <ele>70</ele>
        <time>2018-04-28T11:47:26.000Z</time>
      </trkpt>
      <trkpt lat="48.85638" lon="1.44018">
        <ele>70</ele>
        <time>2018-04-28T11:47:30.000Z</time>
      </trkpt>
      <trkpt lat="48.85636" lon="1.44018">
        <ele>70</ele>
        <time>2018-04-28T11:47:31.000Z</time>
      </trkpt>
      <trkpt lat="48.85631" lon="1.4402">
        <ele>69.800003051758</ele>
        <time>2018-04-28T11:47:34.000Z</time>
      </trkpt>
      <trkpt lat="48.85628" lon="1.4402">
        <ele>69.800003051758</ele>
        <time>2018-04-28T11:47:36.000Z</time>
      </trkpt>
      <trkpt lat="48.85623" lon="1.44021">
        <ele>69.800003051758</ele>
        <time>2018-04-28T11:47:39.000Z</time>
      </trkpt>
      <trkpt lat="48.8562" lon="1.44021">
        <ele>69.800003051758</ele>
        <time>2018-04-28T11:47:41.000Z</time>
      </trkpt>
      <trkpt lat="48.85618" lon="1.44022">
        <ele>69.599998474121</ele>
        <time>2018-04-28T11:47:43.000Z</time>
      </trkpt>
      <trkpt lat="48.85614" lon="1.44022">
        <ele>69.599998474121</ele>
        <time>2018-04-28T11:47:46.000Z</time>
      </trkpt>
      <trkpt lat="48.85612" lon="1.44024">
        <ele>69.599998474121</ele>
        <time>2018-04-28T11:47:48.000Z</time>
      </trkpt>
      <trkpt lat="48.8561" lon="1.44026">
        <ele>69.599998474121</ele>
        <time>2018-04-28T11:47:49.000Z</time>
      </trkpt>
      <trkpt lat="48.85606" lon="1.4403">
        <ele>69.400001525879</ele>
        <time>2018-04-28T11:47:51.000Z</time>
      </trkpt>
      <trkpt lat="48.85594" lon="1.44032">
        <ele>69.800003051758</ele>
        <time>2018-04-28T11:47:56.000Z</time>
      </trkpt>
      <trkpt lat="48.85592" lon="1.44034">
        <ele>69.800003051758</ele>
        <time>2018-04-28T11:47:58.000Z</time>
      </trkpt>
      <trkpt lat="48.85587" lon="1.44035">
        <ele>70</ele>
        <time>2018-04-28T11:48:00.000Z</time>
      </trkpt>
      <trkpt lat="48.8558" lon="1.44039">
        <ele>70.199996948242</ele>
        <time>2018-04-28T11:48:04.000Z</time>
      </trkpt>
      <trkpt lat="48.85578" lon="1.4404">
        <ele>70.400001525879</ele>
        <time>2018-04-28T11:48:05.000Z</time>
      </trkpt>
      <trkpt lat="48.85569" lon="1.44042">
        <ele>70.800003051758</ele>
        <time>2018-04-28T11:48:10.000Z</time>
      </trkpt>
      <trkpt lat="48.85568" lon="1.44043">
        <ele>70.800003051758</ele>
        <time>2018-04-28T11:48:11.000Z</time>
      </trkpt>
      <trkpt lat="48.85561" lon="1.44044">
        <ele>71.199996948242</ele>
        <time>2018-04-28T11:48:14.000Z</time>
      </trkpt>
      <trkpt lat="48.85558" lon="1.44045">
        <ele>71.400001525879</ele>
        <time>2018-04-28T11:48:16.000Z</time>
      </trkpt>
      <trkpt lat="48.85551" lon="1.44042">
        <ele>71.599998474121</ele>
        <time>2018-04-28T11:48:20.000Z</time>
      </trkpt>
      <trkpt lat="48.85542" lon="1.44039">
        <ele>72</ele>
        <time>2018-04-28T11:48:26.000Z</time>
      </trkpt>
      <trkpt lat="48.85533" lon="1.44037">
        <ele>72.599998474121</ele>
        <time>2018-04-28T11:48:32.000Z</time>
      </trkpt>
      <trkpt lat="48.8553" lon="1.44039">
        <ele>72.599998474121</ele>
        <time>2018-04-28T11:48:34.000Z</time>
      </trkpt>
      <trkpt lat="48.85531" lon="1.44042">
        <ele>72.599998474121</ele>
        <time>2018-04-28T11:48:36.000Z</time>
      </trkpt>
      <trkpt lat="48.85528" lon="1.44039">
        <ele>72.800003051758</ele>
        <time>2018-04-28T11:48:40.000Z</time>
      </trkpt>
      <trkpt lat="48.85523" lon="1.44025">
        <ele>73</ele>
        <time>2018-04-28T11:48:46.000Z</time>
      </trkpt>
      <trkpt lat="48.85519" lon="1.4402">
        <ele>73.199996948242</ele>
        <time>2018-04-28T11:48:49.000Z</time>
      </trkpt>
      <trkpt lat="48.85517" lon="1.44021">
        <ele>73.400001525879</ele>
        <time>2018-04-28T11:48:52.000Z</time>
      </trkpt>
      <trkpt lat="48.85508" lon="1.44028">
        <ele>73.800003051758</ele>
        <time>2018-04-28T11:48:58.000Z</time>
      </trkpt>
      <trkpt lat="48.85497" lon="1.44038">
        <ele>74.599998474121</ele>
        <time>2018-04-28T11:49:06.000Z</time>
      </trkpt>
      <trkpt lat="48.85496" lon="1.44038">
        <ele>74.599998474121</ele>
        <time>2018-04-28T11:49:11.000Z</time>
      </trkpt>
      <trkpt lat="48.85498" lon="1.44038">
        <ele>74.400001525879</ele>
        <time>2018-04-28T11:49:13.000Z</time>
      </trkpt>
      <trkpt lat="48.85502" lon="1.44036">
        <ele>74.199996948242</ele>
        <time>2018-04-28T11:49:16.000Z</time>
      </trkpt>
      <trkpt lat="48.8551" lon="1.44031">
        <ele>73.800003051758</ele>
        <time>2018-04-28T11:49:21.000Z</time>
      </trkpt>
      <trkpt lat="48.85516" lon="1.44024">
        <ele>73.400001525879</ele>
        <time>2018-04-28T11:49:27.000Z</time>
      </trkpt>
      <trkpt lat="48.85517" lon="1.44025">
        <ele>73.400001525879</ele>
        <time>2018-04-28T11:49:28.000Z</time>
      </trkpt>
      <trkpt lat="48.85522" lon="1.44033">
        <ele>73</ele>
        <time>2018-04-28T11:49:33.000Z</time>
      </trkpt>
      <trkpt lat="48.85523" lon="1.44035">
        <ele>73</ele>
        <time>2018-04-28T11:49:34.000Z</time>
      </trkpt>
      <trkpt lat="48.85524" lon="1.44038">
        <ele>73</ele>
        <time>2018-04-28T11:49:38.000Z</time>
      </trkpt>
      <trkpt lat="48.85527" lon="1.44042">
        <ele>72.800003051758</ele>
        <time>2018-04-28T11:49:44.000Z</time>
      </trkpt>
      <trkpt lat="48.85529" lon="1.44042">
        <ele>72.599998474121</ele>
        <time>2018-04-28T11:49:53.000Z</time>
      </trkpt>
      <trkpt lat="48.85525" lon="1.44036">
        <ele>72.800003051758</ele>
        <time>2018-04-28T11:50:09.000Z</time>
      </trkpt>
      <trkpt lat="48.85519" lon="1.44025">
        <ele>73.199996948242</ele>
        <time>2018-04-28T11:50:16.000Z</time>
      </trkpt>
      <trkpt lat="48.85512" lon="1.44031">
        <ele>73.599998474121</ele>
        <time>2018-04-28T11:50:21.000Z</time>
      </trkpt>
      <trkpt lat="48.85508" lon="1.44035">
        <ele>73.800003051758</ele>
        <time>2018-04-28T11:50:24.000Z</time>
      </trkpt>
      <trkpt lat="48.85505" lon="1.44037">
        <ele>74</ele>
        <time>2018-04-28T11:50:26.000Z</time>
      </trkpt>
      <trkpt lat="48.85491" lon="1.44047">
        <ele>74.800003051758</ele>
        <time>2018-04-28T11:50:35.000Z</time>
      </trkpt>
      <trkpt lat="48.85491" lon="1.44048">
        <ele>74.800003051758</ele>
        <time>2018-04-28T11:50:36.000Z</time>
      </trkpt>
      <trkpt lat="48.85487" lon="1.4405">
        <ele>74.800003051758</ele>
        <time>2018-04-28T11:50:38.000Z</time>
      </trkpt>
      <trkpt lat="48.85484" lon="1.44052">
        <ele>75</ele>
        <time>2018-04-28T11:50:40.000Z</time>
      </trkpt>
      <trkpt lat="48.85478" lon="1.44055">
        <ele>75.199996948242</ele>
        <time>2018-04-28T11:50:44.000Z</time>
      </trkpt>
      <trkpt lat="48.85471" lon="1.44058">
        <ele>75.599998474121</ele>
        <time>2018-04-28T11:50:49.000Z</time>
      </trkpt>
      <trkpt lat="48.85467" lon="1.4406">
        <ele>75.800003051758</ele>
        <time>2018-04-28T11:50:52.000Z</time>
      </trkpt>
      <trkpt lat="48.85465" lon="1.44063">
        <ele>75.800003051758</ele>
        <time>2018-04-28T11:50:54.000Z</time>
      </trkpt>
      <trkpt lat="48.85453" lon="1.44075">
        <ele>76.400001525879</ele>
        <time>2018-04-28T11:51:03.000Z</time>
      </trkpt>
      <trkpt lat="48.8545" lon="1.44079">
        <ele>76.400001525879</ele>
        <time>2018-04-28T11:51:07.000Z</time>
      </trkpt>
      <trkpt lat="48.85449" lon="1.44084">
        <ele>76.599998474121</ele>
        <time>2018-04-28T11:51:10.000Z</time>
      </trkpt>
      <trkpt lat="48.85447" lon="1.4409">
        <ele>76.599998474121</ele>
        <time>2018-04-28T11:51:13.000Z</time>
      </trkpt>
      <trkpt lat="48.85445" lon="1.44091">
        <ele>76.800003051758</ele>
        <time>2018-04-28T11:51:14.000Z</time>
      </trkpt>
      <trkpt lat="48.85444" lon="1.44093">
        <ele>76.800003051758</ele>
        <time>2018-04-28T11:51:15.000Z</time>
      </trkpt>
      <trkpt lat="48.85441" lon="1.44101">
        <ele>77</ele>
        <time>2018-04-28T11:51:19.000Z</time>
      </trkpt>
      <trkpt lat="48.85438" lon="1.44107">
        <ele>77</ele>
        <time>2018-04-28T11:51:22.000Z</time>
      </trkpt>
      <trkpt lat="48.85434" lon="1.44121">
        <ele>77.199996948242</ele>
        <time>2018-04-28T11:51:28.000Z</time>
      </trkpt>
      <trkpt lat="48.85433" lon="1.44123">
        <ele>77.199996948242</ele>
        <time>2018-04-28T11:51:29.000Z</time>
      </trkpt>
      <trkpt lat="48.85428" lon="1.44139">
        <ele>77.400001525879</ele>
        <time>2018-04-28T11:51:36.000Z</time>
      </trkpt>
      <trkpt lat="48.85426" lon="1.44146">
        <ele>77.800003051758</ele>
        <time>2018-04-28T11:51:39.000Z</time>
      </trkpt>
      <trkpt lat="48.85425" lon="1.44149">
        <ele>77.800003051758</ele>
        <time>2018-04-28T11:51:40.000Z</time>
      </trkpt>
      <trkpt lat="48.85419" lon="1.44163">
        <ele>78.400001525879</ele>
        <time>2018-04-28T11:51:46.000Z</time>
      </trkpt>
      <trkpt lat="48.85414" lon="1.44173">
        <ele>78.800003051758</ele>
        <time>2018-04-28T11:51:51.000Z</time>
      </trkpt>
      <trkpt lat="48.85405" lon="1.44184">
        <ele>79.400001525879</ele>
        <time>2018-04-28T11:51:58.000Z</time>
      </trkpt>
      <trkpt lat="48.85399" lon="1.44189">
        <ele>80</ele>
        <time>2018-04-28T11:52:02.000Z</time>
      </trkpt>
      <trkpt lat="48.85397" lon="1.4419">
        <ele>80</ele>
        <time>2018-04-28T11:52:03.000Z</time>
      </trkpt>
      <trkpt lat="48.85387" lon="1.44198">
        <ele>80</ele>
        <time>2018-04-28T11:52:10.000Z</time>
      </trkpt>
      <trkpt lat="48.85378" lon="1.44206">
        <ele>80.199996948242</ele>
        <time>2018-04-28T11:52:16.000Z</time>
      </trkpt>
      <trkpt lat="48.85368" lon="1.44212">
        <ele>80.199996948242</ele>
        <time>2018-04-28T11:52:23.000Z</time>
      </trkpt>
      <trkpt lat="48.85359" lon="1.44221">
        <ele>80.199996948242</ele>
        <time>2018-04-28T11:52:30.000Z</time>
      </trkpt>
      <trkpt lat="48.85357" lon="1.44223">
        <ele>80.199996948242</ele>
        <time>2018-04-28T11:52:32.000Z</time>
      </trkpt>
      <trkpt lat="48.85351" lon="1.44226">
        <ele>80.400001525879</ele>
        <time>2018-04-28T11:52:35.000Z</time>
      </trkpt>
      <trkpt lat="48.85348" lon="1.4423">
        <ele>80.400001525879</ele>
        <time>2018-04-28T11:52:38.000Z</time>
      </trkpt>
      <trkpt lat="48.85343" lon="1.44237">
        <ele>80.800003051758</ele>
        <time>2018-04-28T11:52:43.000Z</time>
      </trkpt>
      <trkpt lat="48.85343" lon="1.44238">
        <ele>80.800003051758</ele>
        <time>2018-04-28T11:52:49.000Z</time>
      </trkpt>
      <trkpt lat="48.85344" lon="1.44241">
        <ele>80.599998474121</ele>
        <time>2018-04-28T11:52:55.000Z</time>
      </trkpt>
      <trkpt lat="48.85344" lon="1.44243">
        <ele>80.800003051758</ele>
        <time>2018-04-28T11:52:57.000Z</time>
      </trkpt>
      <trkpt lat="48.85345" lon="1.44243">
        <ele>80.599998474121</ele>
        <time>2018-04-28T11:53:03.000Z</time>
      </trkpt>
      <trkpt lat="48.85341" lon="1.44254">
        <ele>81</ele>
        <time>2018-04-28T11:54:26.000Z</time>
      </trkpt>
      <trkpt lat="48.85334" lon="1.44263">
        <ele>81.400001525879</ele>
        <time>2018-04-28T11:54:32.000Z</time>
      </trkpt>
      <trkpt lat="48.85328" lon="1.44271">
        <ele>81.599998474121</ele>
        <time>2018-04-28T11:54:37.000Z</time>
      </trkpt>
      <trkpt lat="48.85326" lon="1.44275">
        <ele>81.800003051758</ele>
        <time>2018-04-28T11:54:40.000Z</time>
      </trkpt>
      <trkpt lat="48.8532" lon="1.4428">
        <ele>82.199996948242</ele>
        <time>2018-04-28T11:54:45.000Z</time>
      </trkpt>
      <trkpt lat="48.85314" lon="1.44292">
        <ele>82.599998474121</ele>
        <time>2018-04-28T11:54:52.000Z</time>
      </trkpt>
      <trkpt lat="48.85312" lon="1.44303">
        <ele>82.599998474121</ele>
        <time>2018-04-28T11:54:58.000Z</time>
      </trkpt>
      <trkpt lat="48.85308" lon="1.44317">
        <ele>82.800003051758</ele>
        <time>2018-04-28T11:55:05.000Z</time>
      </trkpt>
      <trkpt lat="48.85301" lon="1.44338">
        <ele>83.599998474121</ele>
        <time>2018-04-28T11:55:15.000Z</time>
      </trkpt>
      <trkpt lat="48.85298" lon="1.44351">
        <ele>83.800003051758</ele>
        <time>2018-04-28T11:55:21.000Z</time>
      </trkpt>
      <trkpt lat="48.85292" lon="1.44365">
        <ele>84</ele>
        <time>2018-04-28T11:55:28.000Z</time>
      </trkpt>
      <trkpt lat="48.85288" lon="1.44382">
        <ele>84.199996948242</ele>
        <time>2018-04-28T11:55:35.000Z</time>
      </trkpt>
      <trkpt lat="48.85284" lon="1.44395">
        <ele>84.400001525879</ele>
        <time>2018-04-28T11:55:41.000Z</time>
      </trkpt>
      <trkpt lat="48.85278" lon="1.4441">
        <ele>85</ele>
        <time>2018-04-28T11:55:48.000Z</time>
      </trkpt>
      <trkpt lat="48.85273" lon="1.44423">
        <ele>85.199996948242</ele>
        <time>2018-04-28T11:55:54.000Z</time>
      </trkpt>
      <trkpt lat="48.85272" lon="1.44425">
        <ele>85.400001525879</ele>
        <time>2018-04-28T11:55:55.000Z</time>
      </trkpt>
      <trkpt lat="48.85269" lon="1.44434">
        <ele>85.599998474121</ele>
        <time>2018-04-28T11:55:59.000Z</time>
      </trkpt>
      <trkpt lat="48.85264" lon="1.4445">
        <ele>86.199996948242</ele>
        <time>2018-04-28T11:56:06.000Z</time>
      </trkpt>
      <trkpt lat="48.85261" lon="1.44464">
        <ele>86.599998474121</ele>
        <time>2018-04-28T11:56:12.000Z</time>
      </trkpt>
      <trkpt lat="48.85256" lon="1.4448">
        <ele>87.599998474121</ele>
        <time>2018-04-28T11:56:19.000Z</time>
      </trkpt>
      <trkpt lat="48.85251" lon="1.44499">
        <ele>88.400001525879</ele>
        <time>2018-04-28T11:56:27.000Z</time>
      </trkpt>
      <trkpt lat="48.85247" lon="1.44518">
        <ele>89.400001525879</ele>
        <time>2018-04-28T11:56:35.000Z</time>
      </trkpt>
      <trkpt lat="48.85244" lon="1.44531">
        <ele>89.800003051758</ele>
        <time>2018-04-28T11:56:41.000Z</time>
      </trkpt>
      <trkpt lat="48.85243" lon="1.44538">
        <ele>90.199996948242</ele>
        <time>2018-04-28T11:56:44.000Z</time>
      </trkpt>
      <trkpt lat="48.85243" lon="1.44541">
        <ele>90.199996948242</ele>
        <time>2018-04-28T11:56:45.000Z</time>
      </trkpt>
      <trkpt lat="48.85243" lon="1.44548">
        <ele>90.400001525879</ele>
        <time>2018-04-28T11:56:48.000Z</time>
      </trkpt>
      <trkpt lat="48.85242" lon="1.44558">
        <ele>90.800003051758</ele>
        <time>2018-04-28T11:56:52.000Z</time>
      </trkpt>
      <trkpt lat="48.85243" lon="1.44576">
        <ele>91.199996948242</ele>
        <time>2018-04-28T11:56:59.000Z</time>
      </trkpt>
      <trkpt lat="48.85244" lon="1.44595">
        <ele>91.800003051758</ele>
        <time>2018-04-28T11:57:07.000Z</time>
      </trkpt>
      <trkpt lat="48.85243" lon="1.44611">
        <ele>92.400001525879</ele>
        <time>2018-04-28T11:57:14.000Z</time>
      </trkpt>
      <trkpt lat="48.85242" lon="1.44624">
        <ele>93</ele>
        <time>2018-04-28T11:57:19.000Z</time>
      </trkpt>
      <trkpt lat="48.8524" lon="1.44638">
        <ele>93.599998474121</ele>
        <time>2018-04-28T11:57:25.000Z</time>
      </trkpt>
      <trkpt lat="48.85238" lon="1.44651">
        <ele>94</ele>
        <time>2018-04-28T11:57:31.000Z</time>
      </trkpt>
      <trkpt lat="48.85235" lon="1.4467">
        <ele>94.800003051758</ele>
        <time>2018-04-28T11:57:39.000Z</time>
      </trkpt>
      <trkpt lat="48.85231" lon="1.44687">
        <ele>95.400001525879</ele>
        <time>2018-04-28T11:57:47.000Z</time>
      </trkpt>
      <trkpt lat="48.85228" lon="1.44698">
        <ele>96</ele>
        <time>2018-04-28T11:57:52.000Z</time>
      </trkpt>
      <trkpt lat="48.85225" lon="1.44712">
        <ele>96.800003051758</ele>
        <time>2018-04-28T11:57:58.000Z</time>
      </trkpt>
      <trkpt lat="48.8522" lon="1.44728">
        <ele>97.800003051758</ele>
        <time>2018-04-28T11:58:05.000Z</time>
      </trkpt>
      <trkpt lat="48.85218" lon="1.44743">
        <ele>98.400001525879</ele>
        <time>2018-04-28T11:58:12.000Z</time>
      </trkpt>
      <trkpt lat="48.85216" lon="1.44753">
        <ele>98.800003051758</ele>
        <time>2018-04-28T11:58:17.000Z</time>
      </trkpt>
      <trkpt lat="48.85215" lon="1.44755">
        <ele>98.800003051758</ele>
        <time>2018-04-28T11:58:18.000Z</time>
      </trkpt>
      <trkpt lat="48.85212" lon="1.44767">
        <ele>99.400001525879</ele>
        <time>2018-04-28T11:58:23.000Z</time>
      </trkpt>
      <trkpt lat="48.8521" lon="1.44772">
        <ele>99.599998474121</ele>
        <time>2018-04-28T11:58:25.000Z</time>
      </trkpt>
      <trkpt lat="48.85205" lon="1.44786">
        <ele>100.59999847412</ele>
        <time>2018-04-28T11:58:32.000Z</time>
      </trkpt>
      <trkpt lat="48.85198" lon="1.44806">
        <ele>101.80000305176</ele>
        <time>2018-04-28T11:58:41.000Z</time>
      </trkpt>
      <trkpt lat="48.85193" lon="1.44816">
        <ele>102.59999847412</ele>
        <time>2018-04-28T11:58:47.000Z</time>
      </trkpt>
      <trkpt lat="48.85187" lon="1.44832">
        <ele>103.59999847412</ele>
        <time>2018-04-28T11:58:55.000Z</time>
      </trkpt>
      <trkpt lat="48.85182" lon="1.44847">
        <ele>104.80000305176</ele>
        <time>2018-04-28T11:59:03.000Z</time>
      </trkpt>
      <trkpt lat="48.85176" lon="1.4486">
        <ele>105.80000305176</ele>
        <time>2018-04-28T11:59:10.000Z</time>
      </trkpt>
      <trkpt lat="48.85169" lon="1.44871">
        <ele>107</ele>
        <time>2018-04-28T11:59:17.000Z</time>
      </trkpt>
      <trkpt lat="48.85164" lon="1.44879">
        <ele>108</ele>
        <time>2018-04-28T11:59:22.000Z</time>
      </trkpt>
      <trkpt lat="48.85159" lon="1.44888">
        <ele>109</ele>
        <time>2018-04-28T11:59:27.000Z</time>
      </trkpt>
      <trkpt lat="48.85158" lon="1.4489">
        <ele>109.19999694824</ele>
        <time>2018-04-28T11:59:28.000Z</time>
      </trkpt>
      <trkpt lat="48.85154" lon="1.44896">
        <ele>110</ele>
        <time>2018-04-28T11:59:32.000Z</time>
      </trkpt>
      <trkpt lat="48.85148" lon="1.44906">
        <ele>111</ele>
        <time>2018-04-28T11:59:38.000Z</time>
      </trkpt>
      <trkpt lat="48.85142" lon="1.44919">
        <ele>112.40000152588</ele>
        <time>2018-04-28T11:59:45.000Z</time>
      </trkpt>
      <trkpt lat="48.85133" lon="1.44934">
        <ele>114</ele>
        <time>2018-04-28T11:59:54.000Z</time>
      </trkpt>
      <trkpt lat="48.85128" lon="1.44943">
        <ele>115.19999694824</ele>
        <time>2018-04-28T11:59:59.000Z</time>
      </trkpt>
      <trkpt lat="48.85122" lon="1.44953">
        <ele>116.40000152588</ele>
        <time>2018-04-28T12:00:05.000Z</time>
      </trkpt>
      <trkpt lat="48.85118" lon="1.44962">
        <ele>117.40000152588</ele>
        <time>2018-04-28T12:00:10.000Z</time>
      </trkpt>
      <trkpt lat="48.85118" lon="1.44963">
        <ele>117.40000152588</ele>
        <time>2018-04-28T12:00:11.000Z</time>
      </trkpt>
      <trkpt lat="48.85114" lon="1.44975">
        <ele>118.40000152588</ele>
        <time>2018-04-28T12:00:17.000Z</time>
      </trkpt>
      <trkpt lat="48.85111" lon="1.44984">
        <ele>119.19999694824</ele>
        <time>2018-04-28T12:00:23.000Z</time>
      </trkpt>
      <trkpt lat="48.8511" lon="1.44987">
        <ele>119.40000152588</ele>
        <time>2018-04-28T12:00:25.000Z</time>
      </trkpt>
      <trkpt lat="48.85109" lon="1.44991">
        <ele>119.59999847412</ele>
        <time>2018-04-28T12:00:28.000Z</time>
      </trkpt>
      <trkpt lat="48.85106" lon="1.45">
        <ele>119.59999847412</ele>
        <time>2018-04-28T12:00:33.000Z</time>
      </trkpt>
      <trkpt lat="48.85105" lon="1.45004">
        <ele>119.59999847412</ele>
        <time>2018-04-28T12:00:35.000Z</time>
      </trkpt>
      <trkpt lat="48.85101" lon="1.45015">
        <ele>119.59999847412</ele>
        <time>2018-04-28T12:00:41.000Z</time>
      </trkpt>
      <trkpt lat="48.85097" lon="1.45022">
        <ele>119.80000305176</ele>
        <time>2018-04-28T12:00:45.000Z</time>
      </trkpt>
      <trkpt lat="48.85095" lon="1.45025">
        <ele>119.80000305176</ele>
        <time>2018-04-28T12:00:47.000Z</time>
      </trkpt>
      <trkpt lat="48.85094" lon="1.45026">
        <ele>119.80000305176</ele>
        <time>2018-04-28T12:00:48.000Z</time>
      </trkpt>
      <trkpt lat="48.85089" lon="1.45034">
        <ele>120</ele>
        <time>2018-04-28T12:00:52.000Z</time>
      </trkpt>
      <trkpt lat="48.85087" lon="1.45044">
        <ele>119.80000305176</ele>
        <time>2018-04-28T12:00:57.000Z</time>
      </trkpt>
      <trkpt lat="48.85083" lon="1.45057">
        <ele>120.40000152588</ele>
        <time>2018-04-28T12:01:02.000Z</time>
      </trkpt>
      <trkpt lat="48.8508" lon="1.45066">
        <ele>120.80000305176</ele>
        <time>2018-04-28T12:01:07.000Z</time>
      </trkpt>
      <trkpt lat="48.85078" lon="1.45074">
        <ele>121</ele>
        <time>2018-04-28T12:01:11.000Z</time>
      </trkpt>
      <trkpt lat="48.85077" lon="1.45078">
        <ele>121.19999694824</ele>
        <time>2018-04-28T12:01:13.000Z</time>
      </trkpt>
      <trkpt lat="48.85072" lon="1.4508">
        <ele>121.59999847412</ele>
        <time>2018-04-28T12:01:16.000Z</time>
      </trkpt>
      <trkpt lat="48.85071" lon="1.45081">
        <ele>121.80000305176</ele>
        <time>2018-04-28T12:01:17.000Z</time>
      </trkpt>
      <trkpt lat="48.8507" lon="1.45083">
        <ele>122</ele>
        <time>2018-04-28T12:01:18.000Z</time>
      </trkpt>
      <trkpt lat="48.85068" lon="1.45088">
        <ele>122.19999694824</ele>
        <time>2018-04-28T12:01:21.000Z</time>
      </trkpt>
      <trkpt lat="48.85067" lon="1.45089">
        <ele>122.19999694824</ele>
        <time>2018-04-28T12:01:22.000Z</time>
      </trkpt>
      <trkpt lat="48.85066" lon="1.45091">
        <ele>122.40000152588</ele>
        <time>2018-04-28T12:01:23.000Z</time>
      </trkpt>
      <trkpt lat="48.85065" lon="1.45101">
        <ele>122.40000152588</ele>
        <time>2018-04-28T12:01:27.000Z</time>
      </trkpt>
      <trkpt lat="48.85063" lon="1.45107">
        <ele>122.59999847412</ele>
        <time>2018-04-28T12:01:30.000Z</time>
      </trkpt>
      <trkpt lat="48.85063" lon="1.4511">
        <ele>122.59999847412</ele>
        <time>2018-04-28T12:01:31.000Z</time>
      </trkpt>
      <trkpt lat="48.85062" lon="1.45112">
        <ele>122.59999847412</ele>
        <time>2018-04-28T12:01:32.000Z</time>
      </trkpt>
      <trkpt lat="48.8506" lon="1.45129">
        <ele>122.59999847412</ele>
        <time>2018-04-28T12:01:38.000Z</time>
      </trkpt>
      <trkpt lat="48.8506" lon="1.45134">
        <ele>122.59999847412</ele>
        <time>2018-04-28T12:01:40.000Z</time>
      </trkpt>
      <trkpt lat="48.85059" lon="1.45141">
        <ele>122.59999847412</ele>
        <time>2018-04-28T12:01:43.000Z</time>
      </trkpt>
      <trkpt lat="48.85056" lon="1.45145">
        <ele>122.80000305176</ele>
        <time>2018-04-28T12:01:46.000Z</time>
      </trkpt>
      <trkpt lat="48.85055" lon="1.45146">
        <ele>123</ele>
        <time>2018-04-28T12:01:48.000Z</time>
      </trkpt>
      <trkpt lat="48.85056" lon="1.45147">
        <ele>122.80000305176</ele>
        <time>2018-04-28T12:01:50.000Z</time>
      </trkpt>
      <trkpt lat="48.85056" lon="1.45148">
        <ele>122.80000305176</ele>
        <time>2018-04-28T12:01:52.000Z</time>
      </trkpt>
      <trkpt lat="48.85057" lon="1.45151">
        <ele>122.59999847412</ele>
        <time>2018-04-28T12:02:00.000Z</time>
      </trkpt>
      <trkpt lat="48.85058" lon="1.45164">
        <ele>122.19999694824</ele>
        <time>2018-04-28T12:02:39.000Z</time>
      </trkpt>
      <trkpt lat="48.85057" lon="1.45173">
        <ele>122.19999694824</ele>
        <time>2018-04-28T12:02:41.000Z</time>
      </trkpt>
      <trkpt lat="48.85044" lon="1.45194">
        <ele>122.59999847412</ele>
        <time>2018-04-28T12:02:45.000Z</time>
      </trkpt>
      <trkpt lat="48.85038" lon="1.45211">
        <ele>122.40000152588</ele>
        <time>2018-04-28T12:02:48.000Z</time>
      </trkpt>
      <trkpt lat="48.85027" lon="1.45234">
        <ele>122.40000152588</ele>
        <time>2018-04-28T12:02:52.000Z</time>
      </trkpt>
      <trkpt lat="48.85025" lon="1.45241">
        <ele>121.80000305176</ele>
        <time>2018-04-28T12:02:53.000Z</time>
      </trkpt>
      <trkpt lat="48.85024" lon="1.45247">
        <ele>121.19999694824</ele>
        <time>2018-04-28T12:02:56.000Z</time>
      </trkpt>
      <trkpt lat="48.85025" lon="1.45248">
        <ele>121.19999694824</ele>
        <time>2018-04-28T12:02:57.000Z</time>
      </trkpt>
      <trkpt lat="48.85024" lon="1.45252">
        <ele>121</ele>
        <time>2018-04-28T12:02:59.000Z</time>
      </trkpt>
      <trkpt lat="48.85022" lon="1.45259">
        <ele>120.59999847412</ele>
        <time>2018-04-28T12:03:03.000Z</time>
      </trkpt>
      <trkpt lat="48.8502" lon="1.45262">
        <ele>120.40000152588</ele>
        <time>2018-04-28T12:03:05.000Z</time>
      </trkpt>
      <trkpt lat="48.85018" lon="1.45265">
        <ele>120</ele>
        <time>2018-04-28T12:03:07.000Z</time>
      </trkpt>
      <trkpt lat="48.85013" lon="1.45273">
        <ele>119.59999847412</ele>
        <time>2018-04-28T12:03:11.000Z</time>
      </trkpt>
      <trkpt lat="48.85012" lon="1.45281">
        <ele>118.80000305176</ele>
        <time>2018-04-28T12:03:15.000Z</time>
      </trkpt>
      <trkpt lat="48.85011" lon="1.45286">
        <ele>118.40000152588</ele>
        <time>2018-04-28T12:03:17.000Z</time>
      </trkpt>
      <trkpt lat="48.8501" lon="1.45289">
        <ele>118.19999694824</ele>
        <time>2018-04-28T12:03:18.000Z</time>
      </trkpt>
      <trkpt lat="48.85007" lon="1.45293">
        <ele>118</ele>
        <time>2018-04-28T12:03:20.000Z</time>
      </trkpt>
      <trkpt lat="48.85004" lon="1.45301">
        <ele>117.40000152588</ele>
        <time>2018-04-28T12:03:24.000Z</time>
      </trkpt>
      <trkpt lat="48.85003" lon="1.45309">
        <ele>116.80000305176</ele>
        <time>2018-04-28T12:03:28.000Z</time>
      </trkpt>
      <trkpt lat="48.85002" lon="1.45314">
        <ele>116.59999847412</ele>
        <time>2018-04-28T12:03:31.000Z</time>
      </trkpt>
      <trkpt lat="48.84999" lon="1.45322">
        <ele>116</ele>
        <time>2018-04-28T12:03:35.000Z</time>
      </trkpt>
      <trkpt lat="48.84998" lon="1.45325">
        <ele>115.80000305176</ele>
        <time>2018-04-28T12:03:37.000Z</time>
      </trkpt>
      <trkpt lat="48.84998" lon="1.45327">
        <ele>115.59999847412</ele>
        <time>2018-04-28T12:03:38.000Z</time>
      </trkpt>
      <trkpt lat="48.84997" lon="1.45328">
        <ele>115.59999847412</ele>
        <time>2018-04-28T12:03:39.000Z</time>
      </trkpt>
      <trkpt lat="48.84994" lon="1.45333">
        <ele>115.19999694824</ele>
        <time>2018-04-28T12:03:43.000Z</time>
      </trkpt>
      <trkpt lat="48.84991" lon="1.45337">
        <ele>115</ele>
        <time>2018-04-28T12:03:46.000Z</time>
      </trkpt>
      <trkpt lat="48.84986" lon="1.45341">
        <ele>115</ele>
        <time>2018-04-28T12:03:49.000Z</time>
      </trkpt>
      <trkpt lat="48.84985" lon="1.45343">
        <ele>114.80000305176</ele>
        <time>2018-04-28T12:03:50.000Z</time>
      </trkpt>
      <trkpt lat="48.84979" lon="1.45355">
        <ele>114</ele>
        <time>2018-04-28T12:03:56.000Z</time>
      </trkpt>
      <trkpt lat="48.84973" lon="1.45363">
        <ele>114</ele>
        <time>2018-04-28T12:04:02.000Z</time>
      </trkpt>
      <trkpt lat="48.84967" lon="1.45368">
        <ele>114.19999694824</ele>
        <time>2018-04-28T12:04:06.000Z</time>
      </trkpt>
      <trkpt lat="48.84961" lon="1.45374">
        <ele>114.40000152588</ele>
        <time>2018-04-28T12:04:11.000Z</time>
      </trkpt>
      <trkpt lat="48.8496" lon="1.45376">
        <ele>114.40000152588</ele>
        <time>2018-04-28T12:04:12.000Z</time>
      </trkpt>
      <trkpt lat="48.8496" lon="1.45377">
        <ele>114.40000152588</ele>
        <time>2018-04-28T12:04:13.000Z</time>
      </trkpt>
      <trkpt lat="48.84957" lon="1.45384">
        <ele>114.19999694824</ele>
        <time>2018-04-28T12:04:17.000Z</time>
      </trkpt>
      <trkpt lat="48.8495" lon="1.45393">
        <ele>114.19999694824</ele>
        <time>2018-04-28T12:04:22.000Z</time>
      </trkpt>
      <trkpt lat="48.84943" lon="1.45403">
        <ele>114</ele>
        <time>2018-04-28T12:04:29.000Z</time>
      </trkpt>
      <trkpt lat="48.84935" lon="1.4541">
        <ele>114.19999694824</ele>
        <time>2018-04-28T12:04:34.000Z</time>
      </trkpt>
      <trkpt lat="48.84933" lon="1.45414">
        <ele>114</ele>
        <time>2018-04-28T12:04:37.000Z</time>
      </trkpt>
      <trkpt lat="48.8493" lon="1.45419">
        <ele>113.80000305176</ele>
        <time>2018-04-28T12:04:39.000Z</time>
      </trkpt>
      <trkpt lat="48.84928" lon="1.45419">
        <ele>113.80000305176</ele>
        <time>2018-04-28T12:04:40.000Z</time>
      </trkpt>
      <trkpt lat="48.84926" lon="1.45425">
        <ele>113.19999694824</ele>
        <time>2018-04-28T12:04:43.000Z</time>
      </trkpt>
      <trkpt lat="48.84924" lon="1.45431">
        <ele>113</ele>
        <time>2018-04-28T12:04:46.000Z</time>
      </trkpt>
      <trkpt lat="48.84922" lon="1.45435">
        <ele>112.59999847412</ele>
        <time>2018-04-28T12:04:48.000Z</time>
      </trkpt>
      <trkpt lat="48.84918" lon="1.45441">
        <ele>112.19999694824</ele>
        <time>2018-04-28T12:04:52.000Z</time>
      </trkpt>
      <trkpt lat="48.84915" lon="1.45448">
        <ele>111.80000305176</ele>
        <time>2018-04-28T12:04:55.000Z</time>
      </trkpt>
      <trkpt lat="48.84913" lon="1.45453">
        <ele>111.40000152588</ele>
        <time>2018-04-28T12:04:57.000Z</time>
      </trkpt>
      <trkpt lat="48.8491" lon="1.45458">
        <ele>111.19999694824</ele>
        <time>2018-04-28T12:05:00.000Z</time>
      </trkpt>
      <trkpt lat="48.84907" lon="1.45462">
        <ele>111.40000152588</ele>
        <time>2018-04-28T12:05:02.000Z</time>
      </trkpt>
      <trkpt lat="48.84901" lon="1.45471">
        <ele>111.40000152588</ele>
        <time>2018-04-28T12:05:08.000Z</time>
      </trkpt>
      <trkpt lat="48.84893" lon="1.4548">
        <ele>111.59999847412</ele>
        <time>2018-04-28T12:05:12.000Z</time>
      </trkpt>
      <trkpt lat="48.84893" lon="1.45482">
        <ele>111.40000152588</ele>
        <time>2018-04-28T12:05:13.000Z</time>
      </trkpt>
      <trkpt lat="48.84889" lon="1.45493">
        <ele>109.59999847412</ele>
        <time>2018-04-28T12:05:18.000Z</time>
      </trkpt>
      <trkpt lat="48.84888" lon="1.45495">
        <ele>109.40000152588</ele>
        <time>2018-04-28T12:05:19.000Z</time>
      </trkpt>
      <trkpt lat="48.84878" lon="1.45508">
        <ele>108</ele>
        <time>2018-04-28T12:05:25.000Z</time>
      </trkpt>
      <trkpt lat="48.84875" lon="1.45516">
        <ele>107.59999847412</ele>
        <time>2018-04-28T12:05:30.000Z</time>
      </trkpt>
      <trkpt lat="48.84873" lon="1.4552">
        <ele>107.40000152588</ele>
        <time>2018-04-28T12:05:32.000Z</time>
      </trkpt>
      <trkpt lat="48.84869" lon="1.45527">
        <ele>107.40000152588</ele>
        <time>2018-04-28T12:05:36.000Z</time>
      </trkpt>
      <trkpt lat="48.84863" lon="1.45539">
        <ele>107</ele>
        <time>2018-04-28T12:05:41.000Z</time>
      </trkpt>
      <trkpt lat="48.84862" lon="1.4554">
        <ele>107</ele>
        <time>2018-04-28T12:05:42.000Z</time>
      </trkpt>
      <trkpt lat="48.8486" lon="1.45546">
        <ele>106.80000305176</ele>
        <time>2018-04-28T12:05:45.000Z</time>
      </trkpt>
      <trkpt lat="48.84856" lon="1.45555">
        <ele>106.19999694824</ele>
        <time>2018-04-28T12:05:50.000Z</time>
      </trkpt>
      <trkpt lat="48.84849" lon="1.45566">
        <ele>105.19999694824</ele>
        <time>2018-04-28T12:05:55.000Z</time>
      </trkpt>
      <trkpt lat="48.84846" lon="1.45575">
        <ele>104</ele>
        <time>2018-04-28T12:05:59.000Z</time>
      </trkpt>
      <trkpt lat="48.84845" lon="1.45577">
        <ele>103.59999847412</ele>
        <time>2018-04-28T12:06:00.000Z</time>
      </trkpt>
      <trkpt lat="48.84841" lon="1.4559">
        <ele>101.80000305176</ele>
        <time>2018-04-28T12:06:06.000Z</time>
      </trkpt>
      <trkpt lat="48.84836" lon="1.45599">
        <ele>100.59999847412</ele>
        <time>2018-04-28T12:06:11.000Z</time>
      </trkpt>
      <trkpt lat="48.84836" lon="1.456">
        <ele>100.40000152588</ele>
        <time>2018-04-28T12:06:12.000Z</time>
      </trkpt>
      <trkpt lat="48.84839" lon="1.45597">
        <ele>100.59999847412</ele>
        <time>2018-04-28T12:06:19.000Z</time>
      </trkpt>
      <trkpt lat="48.8484" lon="1.45595">
        <ele>101</ele>
        <time>2018-04-28T12:06:21.000Z</time>
      </trkpt>
      <trkpt lat="48.84841" lon="1.45589">
        <ele>102</ele>
        <time>2018-04-28T12:06:25.000Z</time>
      </trkpt>
      <trkpt lat="48.84843" lon="1.45588">
        <ele>102</ele>
        <time>2018-04-28T12:06:27.000Z</time>
      </trkpt>
      <trkpt lat="48.84844" lon="1.45587">
        <ele>102.19999694824</ele>
        <time>2018-04-28T12:06:28.000Z</time>
      </trkpt>
      <trkpt lat="48.84845" lon="1.45583">
        <ele>102.80000305176</ele>
        <time>2018-04-28T12:06:31.000Z</time>
      </trkpt>
      <trkpt lat="48.84846" lon="1.45583">
        <ele>102.80000305176</ele>
        <time>2018-04-28T12:06:34.000Z</time>
      </trkpt>
      <trkpt lat="48.84845" lon="1.45585">
        <ele>102.40000152588</ele>
        <time>2018-04-28T12:06:37.000Z</time>
      </trkpt>
      <trkpt lat="48.84845" lon="1.45586">
        <ele>102.19999694824</ele>
        <time>2018-04-28T12:06:38.000Z</time>
      </trkpt>
      <trkpt lat="48.84843" lon="1.45591">
        <ele>101.59999847412</ele>
        <time>2018-04-28T12:06:41.000Z</time>
      </trkpt>
      <trkpt lat="48.84842" lon="1.45593">
        <ele>101.40000152588</ele>
        <time>2018-04-28T12:06:43.000Z</time>
      </trkpt>
      <trkpt lat="48.84839" lon="1.456">
        <ele>100.40000152588</ele>
        <time>2018-04-28T12:06:47.000Z</time>
      </trkpt>
      <trkpt lat="48.84833" lon="1.4561">
        <ele>99</ele>
        <time>2018-04-28T12:06:53.000Z</time>
      </trkpt>
      <trkpt lat="48.84832" lon="1.45617">
        <ele>98</ele>
        <time>2018-04-28T12:06:56.000Z</time>
      </trkpt>
      <trkpt lat="48.84829" lon="1.45621">
        <ele>97.400001525879</ele>
        <time>2018-04-28T12:06:58.000Z</time>
      </trkpt>
      <trkpt lat="48.84829" lon="1.45624">
        <ele>97</ele>
        <time>2018-04-28T12:06:59.000Z</time>
      </trkpt>
      <trkpt lat="48.84828" lon="1.45626">
        <ele>97</ele>
        <time>2018-04-28T12:07:00.000Z</time>
      </trkpt>
      <trkpt lat="48.84825" lon="1.45641">
        <ele>96</ele>
        <time>2018-04-28T12:07:07.000Z</time>
      </trkpt>
      <trkpt lat="48.8482" lon="1.45656">
        <ele>95</ele>
        <time>2018-04-28T12:07:14.000Z</time>
      </trkpt>
      <trkpt lat="48.84817" lon="1.45667">
        <ele>93.599998474121</ele>
        <time>2018-04-28T12:07:20.000Z</time>
      </trkpt>
      <trkpt lat="48.84813" lon="1.4568">
        <ele>92.199996948242</ele>
        <time>2018-04-28T12:07:26.000Z</time>
      </trkpt>
      <trkpt lat="48.84811" lon="1.45697">
        <ele>90.400001525879</ele>
        <time>2018-04-28T12:07:33.000Z</time>
      </trkpt>
      <trkpt lat="48.84808" lon="1.45709">
        <ele>89.400001525879</ele>
        <time>2018-04-28T12:07:38.000Z</time>
      </trkpt>
      <trkpt lat="48.84807" lon="1.45713">
        <ele>89.199996948242</ele>
        <time>2018-04-28T12:07:40.000Z</time>
      </trkpt>
      <trkpt lat="48.84805" lon="1.45724">
        <ele>88.400001525879</ele>
        <time>2018-04-28T12:07:45.000Z</time>
      </trkpt>
      <trkpt lat="48.848" lon="1.45735">
        <ele>88</ele>
        <time>2018-04-28T12:07:50.000Z</time>
      </trkpt>
      <trkpt lat="48.84798" lon="1.45745">
        <ele>87.599998474121</ele>
        <time>2018-04-28T12:07:56.000Z</time>
      </trkpt>
      <trkpt lat="48.84795" lon="1.45757">
        <ele>87.199996948242</ele>
        <time>2018-04-28T12:08:02.000Z</time>
      </trkpt>
      <trkpt lat="48.84793" lon="1.45772">
        <ele>85.599998474121</ele>
        <time>2018-04-28T12:08:09.000Z</time>
      </trkpt>
      <trkpt lat="48.8479" lon="1.45782">
        <ele>84.599998474121</ele>
        <time>2018-04-28T12:08:14.000Z</time>
      </trkpt>
      <trkpt lat="48.84791" lon="1.45787">
        <ele>83.800003051758</ele>
        <time>2018-04-28T12:08:16.000Z</time>
      </trkpt>
      <trkpt lat="48.84792" lon="1.4579">
        <ele>83.400001525879</ele>
        <time>2018-04-28T12:08:17.000Z</time>
      </trkpt>
      <trkpt lat="48.8479" lon="1.45805">
        <ele>81.800003051758</ele>
        <time>2018-04-28T12:08:23.000Z</time>
      </trkpt>
      <trkpt lat="48.84787" lon="1.45819">
        <ele>80.599998474121</ele>
        <time>2018-04-28T12:08:29.000Z</time>
      </trkpt>
      <trkpt lat="48.84784" lon="1.45832">
        <ele>80</ele>
        <time>2018-04-28T12:08:35.000Z</time>
      </trkpt>
      <trkpt lat="48.84784" lon="1.4584">
        <ele>79.400001525879</ele>
        <time>2018-04-28T12:08:39.000Z</time>
      </trkpt>
      <trkpt lat="48.84785" lon="1.45843">
        <ele>79.199996948242</ele>
        <time>2018-04-28T12:08:41.000Z</time>
      </trkpt>
      <trkpt lat="48.84784" lon="1.4585">
        <ele>79</ele>
        <time>2018-04-28T12:08:44.000Z</time>
      </trkpt>
      <trkpt lat="48.84782" lon="1.45853">
        <ele>78.800003051758</ele>
        <time>2018-04-28T12:08:45.000Z</time>
      </trkpt>
      <trkpt lat="48.84781" lon="1.45862">
        <ele>78.400001525879</ele>
        <time>2018-04-28T12:08:49.000Z</time>
      </trkpt>
      <trkpt lat="48.84778" lon="1.45873">
        <ele>78</ele>
        <time>2018-04-28T12:08:54.000Z</time>
      </trkpt>
      <trkpt lat="48.84778" lon="1.45877">
        <ele>77.800003051758</ele>
        <time>2018-04-28T12:08:56.000Z</time>
      </trkpt>
      <trkpt lat="48.84776" lon="1.45882">
        <ele>77.800003051758</ele>
        <time>2018-04-28T12:08:58.000Z</time>
      </trkpt>
      <trkpt lat="48.84773" lon="1.45892">
        <ele>77.400001525879</ele>
        <time>2018-04-28T12:09:02.000Z</time>
      </trkpt>
      <trkpt lat="48.84773" lon="1.45894">
        <ele>77.199996948242</ele>
        <time>2018-04-28T12:09:03.000Z</time>
      </trkpt>
      <trkpt lat="48.84771" lon="1.45911">
        <ele>76.800003051758</ele>
        <time>2018-04-28T12:09:10.000Z</time>
      </trkpt>
      <trkpt lat="48.8477" lon="1.45921">
        <ele>76.599998474121</ele>
        <time>2018-04-28T12:09:15.000Z</time>
      </trkpt>
      <trkpt lat="48.84767" lon="1.45934">
        <ele>76.400001525879</ele>
        <time>2018-04-28T12:09:21.000Z</time>
      </trkpt>
      <trkpt lat="48.84767" lon="1.45943">
        <ele>76.199996948242</ele>
        <time>2018-04-28T12:09:25.000Z</time>
      </trkpt>
      <trkpt lat="48.84765" lon="1.45946">
        <ele>76.199996948242</ele>
        <time>2018-04-28T12:09:27.000Z</time>
      </trkpt>
      <trkpt lat="48.84764" lon="1.45953">
        <ele>76</ele>
        <time>2018-04-28T12:09:30.000Z</time>
      </trkpt>
      <trkpt lat="48.84764" lon="1.45956">
        <ele>76</ele>
        <time>2018-04-28T12:09:31.000Z</time>
      </trkpt>
      <trkpt lat="48.84761" lon="1.45966">
        <ele>75.800003051758</ele>
        <time>2018-04-28T12:09:36.000Z</time>
      </trkpt>
      <trkpt lat="48.84758" lon="1.45976">
        <ele>75.800003051758</ele>
        <time>2018-04-28T12:09:41.000Z</time>
      </trkpt>
      <trkpt lat="48.84756" lon="1.45991">
        <ele>75.599998474121</ele>
        <time>2018-04-28T12:09:48.000Z</time>
      </trkpt>
      <trkpt lat="48.84755" lon="1.46003">
        <ele>75.199996948242</ele>
        <time>2018-04-28T12:09:53.000Z</time>
      </trkpt>
      <trkpt lat="48.84755" lon="1.46005">
        <ele>75</ele>
        <time>2018-04-28T12:09:54.000Z</time>
      </trkpt>
      <trkpt lat="48.84754" lon="1.46019">
        <ele>74.599998474121</ele>
        <time>2018-04-28T12:10:00.000Z</time>
      </trkpt>
      <trkpt lat="48.84751" lon="1.46041">
        <ele>74</ele>
        <time>2018-04-28T12:10:09.000Z</time>
      </trkpt>
      <trkpt lat="48.84747" lon="1.46057">
        <ele>73.599998474121</ele>
        <time>2018-04-28T12:10:15.000Z</time>
      </trkpt>
      <trkpt lat="48.84745" lon="1.46066">
        <ele>73.400001525879</ele>
        <time>2018-04-28T12:10:19.000Z</time>
      </trkpt>
      <trkpt lat="48.84744" lon="1.46075">
        <ele>73.199996948242</ele>
        <time>2018-04-28T12:10:23.000Z</time>
      </trkpt>
      <trkpt lat="48.84742" lon="1.46088">
        <ele>73.199996948242</ele>
        <time>2018-04-28T12:10:29.000Z</time>
      </trkpt>
      <trkpt lat="48.84739" lon="1.46097">
        <ele>73.199996948242</ele>
        <time>2018-04-28T12:10:32.000Z</time>
      </trkpt>
      <trkpt lat="48.84738" lon="1.46099">
        <ele>73.199996948242</ele>
        <time>2018-04-28T12:10:33.000Z</time>
      </trkpt>
      <trkpt lat="48.84734" lon="1.46107">
        <ele>73.400001525879</ele>
        <time>2018-04-28T12:10:37.000Z</time>
      </trkpt>
      <trkpt lat="48.84733" lon="1.46109">
        <ele>73.400001525879</ele>
        <time>2018-04-28T12:10:38.000Z</time>
      </trkpt>
      <trkpt lat="48.84729" lon="1.4612">
        <ele>73.400001525879</ele>
        <time>2018-04-28T12:10:43.000Z</time>
      </trkpt>
      <trkpt lat="48.84727" lon="1.46122">
        <ele>73.599998474121</ele>
        <time>2018-04-28T12:10:44.000Z</time>
      </trkpt>
      <trkpt lat="48.84723" lon="1.4613">
        <ele>73.599998474121</ele>
        <time>2018-04-28T12:10:48.000Z</time>
      </trkpt>
      <trkpt lat="48.84719" lon="1.46139">
        <ele>73.800003051758</ele>
        <time>2018-04-28T12:10:52.000Z</time>
      </trkpt>
      <trkpt lat="48.84716" lon="1.46142">
        <ele>73.800003051758</ele>
        <time>2018-04-28T12:10:54.000Z</time>
      </trkpt>
      <trkpt lat="48.84711" lon="1.46149">
        <ele>74</ele>
        <time>2018-04-28T12:10:58.000Z</time>
      </trkpt>
      <trkpt lat="48.84704" lon="1.46157">
        <ele>74</ele>
        <time>2018-04-28T12:11:03.000Z</time>
      </trkpt>
      <trkpt lat="48.84697" lon="1.46165">
        <ele>74.199996948242</ele>
        <time>2018-04-28T12:11:09.000Z</time>
      </trkpt>
      <trkpt lat="48.84689" lon="1.46171">
        <ele>74.400001525879</ele>
        <time>2018-04-28T12:11:15.000Z</time>
      </trkpt>
      <trkpt lat="48.84683" lon="1.46176">
        <ele>74.599998474121</ele>
        <time>2018-04-28T12:11:21.000Z</time>
      </trkpt>
      <trkpt lat="48.84676" lon="1.46179">
        <ele>74.599998474121</ele>
        <time>2018-04-28T12:11:26.000Z</time>
      </trkpt>
      <trkpt lat="48.84669" lon="1.4618">
        <ele>74.800003051758</ele>
        <time>2018-04-28T12:11:31.000Z</time>
      </trkpt>
      <trkpt lat="48.84662" lon="1.46184">
        <ele>74.800003051758</ele>
        <time>2018-04-28T12:11:36.000Z</time>
      </trkpt>
      <trkpt lat="48.8466" lon="1.46185">
        <ele>74.800003051758</ele>
        <time>2018-04-28T12:11:37.000Z</time>
      </trkpt>
      <trkpt lat="48.84652" lon="1.46192">
        <ele>74.800003051758</ele>
        <time>2018-04-28T12:11:43.000Z</time>
      </trkpt>
      <trkpt lat="48.84644" lon="1.46197">
        <ele>75.199996948242</ele>
        <time>2018-04-28T12:11:49.000Z</time>
      </trkpt>
      <trkpt lat="48.84642" lon="1.46199">
        <ele>75.199996948242</ele>
        <time>2018-04-28T12:11:51.000Z</time>
      </trkpt>
      <trkpt lat="48.84636" lon="1.46204">
        <ele>75.599998474121</ele>
        <time>2018-04-28T12:11:54.000Z</time>
      </trkpt>
      <trkpt lat="48.84635" lon="1.46206">
        <ele>75.599998474121</ele>
        <time>2018-04-28T12:11:55.000Z</time>
      </trkpt>
      <trkpt lat="48.84629" lon="1.46211">
        <ele>76</ele>
        <time>2018-04-28T12:12:00.000Z</time>
      </trkpt>
      <trkpt lat="48.84625" lon="1.46216">
        <ele>76</ele>
        <time>2018-04-28T12:12:03.000Z</time>
      </trkpt>
      <trkpt lat="48.84623" lon="1.46218">
        <ele>76.199996948242</ele>
        <time>2018-04-28T12:12:04.000Z</time>
      </trkpt>
      <trkpt lat="48.84614" lon="1.46227">
        <ele>76.599998474121</ele>
        <time>2018-04-28T12:12:10.000Z</time>
      </trkpt>
      <trkpt lat="48.8461" lon="1.4623">
        <ele>76.800003051758</ele>
        <time>2018-04-28T12:12:13.000Z</time>
      </trkpt>
      <trkpt lat="48.84609" lon="1.46231">
        <ele>76.800003051758</ele>
        <time>2018-04-28T12:12:14.000Z</time>
      </trkpt>
      <trkpt lat="48.84603" lon="1.46238">
        <ele>77</ele>
        <time>2018-04-28T12:12:19.000Z</time>
      </trkpt>
      <trkpt lat="48.84596" lon="1.46245">
        <ele>77.199996948242</ele>
        <time>2018-04-28T12:12:24.000Z</time>
      </trkpt>
      <trkpt lat="48.84593" lon="1.46249">
        <ele>77.199996948242</ele>
        <time>2018-04-28T12:12:26.000Z</time>
      </trkpt>
      <trkpt lat="48.84589" lon="1.46253">
        <ele>77.400001525879</ele>
        <time>2018-04-28T12:12:29.000Z</time>
      </trkpt>
      <trkpt lat="48.8458" lon="1.46265">
        <ele>77.599998474121</ele>
        <time>2018-04-28T12:12:36.000Z</time>
      </trkpt>
      <trkpt lat="48.84574" lon="1.46275">
        <ele>77.599998474121</ele>
        <time>2018-04-28T12:12:41.000Z</time>
      </trkpt>
      <trkpt lat="48.84565" lon="1.46283">
        <ele>78</ele>
        <time>2018-04-28T12:12:47.000Z</time>
      </trkpt>
      <trkpt lat="48.84562" lon="1.46286">
        <ele>78</ele>
        <time>2018-04-28T12:12:50.000Z</time>
      </trkpt>
      <trkpt lat="48.84561" lon="1.46287">
        <ele>78.199996948242</ele>
        <time>2018-04-28T12:12:51.000Z</time>
      </trkpt>
      <trkpt lat="48.84556" lon="1.4629">
        <ele>78.400001525879</ele>
        <time>2018-04-28T12:12:56.000Z</time>
      </trkpt>
      <trkpt lat="48.84554" lon="1.46291">
        <ele>78.400001525879</ele>
        <time>2018-04-28T12:12:57.000Z</time>
      </trkpt>
      <trkpt lat="48.8455" lon="1.46294">
        <ele>78.599998474121</ele>
        <time>2018-04-28T12:13:00.000Z</time>
      </trkpt>
      <trkpt lat="48.84543" lon="1.46295">
        <ele>79</ele>
        <time>2018-04-28T12:13:04.000Z</time>
      </trkpt>
      <trkpt lat="48.84535" lon="1.46298">
        <ele>79.400001525879</ele>
        <time>2018-04-28T12:13:09.000Z</time>
      </trkpt>
      <trkpt lat="48.84532" lon="1.463">
        <ele>79.599998474121</ele>
        <time>2018-04-28T12:13:11.000Z</time>
      </trkpt>
      <trkpt lat="48.8453" lon="1.463">
        <ele>79.599998474121</ele>
        <time>2018-04-28T12:13:13.000Z</time>
      </trkpt>
      <trkpt lat="48.84526" lon="1.463">
        <ele>79.800003051758</ele>
        <time>2018-04-28T12:13:15.000Z</time>
      </trkpt>
      <trkpt lat="48.84517" lon="1.463">
        <ele>80</ele>
        <time>2018-04-28T12:13:19.000Z</time>
      </trkpt>
      <trkpt lat="48.84505" lon="1.46298">
        <ele>80.199996948242</ele>
        <time>2018-04-28T12:13:26.000Z</time>
      </trkpt>
      <trkpt lat="48.84495" lon="1.46299">
        <ele>80.400001525879</ele>
        <time>2018-04-28T12:13:32.000Z</time>
      </trkpt>
      <trkpt lat="48.84483" lon="1.46298">
        <ele>80.400001525879</ele>
        <time>2018-04-28T12:13:39.000Z</time>
      </trkpt>
      <trkpt lat="48.84473" lon="1.46299">
        <ele>80.599998474121</ele>
        <time>2018-04-28T12:13:44.000Z</time>
      </trkpt>
      <trkpt lat="48.8446" lon="1.46298">
        <ele>80.800003051758</ele>
        <time>2018-04-28T12:13:51.000Z</time>
      </trkpt>
      <trkpt lat="48.84455" lon="1.46299">
        <ele>80.800003051758</ele>
        <time>2018-04-28T12:13:55.000Z</time>
      </trkpt>
      <trkpt lat="48.84445" lon="1.463">
        <ele>81</ele>
        <time>2018-04-28T12:14:02.000Z</time>
      </trkpt>
      <trkpt lat="48.84438" lon="1.46299">
        <ele>81</ele>
        <time>2018-04-28T12:14:06.000Z</time>
      </trkpt>
      <trkpt lat="48.84437" lon="1.463">
        <ele>81</ele>
        <time>2018-04-28T12:14:07.000Z</time>
      </trkpt>
      <trkpt lat="48.84425" lon="1.46302">
        <ele>81</ele>
        <time>2018-04-28T12:14:14.000Z</time>
      </trkpt>
      <trkpt lat="48.84418" lon="1.46303">
        <ele>81</ele>
        <time>2018-04-28T12:14:19.000Z</time>
      </trkpt>
      <trkpt lat="48.84406" lon="1.46307">
        <ele>81</ele>
        <time>2018-04-28T12:14:26.000Z</time>
      </trkpt>
      <trkpt lat="48.84391" lon="1.46315">
        <ele>81</ele>
        <time>2018-04-28T12:14:35.000Z</time>
      </trkpt>
      <trkpt lat="48.84379" lon="1.46323">
        <ele>80.599998474121</ele>
        <time>2018-04-28T12:14:43.000Z</time>
      </trkpt>
      <trkpt lat="48.84366" lon="1.46332">
        <ele>80.400001525879</ele>
        <time>2018-04-28T12:14:51.000Z</time>
      </trkpt>
      <trkpt lat="48.84352" lon="1.46341">
        <ele>80</ele>
        <time>2018-04-28T12:15:00.000Z</time>
      </trkpt>
      <trkpt lat="48.84341" lon="1.46347">
        <ele>79.800003051758</ele>
        <time>2018-04-28T12:15:07.000Z</time>
      </trkpt>
      <trkpt lat="48.84331" lon="1.46351">
        <ele>79.400001525879</ele>
        <time>2018-04-28T12:15:13.000Z</time>
      </trkpt>
      <trkpt lat="48.84319" lon="1.46355">
        <ele>79.199996948242</ele>
        <time>2018-04-28T12:15:21.000Z</time>
      </trkpt>
      <trkpt lat="48.84307" lon="1.46359">
        <ele>78.800003051758</ele>
        <time>2018-04-28T12:15:29.000Z</time>
      </trkpt>
      <trkpt lat="48.84298" lon="1.4636">
        <ele>78.599998474121</ele>
        <time>2018-04-28T12:15:35.000Z</time>
      </trkpt>
      <trkpt lat="48.84287" lon="1.46364">
        <ele>78</ele>
        <time>2018-04-28T12:15:43.000Z</time>
      </trkpt>
      <trkpt lat="48.84274" lon="1.46364">
        <ele>77.800003051758</ele>
        <time>2018-04-28T12:15:51.000Z</time>
      </trkpt>
      <trkpt lat="48.8426" lon="1.46363">
        <ele>78</ele>
        <time>2018-04-28T12:15:59.000Z</time>
      </trkpt>
      <trkpt lat="48.84244" lon="1.46361">
        <ele>78.199996948242</ele>
        <time>2018-04-28T12:16:07.000Z</time>
      </trkpt>
      <trkpt lat="48.84231" lon="1.46358">
        <ele>78.599998474121</ele>
        <time>2018-04-28T12:16:14.000Z</time>
      </trkpt>
      <trkpt lat="48.8422" lon="1.46354">
        <ele>78.800003051758</ele>
        <time>2018-04-28T12:16:21.000Z</time>
      </trkpt>
      <trkpt lat="48.84209" lon="1.46349">
        <ele>79.199996948242</ele>
        <time>2018-04-28T12:16:28.000Z</time>
      </trkpt>
      <trkpt lat="48.842" lon="1.46343">
        <ele>79.599998474121</ele>
        <time>2018-04-28T12:16:34.000Z</time>
      </trkpt>
      <trkpt lat="48.84186" lon="1.46334">
        <ele>80</ele>
        <time>2018-04-28T12:16:42.000Z</time>
      </trkpt>
      <trkpt lat="48.84174" lon="1.46325">
        <ele>79.800003051758</ele>
        <time>2018-04-28T12:16:50.000Z</time>
      </trkpt>
      <trkpt lat="48.84165" lon="1.46315">
        <ele>79.800003051758</ele>
        <time>2018-04-28T12:16:58.000Z</time>
      </trkpt>
      <trkpt lat="48.84157" lon="1.46308">
        <ele>79.800003051758</ele>
        <time>2018-04-28T12:17:04.000Z</time>
      </trkpt>
      <trkpt lat="48.84154" lon="1.46305">
        <ele>79.800003051758</ele>
        <time>2018-04-28T12:17:07.000Z</time>
      </trkpt>
      <trkpt lat="48.84149" lon="1.46301">
        <ele>79.599998474121</ele>
        <time>2018-04-28T12:17:11.000Z</time>
      </trkpt>
      <trkpt lat="48.84141" lon="1.46293">
        <ele>79.599998474121</ele>
        <time>2018-04-28T12:17:18.000Z</time>
      </trkpt>
      <trkpt lat="48.84139" lon="1.46292">
        <ele>79.400001525879</ele>
        <time>2018-04-28T12:17:19.000Z</time>
      </trkpt>
      <trkpt lat="48.84135" lon="1.46287">
        <ele>79.400001525879</ele>
        <time>2018-04-28T12:17:23.000Z</time>
      </trkpt>
      <trkpt lat="48.84129" lon="1.46281">
        <ele>79.400001525879</ele>
        <time>2018-04-28T12:17:28.000Z</time>
      </trkpt>
      <trkpt lat="48.8412" lon="1.46272">
        <ele>79.199996948242</ele>
        <time>2018-04-28T12:17:35.000Z</time>
      </trkpt>
      <trkpt lat="48.84113" lon="1.46262">
        <ele>79.400001525879</ele>
        <time>2018-04-28T12:17:41.000Z</time>
      </trkpt>
      <trkpt lat="48.84107" lon="1.46252">
        <ele>79.400001525879</ele>
        <time>2018-04-28T12:17:48.000Z</time>
      </trkpt>
      <trkpt lat="48.84103" lon="1.46241">
        <ele>79.800003051758</ele>
        <time>2018-04-28T12:17:54.000Z</time>
      </trkpt>
      <trkpt lat="48.84098" lon="1.46227">
        <ele>80</ele>
        <time>2018-04-28T12:18:01.000Z</time>
      </trkpt>
      <trkpt lat="48.84092" lon="1.46208">
        <ele>80.199996948242</ele>
        <time>2018-04-28T12:18:10.000Z</time>
      </trkpt>
      <trkpt lat="48.8409" lon="1.46195">
        <ele>80.400001525879</ele>
        <time>2018-04-28T12:18:16.000Z</time>
      </trkpt>
      <trkpt lat="48.84087" lon="1.46184">
        <ele>80.599998474121</ele>
        <time>2018-04-28T12:18:22.000Z</time>
      </trkpt>
      <trkpt lat="48.84086" lon="1.46176">
        <ele>80.599998474121</ele>
        <time>2018-04-28T12:18:26.000Z</time>
      </trkpt>
      <trkpt lat="48.84085" lon="1.46173">
        <ele>80.800003051758</ele>
        <time>2018-04-28T12:18:27.000Z</time>
      </trkpt>
      <trkpt lat="48.84083" lon="1.46163">
        <ele>80.800003051758</ele>
        <time>2018-04-28T12:18:32.000Z</time>
      </trkpt>
      <trkpt lat="48.84083" lon="1.4616">
        <ele>80.800003051758</ele>
        <time>2018-04-28T12:18:33.000Z</time>
      </trkpt>
      <trkpt lat="48.8408" lon="1.46146">
        <ele>81</ele>
        <time>2018-04-28T12:18:39.000Z</time>
      </trkpt>
      <trkpt lat="48.84077" lon="1.46132">
        <ele>80.599998474121</ele>
        <time>2018-04-28T12:18:45.000Z</time>
      </trkpt>
      <trkpt lat="48.84076" lon="1.4613">
        <ele>80.599998474121</ele>
        <time>2018-04-28T12:18:46.000Z</time>
      </trkpt>
      <trkpt lat="48.84075" lon="1.46119">
        <ele>80.199996948242</ele>
        <time>2018-04-28T12:18:51.000Z</time>
      </trkpt>
      <trkpt lat="48.84071" lon="1.46104">
        <ele>80.400001525879</ele>
        <time>2018-04-28T12:18:58.000Z</time>
      </trkpt>
      <trkpt lat="48.8407" lon="1.46096">
        <ele>80.599998474121</ele>
        <time>2018-04-28T12:19:01.000Z</time>
      </trkpt>
      <trkpt lat="48.84069" lon="1.46093">
        <ele>80.599998474121</ele>
        <time>2018-04-28T12:19:03.000Z</time>
      </trkpt>
      <trkpt lat="48.84068" lon="1.46086">
        <ele>80.800003051758</ele>
        <time>2018-04-28T12:19:06.000Z</time>
      </trkpt>
      <trkpt lat="48.84067" lon="1.46079">
        <ele>80.800003051758</ele>
        <time>2018-04-28T12:19:09.000Z</time>
      </trkpt>
      <trkpt lat="48.84064" lon="1.46069">
        <ele>81</ele>
        <time>2018-04-28T12:19:14.000Z</time>
      </trkpt>
      <trkpt lat="48.8406" lon="1.46052">
        <ele>81</ele>
        <time>2018-04-28T12:19:21.000Z</time>
      </trkpt>
      <trkpt lat="48.84055" lon="1.46037">
        <ele>81</ele>
        <time>2018-04-28T12:19:28.000Z</time>
      </trkpt>
      <trkpt lat="48.84049" lon="1.4602">
        <ele>80.800003051758</ele>
        <time>2018-04-28T12:19:36.000Z</time>
      </trkpt>
      <trkpt lat="48.84043" lon="1.46005">
        <ele>80.800003051758</ele>
        <time>2018-04-28T12:19:43.000Z</time>
      </trkpt>
      <trkpt lat="48.84038" lon="1.4599">
        <ele>81.199996948242</ele>
        <time>2018-04-28T12:19:50.000Z</time>
      </trkpt>
      <trkpt lat="48.84033" lon="1.45978">
        <ele>81.599998474121</ele>
        <time>2018-04-28T12:19:56.000Z</time>
      </trkpt>
      <trkpt lat="48.8403" lon="1.45964">
        <ele>81.800003051758</ele>
        <time>2018-04-28T12:20:02.000Z</time>
      </trkpt>
      <trkpt lat="48.84026" lon="1.45956">
        <ele>81.599998474121</ele>
        <time>2018-04-28T12:20:06.000Z</time>
      </trkpt>
      <trkpt lat="48.84023" lon="1.4595">
        <ele>81.599998474121</ele>
        <time>2018-04-28T12:20:09.000Z</time>
      </trkpt>
      <trkpt lat="48.84021" lon="1.45946">
        <ele>81.800003051758</ele>
        <time>2018-04-28T12:20:11.000Z</time>
      </trkpt>
      <trkpt lat="48.84015" lon="1.45933">
        <ele>82.199996948242</ele>
        <time>2018-04-28T12:20:18.000Z</time>
      </trkpt>
      <trkpt lat="48.84011" lon="1.45925">
        <ele>82.400001525879</ele>
        <time>2018-04-28T12:20:22.000Z</time>
      </trkpt>
      <trkpt lat="48.84004" lon="1.45912">
        <ele>82.800003051758</ele>
        <time>2018-04-28T12:20:28.000Z</time>
      </trkpt>
      <trkpt lat="48.84004" lon="1.45909">
        <ele>82.800003051758</ele>
        <time>2018-04-28T12:20:29.000Z</time>
      </trkpt>
      <trkpt lat="48.84" lon="1.45901">
        <ele>83.199996948242</ele>
        <time>2018-04-28T12:20:33.000Z</time>
      </trkpt>
      <trkpt lat="48.83994" lon="1.45889">
        <ele>82.800003051758</ele>
        <time>2018-04-28T12:20:39.000Z</time>
      </trkpt>
      <trkpt lat="48.83991" lon="1.45882">
        <ele>82.400001525879</ele>
        <time>2018-04-28T12:20:43.000Z</time>
      </trkpt>
      <trkpt lat="48.83989" lon="1.45879">
        <ele>82.400001525879</ele>
        <time>2018-04-28T12:20:45.000Z</time>
      </trkpt>
      <trkpt lat="48.83981" lon="1.45859">
        <ele>81.599998474121</ele>
        <time>2018-04-28T12:20:54.000Z</time>
      </trkpt>
      <trkpt lat="48.83972" lon="1.45842">
        <ele>81.400001525879</ele>
        <time>2018-04-28T12:21:02.000Z</time>
      </trkpt>
      <trkpt lat="48.83964" lon="1.45824">
        <ele>81.199996948242</ele>
        <time>2018-04-28T12:21:11.000Z</time>
      </trkpt>
      <trkpt lat="48.83956" lon="1.4581">
        <ele>81</ele>
        <time>2018-04-28T12:21:18.000Z</time>
      </trkpt>
      <trkpt lat="48.83948" lon="1.45793">
        <ele>80.599998474121</ele>
        <time>2018-04-28T12:21:27.000Z</time>
      </trkpt>
      <trkpt lat="48.83941" lon="1.45779">
        <ele>80.199996948242</ele>
        <time>2018-04-28T12:21:34.000Z</time>
      </trkpt>
      <trkpt lat="48.83934" lon="1.45763">
        <ele>80.400001525879</ele>
        <time>2018-04-28T12:21:42.000Z</time>
      </trkpt>
      <trkpt lat="48.83926" lon="1.45747">
        <ele>81</ele>
        <time>2018-04-28T12:21:50.000Z</time>
      </trkpt>
      <trkpt lat="48.83918" lon="1.45733">
        <ele>81.400001525879</ele>
        <time>2018-04-28T12:21:57.000Z</time>
      </trkpt>
      <trkpt lat="48.83912" lon="1.4572">
        <ele>81.199996948242</ele>
        <time>2018-04-28T12:22:04.000Z</time>
      </trkpt>
      <trkpt lat="48.83907" lon="1.45708">
        <ele>80.800003051758</ele>
        <time>2018-04-28T12:22:10.000Z</time>
      </trkpt>
      <trkpt lat="48.839" lon="1.45691">
        <ele>80.599998474121</ele>
        <time>2018-04-28T12:22:18.000Z</time>
      </trkpt>
      <trkpt lat="48.83892" lon="1.45672">
        <ele>81</ele>
        <time>2018-04-28T12:22:27.000Z</time>
      </trkpt>
      <trkpt lat="48.83886" lon="1.45658">
        <ele>81.400001525879</ele>
        <time>2018-04-28T12:22:34.000Z</time>
      </trkpt>
      <trkpt lat="48.83876" lon="1.45639">
        <ele>81.400001525879</ele>
        <time>2018-04-28T12:22:43.000Z</time>
      </trkpt>
      <trkpt lat="48.83869" lon="1.45623">
        <ele>81.400001525879</ele>
        <time>2018-04-28T12:22:51.000Z</time>
      </trkpt>
      <trkpt lat="48.8386" lon="1.45603">
        <ele>81.400001525879</ele>
        <time>2018-04-28T12:23:01.000Z</time>
      </trkpt>
      <trkpt lat="48.83852" lon="1.45583">
        <ele>81.800003051758</ele>
        <time>2018-04-28T12:23:11.000Z</time>
      </trkpt>
      <trkpt lat="48.83846" lon="1.4557">
        <ele>82.599998474121</ele>
        <time>2018-04-28T12:23:18.000Z</time>
      </trkpt>
      <trkpt lat="48.83837" lon="1.45555">
        <ele>82.599998474121</ele>
        <time>2018-04-28T12:23:26.000Z</time>
      </trkpt>
      <trkpt lat="48.83825" lon="1.45534">
        <ele>82.400001525879</ele>
        <time>2018-04-28T12:23:38.000Z</time>
      </trkpt>
      <trkpt lat="48.83818" lon="1.45522">
        <ele>82.800003051758</ele>
        <time>2018-04-28T12:23:45.000Z</time>
      </trkpt>
      <trkpt lat="48.83814" lon="1.45519">
        <ele>82.800003051758</ele>
        <time>2018-04-28T12:23:49.000Z</time>
      </trkpt>
      <trkpt lat="48.83814" lon="1.45518">
        <ele>83</ele>
        <time>2018-04-28T12:23:50.000Z</time>
      </trkpt>
      <trkpt lat="48.83809" lon="1.45509">
        <ele>83.400001525879</ele>
        <time>2018-04-28T12:23:54.000Z</time>
      </trkpt>
      <trkpt lat="48.83801" lon="1.45497">
        <ele>83.800003051758</ele>
        <time>2018-04-28T12:24:00.000Z</time>
      </trkpt>
      <trkpt lat="48.83793" lon="1.45484">
        <ele>84.199996948242</ele>
        <time>2018-04-28T12:24:08.000Z</time>
      </trkpt>
      <trkpt lat="48.83785" lon="1.45472">
        <ele>84.400001525879</ele>
        <time>2018-04-28T12:24:15.000Z</time>
      </trkpt>
      <trkpt lat="48.83776" lon="1.45461">
        <ele>84.599998474121</ele>
        <time>2018-04-28T12:24:22.000Z</time>
      </trkpt>
      <trkpt lat="48.83763" lon="1.45445">
        <ele>85.199996948242</ele>
        <time>2018-04-28T12:24:32.000Z</time>
      </trkpt>
      <trkpt lat="48.83752" lon="1.45431">
        <ele>85.800003051758</ele>
        <time>2018-04-28T12:24:41.000Z</time>
      </trkpt>
      <trkpt lat="48.83742" lon="1.45422">
        <ele>86.199996948242</ele>
        <time>2018-04-28T12:24:48.000Z</time>
      </trkpt>
      <trkpt lat="48.83733" lon="1.45414">
        <ele>86.599998474121</ele>
        <time>2018-04-28T12:24:54.000Z</time>
      </trkpt>
      <trkpt lat="48.83722" lon="1.45408">
        <ele>86.800003051758</ele>
        <time>2018-04-28T12:25:01.000Z</time>
      </trkpt>
      <trkpt lat="48.83711" lon="1.45403">
        <ele>87</ele>
        <time>2018-04-28T12:25:08.000Z</time>
      </trkpt>
      <trkpt lat="48.83698" lon="1.45398">
        <ele>87.199996948242</ele>
        <time>2018-04-28T12:25:16.000Z</time>
      </trkpt>
      <trkpt lat="48.83687" lon="1.45394">
        <ele>87.400001525879</ele>
        <time>2018-04-28T12:25:23.000Z</time>
      </trkpt>
      <trkpt lat="48.83677" lon="1.45392">
        <ele>87.599998474121</ele>
        <time>2018-04-28T12:25:29.000Z</time>
      </trkpt>
      <trkpt lat="48.83665" lon="1.45387">
        <ele>87.800003051758</ele>
        <time>2018-04-28T12:25:37.000Z</time>
      </trkpt>
      <trkpt lat="48.83651" lon="1.45383">
        <ele>88.199996948242</ele>
        <time>2018-04-28T12:25:46.000Z</time>
      </trkpt>
      <trkpt lat="48.83639" lon="1.45379">
        <ele>88.400001525879</ele>
        <time>2018-04-28T12:25:54.000Z</time>
      </trkpt>
      <trkpt lat="48.83627" lon="1.45374">
        <ele>88.800003051758</ele>
        <time>2018-04-28T12:26:02.000Z</time>
      </trkpt>
      <trkpt lat="48.83619" lon="1.4537">
        <ele>89</ele>
        <time>2018-04-28T12:26:08.000Z</time>
      </trkpt>
      <trkpt lat="48.83607" lon="1.45363">
        <ele>89.599998474121</ele>
        <time>2018-04-28T12:26:16.000Z</time>
      </trkpt>
      <trkpt lat="48.83596" lon="1.45356">
        <ele>89.800003051758</ele>
        <time>2018-04-28T12:26:23.000Z</time>
      </trkpt>
      <trkpt lat="48.83584" lon="1.45349">
        <ele>89.800003051758</ele>
        <time>2018-04-28T12:26:31.000Z</time>
      </trkpt>
      <trkpt lat="48.8357" lon="1.45342">
        <ele>89.800003051758</ele>
        <time>2018-04-28T12:26:40.000Z</time>
      </trkpt>
      <trkpt lat="48.8356" lon="1.45335">
        <ele>90</ele>
        <time>2018-04-28T12:26:47.000Z</time>
      </trkpt>
      <trkpt lat="48.83546" lon="1.45327">
        <ele>90</ele>
        <time>2018-04-28T12:26:56.000Z</time>
      </trkpt>
      <trkpt lat="48.83532" lon="1.4532">
        <ele>90.199996948242</ele>
        <time>2018-04-28T12:27:05.000Z</time>
      </trkpt>
      <trkpt lat="48.83521" lon="1.45312">
        <ele>90.199996948242</ele>
        <time>2018-04-28T12:27:13.000Z</time>
      </trkpt>
      <trkpt lat="48.83508" lon="1.45304">
        <ele>90.199996948242</ele>
        <time>2018-04-28T12:27:21.000Z</time>
      </trkpt>
      <trkpt lat="48.8349" lon="1.45295">
        <ele>90.199996948242</ele>
        <time>2018-04-28T12:27:32.000Z</time>
      </trkpt>
      <trkpt lat="48.83477" lon="1.45288">
        <ele>90.400001525879</ele>
        <time>2018-04-28T12:27:40.000Z</time>
      </trkpt>
      <trkpt lat="48.83459" lon="1.4528">
        <ele>90.400001525879</ele>
        <time>2018-04-28T12:27:51.000Z</time>
      </trkpt>
      <trkpt lat="48.83458" lon="1.45279">
        <ele>90.400001525879</ele>
        <time>2018-04-28T12:27:52.000Z</time>
      </trkpt>
      <trkpt lat="48.8344" lon="1.45275">
        <ele>90.400001525879</ele>
        <time>2018-04-28T12:28:03.000Z</time>
      </trkpt>
      <trkpt lat="48.83427" lon="1.45272">
        <ele>90.599998474121</ele>
        <time>2018-04-28T12:28:11.000Z</time>
      </trkpt>
      <trkpt lat="48.83424" lon="1.4527">
        <ele>90.800003051758</ele>
        <time>2018-04-28T12:28:14.000Z</time>
      </trkpt>
      <trkpt lat="48.83419" lon="1.45268">
        <ele>90.800003051758</ele>
        <time>2018-04-28T12:28:16.000Z</time>
      </trkpt>
      <trkpt lat="48.83411" lon="1.45258">
        <ele>91</ele>
        <time>2018-04-28T12:28:22.000Z</time>
      </trkpt>
      <trkpt lat="48.83405" lon="1.45247">
        <ele>91.199996948242</ele>
        <time>2018-04-28T12:28:28.000Z</time>
      </trkpt>
      <trkpt lat="48.83399" lon="1.45233">
        <ele>91.400001525879</ele>
        <time>2018-04-28T12:28:35.000Z</time>
      </trkpt>
      <trkpt lat="48.83397" lon="1.4523">
        <ele>91.599998474121</ele>
        <time>2018-04-28T12:28:37.000Z</time>
      </trkpt>
      <trkpt lat="48.83395" lon="1.45223">
        <ele>91.599998474121</ele>
        <time>2018-04-28T12:28:40.000Z</time>
      </trkpt>
      <trkpt lat="48.83391" lon="1.45209">
        <ele>91.599998474121</ele>
        <time>2018-04-28T12:28:46.000Z</time>
      </trkpt>
      <trkpt lat="48.83389" lon="1.45203">
        <ele>91.599998474121</ele>
        <time>2018-04-28T12:28:50.000Z</time>
      </trkpt>
      <trkpt lat="48.83385" lon="1.45186">
        <ele>91.599998474121</ele>
        <time>2018-04-28T12:28:58.000Z</time>
      </trkpt>
      <trkpt lat="48.83381" lon="1.45169">
        <ele>91.800003051758</ele>
        <time>2018-04-28T12:29:05.000Z</time>
      </trkpt>
      <trkpt lat="48.83377" lon="1.45153">
        <ele>92.400001525879</ele>
        <time>2018-04-28T12:29:12.000Z</time>
      </trkpt>
      <trkpt lat="48.83372" lon="1.45133">
        <ele>92.800003051758</ele>
        <time>2018-04-28T12:29:20.000Z</time>
      </trkpt>
      <trkpt lat="48.8337" lon="1.45122">
        <ele>93</ele>
        <time>2018-04-28T12:29:25.000Z</time>
      </trkpt>
      <trkpt lat="48.83367" lon="1.45108">
        <ele>93.199996948242</ele>
        <time>2018-04-28T12:29:31.000Z</time>
      </trkpt>
      <trkpt lat="48.83362" lon="1.45088">
        <ele>93.599998474121</ele>
        <time>2018-04-28T12:29:40.000Z</time>
      </trkpt>
      <trkpt lat="48.83358" lon="1.45073">
        <ele>93.800003051758</ele>
        <time>2018-04-28T12:29:47.000Z</time>
      </trkpt>
      <trkpt lat="48.83353" lon="1.45055">
        <ele>94.400001525879</ele>
        <time>2018-04-28T12:29:55.000Z</time>
      </trkpt>
      <trkpt lat="48.83348" lon="1.45039">
        <ele>95.199996948242</ele>
        <time>2018-04-28T12:30:02.000Z</time>
      </trkpt>
      <trkpt lat="48.83344" lon="1.45021">
        <ele>95.800003051758</ele>
        <time>2018-04-28T12:30:10.000Z</time>
      </trkpt>
      <trkpt lat="48.83339" lon="1.45">
        <ele>96.599998474121</ele>
        <time>2018-04-28T12:30:19.000Z</time>
      </trkpt>
      <trkpt lat="48.83334" lon="1.4498">
        <ele>97.199996948242</ele>
        <time>2018-04-28T12:30:28.000Z</time>
      </trkpt>
      <trkpt lat="48.83329" lon="1.44958">
        <ele>97</ele>
        <time>2018-04-28T12:30:38.000Z</time>
      </trkpt>
      <trkpt lat="48.83323" lon="1.44936">
        <ele>97.599998474121</ele>
        <time>2018-04-28T12:30:48.000Z</time>
      </trkpt>
      <trkpt lat="48.8332" lon="1.44919">
        <ele>98.199996948242</ele>
        <time>2018-04-28T12:30:55.000Z</time>
      </trkpt>
      <trkpt lat="48.83316" lon="1.44901">
        <ele>98.800003051758</ele>
        <time>2018-04-28T12:31:03.000Z</time>
      </trkpt>
      <trkpt lat="48.8331" lon="1.44876">
        <ele>99.400001525879</ele>
        <time>2018-04-28T12:31:14.000Z</time>
      </trkpt>
      <trkpt lat="48.83305" lon="1.44854">
        <ele>99.599998474121</ele>
        <time>2018-04-28T12:31:24.000Z</time>
      </trkpt>
      <trkpt lat="48.83301" lon="1.44837">
        <ele>100.40000152588</ele>
        <time>2018-04-28T12:31:32.000Z</time>
      </trkpt>
      <trkpt lat="48.83297" lon="1.44829">
        <ele>100.80000305176</ele>
        <time>2018-04-28T12:31:36.000Z</time>
      </trkpt>
      <trkpt lat="48.83297" lon="1.44824">
        <ele>101</ele>
        <time>2018-04-28T12:31:38.000Z</time>
      </trkpt>
      <trkpt lat="48.83295" lon="1.4482">
        <ele>101.19999694824</ele>
        <time>2018-04-28T12:31:40.000Z</time>
      </trkpt>
      <trkpt lat="48.83292" lon="1.44804">
        <ele>101.40000152588</ele>
        <time>2018-04-28T12:31:47.000Z</time>
      </trkpt>
      <trkpt lat="48.83287" lon="1.44783">
        <ele>101.40000152588</ele>
        <time>2018-04-28T12:31:56.000Z</time>
      </trkpt>
      <trkpt lat="48.83282" lon="1.44765">
        <ele>101.59999847412</ele>
        <time>2018-04-28T12:32:04.000Z</time>
      </trkpt>
      <trkpt lat="48.83277" lon="1.44748">
        <ele>101.80000305176</ele>
        <time>2018-04-28T12:32:12.000Z</time>
      </trkpt>
      <trkpt lat="48.83275" lon="1.44741">
        <ele>101.80000305176</ele>
        <time>2018-04-28T12:32:15.000Z</time>
      </trkpt>
      <trkpt lat="48.83272" lon="1.44729">
        <ele>101.80000305176</ele>
        <time>2018-04-28T12:32:21.000Z</time>
      </trkpt>
      <trkpt lat="48.83267" lon="1.44713">
        <ele>102</ele>
        <time>2018-04-28T12:32:29.000Z</time>
      </trkpt>
      <trkpt lat="48.8326" lon="1.44703">
        <ele>102.80000305176</ele>
        <time>2018-04-28T12:32:36.000Z</time>
      </trkpt>
      <trkpt lat="48.8325" lon="1.447">
        <ele>104.19999694824</ele>
        <time>2018-04-28T12:32:43.000Z</time>
      </trkpt>
      <trkpt lat="48.83242" lon="1.44699">
        <ele>105.59999847412</ele>
        <time>2018-04-28T12:32:48.000Z</time>
      </trkpt>
      <trkpt lat="48.83241" lon="1.44699">
        <ele>105.59999847412</ele>
        <time>2018-04-28T12:32:49.000Z</time>
      </trkpt>
      <trkpt lat="48.83238" lon="1.44701">
        <ele>106.40000152588</ele>
        <time>2018-04-28T12:32:52.000Z</time>
      </trkpt>
      <trkpt lat="48.83233" lon="1.447">
        <ele>107.19999694824</ele>
        <time>2018-04-28T12:32:56.000Z</time>
      </trkpt>
      <trkpt lat="48.83232" lon="1.44701">
        <ele>107.40000152588</ele>
        <time>2018-04-28T12:32:57.000Z</time>
      </trkpt>
      <trkpt lat="48.83226" lon="1.447">
        <ele>108.40000152588</ele>
        <time>2018-04-28T12:33:02.000Z</time>
      </trkpt>
      <trkpt lat="48.8322" lon="1.447">
        <ele>109.59999847412</ele>
        <time>2018-04-28T12:33:07.000Z</time>
      </trkpt>
      <trkpt lat="48.83218" lon="1.447">
        <ele>110</ele>
        <time>2018-04-28T12:33:08.000Z</time>
      </trkpt>
      <trkpt lat="48.83215" lon="1.44698">
        <ele>110.59999847412</ele>
        <time>2018-04-28T12:33:11.000Z</time>
      </trkpt>
      <trkpt lat="48.83214" lon="1.44698">
        <ele>110.80000305176</ele>
        <time>2018-04-28T12:33:12.000Z</time>
      </trkpt>
      <trkpt lat="48.83208" lon="1.447">
        <ele>112</ele>
        <time>2018-04-28T12:33:17.000Z</time>
      </trkpt>
      <trkpt lat="48.83202" lon="1.44699">
        <ele>113.19999694824</ele>
        <time>2018-04-28T12:33:22.000Z</time>
      </trkpt>
      <trkpt lat="48.832" lon="1.44698">
        <ele>113.40000152588</ele>
        <time>2018-04-28T12:33:23.000Z</time>
      </trkpt>
      <trkpt lat="48.8319" lon="1.44702">
        <ele>115.40000152588</ele>
        <time>2018-04-28T12:33:30.000Z</time>
      </trkpt>
      <trkpt lat="48.83189" lon="1.44702">
        <ele>115.80000305176</ele>
        <time>2018-04-28T12:33:31.000Z</time>
      </trkpt>
      <trkpt lat="48.83183" lon="1.44703">
        <ele>116.19999694824</ele>
        <time>2018-04-28T12:33:35.000Z</time>
      </trkpt>
      <trkpt lat="48.83181" lon="1.44703">
        <ele>116.40000152588</ele>
        <time>2018-04-28T12:33:37.000Z</time>
      </trkpt>
      <trkpt lat="48.83178" lon="1.44704">
        <ele>116.40000152588</ele>
        <time>2018-04-28T12:33:39.000Z</time>
      </trkpt>
      <trkpt lat="48.83176" lon="1.44704">
        <ele>116.59999847412</ele>
        <time>2018-04-28T12:33:41.000Z</time>
      </trkpt>
      <trkpt lat="48.83174" lon="1.44705">
        <ele>116.59999847412</ele>
        <time>2018-04-28T12:33:42.000Z</time>
      </trkpt>
      <trkpt lat="48.83166" lon="1.44706">
        <ele>117.19999694824</ele>
        <time>2018-04-28T12:33:48.000Z</time>
      </trkpt>
      <trkpt lat="48.83156" lon="1.44707">
        <ele>118</ele>
        <time>2018-04-28T12:33:54.000Z</time>
      </trkpt>
      <trkpt lat="48.83148" lon="1.44709">
        <ele>119</ele>
        <time>2018-04-28T12:34:00.000Z</time>
      </trkpt>
      <trkpt lat="48.83145" lon="1.44711">
        <ele>119.59999847412</ele>
        <time>2018-04-28T12:34:02.000Z</time>
      </trkpt>
      <trkpt lat="48.83139" lon="1.44715">
        <ele>120.59999847412</ele>
        <time>2018-04-28T12:34:06.000Z</time>
      </trkpt>
      <trkpt lat="48.83138" lon="1.44716">
        <ele>121</ele>
        <time>2018-04-28T12:34:07.000Z</time>
      </trkpt>
      <trkpt lat="48.83133" lon="1.44719">
        <ele>121.59999847412</ele>
        <time>2018-04-28T12:34:11.000Z</time>
      </trkpt>
      <trkpt lat="48.83131" lon="1.44719">
        <ele>122</ele>
        <time>2018-04-28T12:34:12.000Z</time>
      </trkpt>
      <trkpt lat="48.8313" lon="1.44718">
        <ele>122</ele>
        <time>2018-04-28T12:34:13.000Z</time>
      </trkpt>
      <trkpt lat="48.83125" lon="1.44721">
        <ele>122.59999847412</ele>
        <time>2018-04-28T12:34:16.000Z</time>
      </trkpt>
      <trkpt lat="48.83124" lon="1.44722">
        <ele>123</ele>
        <time>2018-04-28T12:34:17.000Z</time>
      </trkpt>
      <trkpt lat="48.83121" lon="1.44722">
        <ele>123.19999694824</ele>
        <time>2018-04-28T12:34:19.000Z</time>
      </trkpt>
      <trkpt lat="48.83118" lon="1.44725">
        <ele>124</ele>
        <time>2018-04-28T12:34:22.000Z</time>
      </trkpt>
      <trkpt lat="48.83107" lon="1.44731">
        <ele>125.80000305176</ele>
        <time>2018-04-28T12:34:30.000Z</time>
      </trkpt>
      <trkpt lat="48.83102" lon="1.44734">
        <ele>126.19999694824</ele>
        <time>2018-04-28T12:34:34.000Z</time>
      </trkpt>
      <trkpt lat="48.831" lon="1.44734">
        <ele>126.19999694824</ele>
        <time>2018-04-28T12:34:35.000Z</time>
      </trkpt>
      <trkpt lat="48.83099" lon="1.44734">
        <ele>126.40000152588</ele>
        <time>2018-04-28T12:34:36.000Z</time>
      </trkpt>
      <trkpt lat="48.83092" lon="1.4474">
        <ele>126.80000305176</ele>
        <time>2018-04-28T12:34:42.000Z</time>
      </trkpt>
      <trkpt lat="48.83086" lon="1.44743">
        <ele>127.19999694824</ele>
        <time>2018-04-28T12:34:46.000Z</time>
      </trkpt>
      <trkpt lat="48.83079" lon="1.44746">
        <ele>127.59999847412</ele>
        <time>2018-04-28T12:34:51.000Z</time>
      </trkpt>
      <trkpt lat="48.83069" lon="1.44752">
        <ele>128.19999694824</ele>
        <time>2018-04-28T12:34:57.000Z</time>
      </trkpt>
      <trkpt lat="48.83065" lon="1.44755">
        <ele>128.60000610352</ele>
        <time>2018-04-28T12:35:00.000Z</time>
      </trkpt>
      <trkpt lat="48.83061" lon="1.44758">
        <ele>128.80000305176</ele>
        <time>2018-04-28T12:35:03.000Z</time>
      </trkpt>
      <trkpt lat="48.8306" lon="1.44759">
        <ele>129</ele>
        <time>2018-04-28T12:35:04.000Z</time>
      </trkpt>
      <trkpt lat="48.83055" lon="1.44762">
        <ele>129.19999694824</ele>
        <time>2018-04-28T12:35:07.000Z</time>
      </trkpt>
      <trkpt lat="48.83053" lon="1.44765">
        <ele>129.39999389648</ele>
        <time>2018-04-28T12:35:09.000Z</time>
      </trkpt>
      <trkpt lat="48.8305" lon="1.44766">
        <ele>129.60000610352</ele>
        <time>2018-04-28T12:35:11.000Z</time>
      </trkpt>
      <trkpt lat="48.83045" lon="1.44769">
        <ele>129.80000305176</ele>
        <time>2018-04-28T12:35:14.000Z</time>
      </trkpt>
      <trkpt lat="48.83043" lon="1.4477">
        <ele>129.80000305176</ele>
        <time>2018-04-28T12:35:16.000Z</time>
      </trkpt>
      <trkpt lat="48.83038" lon="1.44774">
        <ele>130.19999694824</ele>
        <time>2018-04-28T12:35:19.000Z</time>
      </trkpt>
      <trkpt lat="48.83029" lon="1.44777">
        <ele>130.39999389648</ele>
        <time>2018-04-28T12:35:24.000Z</time>
      </trkpt>
      <trkpt lat="48.83024" lon="1.4478">
        <ele>130.60000610352</ele>
        <time>2018-04-28T12:35:28.000Z</time>
      </trkpt>
      <trkpt lat="48.83017" lon="1.44785">
        <ele>131.19999694824</ele>
        <time>2018-04-28T12:35:33.000Z</time>
      </trkpt>
      <trkpt lat="48.83017" lon="1.44785">
        <ele>131.19999694824</ele>
        <time>2018-04-28T12:35:34.000Z</time>
      </trkpt>
      <trkpt lat="48.83011" lon="1.44789">
        <ele>131.60000610352</ele>
        <time>2018-04-28T12:35:37.000Z</time>
      </trkpt>
      <trkpt lat="48.83006" lon="1.44792">
        <ele>132</ele>
        <time>2018-04-28T12:35:41.000Z</time>
      </trkpt>
      <trkpt lat="48.83" lon="1.44797">
        <ele>132.39999389648</ele>
        <time>2018-04-28T12:35:46.000Z</time>
      </trkpt>
      <trkpt lat="48.82999" lon="1.44797">
        <ele>132.39999389648</ele>
        <time>2018-04-28T12:35:47.000Z</time>
      </trkpt>
      <trkpt lat="48.82998" lon="1.44798">
        <ele>132.39999389648</ele>
        <time>2018-04-28T12:35:48.000Z</time>
      </trkpt>
      <trkpt lat="48.8299" lon="1.44801">
        <ele>132.80000305176</ele>
        <time>2018-04-28T12:35:53.000Z</time>
      </trkpt>
      <trkpt lat="48.82984" lon="1.448">
        <ele>133</ele>
        <time>2018-04-28T12:35:59.000Z</time>
      </trkpt>
      <trkpt lat="48.82972" lon="1.44798">
        <ele>133.39999389648</ele>
        <time>2018-04-28T12:38:36.000Z</time>
      </trkpt>
      <trkpt lat="48.82968" lon="1.44805">
        <ele>133.60000610352</ele>
        <time>2018-04-28T12:40:58.000Z</time>
      </trkpt>
      <trkpt lat="48.82969" lon="1.44808">
        <ele>133.80000305176</ele>
        <time>2018-04-28T12:41:00.000Z</time>
      </trkpt>
      <trkpt lat="48.82969" lon="1.44814">
        <ele>133.80000305176</ele>
        <time>2018-04-28T12:41:03.000Z</time>
      </trkpt>
      <trkpt lat="48.82967" lon="1.44816">
        <ele>134</ele>
        <time>2018-04-28T12:41:05.000Z</time>
      </trkpt>
      <trkpt lat="48.82961" lon="1.44824">
        <ele>134.19999694824</ele>
        <time>2018-04-28T12:41:12.000Z</time>
      </trkpt>
      <trkpt lat="48.82957" lon="1.44828">
        <ele>134.39999389648</ele>
        <time>2018-04-28T12:41:17.000Z</time>
      </trkpt>
      <trkpt lat="48.82955" lon="1.44831">
        <ele>134.60000610352</ele>
        <time>2018-04-28T12:41:18.000Z</time>
      </trkpt>
      <trkpt lat="48.82953" lon="1.44832">
        <ele>134.60000610352</ele>
        <time>2018-04-28T12:41:19.000Z</time>
      </trkpt>
      <trkpt lat="48.82949" lon="1.44836">
        <ele>134.60000610352</ele>
        <time>2018-04-28T12:41:22.000Z</time>
      </trkpt>
      <trkpt lat="48.82947" lon="1.44837">
        <ele>134.60000610352</ele>
        <time>2018-04-28T12:41:24.000Z</time>
      </trkpt>
      <trkpt lat="48.82942" lon="1.44845">
        <ele>134.60000610352</ele>
        <time>2018-04-28T12:41:40.000Z</time>
      </trkpt>
      <trkpt lat="48.82941" lon="1.4485">
        <ele>134.60000610352</ele>
        <time>2018-04-28T12:41:43.000Z</time>
      </trkpt>
      <trkpt lat="48.8294" lon="1.44853">
        <ele>134.60000610352</ele>
        <time>2018-04-28T12:41:45.000Z</time>
      </trkpt>
      <trkpt lat="48.82939" lon="1.44854">
        <ele>134.60000610352</ele>
        <time>2018-04-28T12:41:46.000Z</time>
      </trkpt>
      <trkpt lat="48.82936" lon="1.44857">
        <ele>134.60000610352</ele>
        <time>2018-04-28T12:41:48.000Z</time>
      </trkpt>
      <trkpt lat="48.82934" lon="1.44861">
        <ele>134.60000610352</ele>
        <time>2018-04-28T12:41:50.000Z</time>
      </trkpt>
      <trkpt lat="48.82928" lon="1.44871">
        <ele>134.60000610352</ele>
        <time>2018-04-28T12:41:55.000Z</time>
      </trkpt>
      <trkpt lat="48.82926" lon="1.44874">
        <ele>134.60000610352</ele>
        <time>2018-04-28T12:41:57.000Z</time>
      </trkpt>
      <trkpt lat="48.82921" lon="1.44881">
        <ele>134.60000610352</ele>
        <time>2018-04-28T12:42:01.000Z</time>
      </trkpt>
      <trkpt lat="48.8292" lon="1.44882">
        <ele>134.60000610352</ele>
        <time>2018-04-28T12:42:02.000Z</time>
      </trkpt>
      <trkpt lat="48.82913" lon="1.44894">
        <ele>134.60000610352</ele>
        <time>2018-04-28T12:42:09.000Z</time>
      </trkpt>
      <trkpt lat="48.82905" lon="1.44905">
        <ele>134.80000305176</ele>
        <time>2018-04-28T12:42:16.000Z</time>
      </trkpt>
      <trkpt lat="48.82899" lon="1.44914">
        <ele>134.80000305176</ele>
        <time>2018-04-28T12:42:22.000Z</time>
      </trkpt>
      <trkpt lat="48.82897" lon="1.44915">
        <ele>134.80000305176</ele>
        <time>2018-04-28T12:42:23.000Z</time>
      </trkpt>
      <trkpt lat="48.82894" lon="1.44919">
        <ele>134.80000305176</ele>
        <time>2018-04-28T12:42:26.000Z</time>
      </trkpt>
      <trkpt lat="48.82894" lon="1.44919">
        <ele>134.80000305176</ele>
        <time>2018-04-28T12:42:27.000Z</time>
      </trkpt>
      <trkpt lat="48.82888" lon="1.44925">
        <ele>135</ele>
        <time>2018-04-28T12:42:31.000Z</time>
      </trkpt>
      <trkpt lat="48.82887" lon="1.44927">
        <ele>135</ele>
        <time>2018-04-28T12:42:32.000Z</time>
      </trkpt>
      <trkpt lat="48.82885" lon="1.4493">
        <ele>135</ele>
        <time>2018-04-28T12:42:34.000Z</time>
      </trkpt>
      <trkpt lat="48.8288" lon="1.44936">
        <ele>135.19999694824</ele>
        <time>2018-04-28T12:42:38.000Z</time>
      </trkpt>
      <trkpt lat="48.82873" lon="1.44947">
        <ele>135.80000305176</ele>
        <time>2018-04-28T12:42:45.000Z</time>
      </trkpt>
      <trkpt lat="48.82866" lon="1.44954">
        <ele>136.19999694824</ele>
        <time>2018-04-28T12:42:50.000Z</time>
      </trkpt>
      <trkpt lat="48.82865" lon="1.44956">
        <ele>136.19999694824</ele>
        <time>2018-04-28T12:42:52.000Z</time>
      </trkpt>
      <trkpt lat="48.82858" lon="1.44964">
        <ele>136.60000610352</ele>
        <time>2018-04-28T12:42:57.000Z</time>
      </trkpt>
      <trkpt lat="48.82857" lon="1.44967">
        <ele>136.80000305176</ele>
        <time>2018-04-28T12:42:58.000Z</time>
      </trkpt>
      <trkpt lat="48.82852" lon="1.44973">
        <ele>137</ele>
        <time>2018-04-28T12:43:02.000Z</time>
      </trkpt>
      <trkpt lat="48.82841" lon="1.44982">
        <ele>137.39999389648</ele>
        <time>2018-04-28T12:43:09.000Z</time>
      </trkpt>
      <trkpt lat="48.82836" lon="1.44985">
        <ele>137.39999389648</ele>
        <time>2018-04-28T12:43:11.000Z</time>
      </trkpt>
      <trkpt lat="48.82833" lon="1.44987">
        <ele>137.60000610352</ele>
        <time>2018-04-28T12:43:13.000Z</time>
      </trkpt>
      <trkpt lat="48.82832" lon="1.44989">
        <ele>137.60000610352</ele>
        <time>2018-04-28T12:43:14.000Z</time>
      </trkpt>
      <trkpt lat="48.82827" lon="1.44992">
        <ele>137.60000610352</ele>
        <time>2018-04-28T12:43:18.000Z</time>
      </trkpt>
      <trkpt lat="48.82823" lon="1.44993">
        <ele>137.80000305176</ele>
        <time>2018-04-28T12:43:21.000Z</time>
      </trkpt>
      <trkpt lat="48.82813" lon="1.44998">
        <ele>138</ele>
        <time>2018-04-28T12:43:26.000Z</time>
      </trkpt>
      <trkpt lat="48.82811" lon="1.44998">
        <ele>138</ele>
        <time>2018-04-28T12:43:27.000Z</time>
      </trkpt>
      <trkpt lat="48.82803" lon="1.45001">
        <ele>138.19999694824</ele>
        <time>2018-04-28T12:43:32.000Z</time>
      </trkpt>
      <trkpt lat="48.82795" lon="1.45002">
        <ele>138.39999389648</ele>
        <time>2018-04-28T12:43:36.000Z</time>
      </trkpt>
      <trkpt lat="48.82782" lon="1.45008">
        <ele>138.80000305176</ele>
        <time>2018-04-28T12:43:43.000Z</time>
      </trkpt>
      <trkpt lat="48.82771" lon="1.45013">
        <ele>139</ele>
        <time>2018-04-28T12:43:50.000Z</time>
      </trkpt>
      <trkpt lat="48.82761" lon="1.45016">
        <ele>139.19999694824</ele>
        <time>2018-04-28T12:43:57.000Z</time>
      </trkpt>
      <trkpt lat="48.82751" lon="1.45019">
        <ele>139.19999694824</ele>
        <time>2018-04-28T12:44:04.000Z</time>
      </trkpt>
      <trkpt lat="48.82746" lon="1.45022">
        <ele>139.39999389648</ele>
        <time>2018-04-28T12:44:08.000Z</time>
      </trkpt>
      <trkpt lat="48.82744" lon="1.45023">
        <ele>139.39999389648</ele>
        <time>2018-04-28T12:44:10.000Z</time>
      </trkpt>
      <trkpt lat="48.82742" lon="1.45024">
        <ele>139.39999389648</ele>
        <time>2018-04-28T12:44:11.000Z</time>
      </trkpt>
      <trkpt lat="48.82738" lon="1.45024">
        <ele>139.39999389648</ele>
        <time>2018-04-28T12:44:14.000Z</time>
      </trkpt>
      <trkpt lat="48.82735" lon="1.45026">
        <ele>139.39999389648</ele>
        <time>2018-04-28T12:44:16.000Z</time>
      </trkpt>
      <trkpt lat="48.82732" lon="1.45027">
        <ele>139.39999389648</ele>
        <time>2018-04-28T12:44:18.000Z</time>
      </trkpt>
      <trkpt lat="48.82728" lon="1.4503">
        <ele>139.39999389648</ele>
        <time>2018-04-28T12:44:21.000Z</time>
      </trkpt>
      <trkpt lat="48.8272" lon="1.45036">
        <ele>139.39999389648</ele>
        <time>2018-04-28T12:44:26.000Z</time>
      </trkpt>
      <trkpt lat="48.82716" lon="1.45039">
        <ele>139.39999389648</ele>
        <time>2018-04-28T12:44:29.000Z</time>
      </trkpt>
      <trkpt lat="48.82714" lon="1.45042">
        <ele>139.19999694824</ele>
        <time>2018-04-28T12:44:32.000Z</time>
      </trkpt>
      <trkpt lat="48.82712" lon="1.45043">
        <ele>139.19999694824</ele>
        <time>2018-04-28T12:44:33.000Z</time>
      </trkpt>
      <trkpt lat="48.82707" lon="1.45048">
        <ele>139.19999694824</ele>
        <time>2018-04-28T12:44:37.000Z</time>
      </trkpt>
      <trkpt lat="48.82705" lon="1.45049">
        <ele>139.19999694824</ele>
        <time>2018-04-28T12:44:38.000Z</time>
      </trkpt>
      <trkpt lat="48.827" lon="1.45053">
        <ele>139.19999694824</ele>
        <time>2018-04-28T12:44:41.000Z</time>
      </trkpt>
      <trkpt lat="48.82692" lon="1.45061">
        <ele>139</ele>
        <time>2018-04-28T12:44:47.000Z</time>
      </trkpt>
      <trkpt lat="48.82689" lon="1.45062">
        <ele>139</ele>
        <time>2018-04-28T12:44:48.000Z</time>
      </trkpt>
      <trkpt lat="48.82686" lon="1.45064">
        <ele>139</ele>
        <time>2018-04-28T12:44:51.000Z</time>
      </trkpt>
      <trkpt lat="48.82684" lon="1.45065">
        <ele>139</ele>
        <time>2018-04-28T12:44:52.000Z</time>
      </trkpt>
      <trkpt lat="48.82678" lon="1.45068">
        <ele>139</ele>
        <time>2018-04-28T12:44:55.000Z</time>
      </trkpt>
      <trkpt lat="48.82675" lon="1.4507">
        <ele>139</ele>
        <time>2018-04-28T12:44:57.000Z</time>
      </trkpt>
      <trkpt lat="48.82667" lon="1.45074">
        <ele>139</ele>
        <time>2018-04-28T12:45:01.000Z</time>
      </trkpt>
      <trkpt lat="48.82658" lon="1.45084">
        <ele>139.19999694824</ele>
        <time>2018-04-28T12:45:08.000Z</time>
      </trkpt>
      <trkpt lat="48.82648" lon="1.45095">
        <ele>139.39999389648</ele>
        <time>2018-04-28T12:45:15.000Z</time>
      </trkpt>
      <trkpt lat="48.82647" lon="1.45097">
        <ele>139.39999389648</ele>
        <time>2018-04-28T12:45:16.000Z</time>
      </trkpt>
      <trkpt lat="48.82643" lon="1.45102">
        <ele>139.39999389648</ele>
        <time>2018-04-28T12:45:19.000Z</time>
      </trkpt>
      <trkpt lat="48.82641" lon="1.45103">
        <ele>139.39999389648</ele>
        <time>2018-04-28T12:45:20.000Z</time>
      </trkpt>
      <trkpt lat="48.82636" lon="1.45109">
        <ele>139.60000610352</ele>
        <time>2018-04-28T12:45:24.000Z</time>
      </trkpt>
      <trkpt lat="48.82632" lon="1.45113">
        <ele>139.60000610352</ele>
        <time>2018-04-28T12:45:27.000Z</time>
      </trkpt>
      <trkpt lat="48.82626" lon="1.4512">
        <ele>139.60000610352</ele>
        <time>2018-04-28T12:45:32.000Z</time>
      </trkpt>
      <trkpt lat="48.82616" lon="1.45132">
        <ele>139.80000305176</ele>
        <time>2018-04-28T12:45:39.000Z</time>
      </trkpt>
      <trkpt lat="48.82605" lon="1.45145">
        <ele>140</ele>
        <time>2018-04-28T12:45:46.000Z</time>
      </trkpt>
      <trkpt lat="48.82597" lon="1.45158">
        <ele>139.80000305176</ele>
        <time>2018-04-28T12:45:53.000Z</time>
      </trkpt>
      <trkpt lat="48.82591" lon="1.45165">
        <ele>139.60000610352</ele>
        <time>2018-04-28T12:45:57.000Z</time>
      </trkpt>
      <trkpt lat="48.82584" lon="1.45175">
        <ele>139.39999389648</ele>
        <time>2018-04-28T12:46:03.000Z</time>
      </trkpt>
      <trkpt lat="48.8258" lon="1.45185">
        <ele>139.39999389648</ele>
        <time>2018-04-28T12:46:07.000Z</time>
      </trkpt>
      <trkpt lat="48.8258" lon="1.45188">
        <ele>139.39999389648</ele>
        <time>2018-04-28T12:46:08.000Z</time>
      </trkpt>
      <trkpt lat="48.82575" lon="1.45201">
        <ele>139.19999694824</ele>
        <time>2018-04-28T12:46:14.000Z</time>
      </trkpt>
      <trkpt lat="48.82574" lon="1.45202">
        <ele>139.19999694824</ele>
        <time>2018-04-28T12:46:15.000Z</time>
      </trkpt>
      <trkpt lat="48.82567" lon="1.45216">
        <ele>138.80000305176</ele>
        <time>2018-04-28T12:46:23.000Z</time>
      </trkpt>
      <trkpt lat="48.82564" lon="1.45223">
        <ele>138.60000610352</ele>
        <time>2018-04-28T12:46:27.000Z</time>
      </trkpt>
      <trkpt lat="48.82562" lon="1.45225">
        <ele>138.60000610352</ele>
        <time>2018-04-28T12:46:28.000Z</time>
      </trkpt>
      <trkpt lat="48.8256" lon="1.45231">
        <ele>138.39999389648</ele>
        <time>2018-04-28T12:46:32.000Z</time>
      </trkpt>
      <trkpt lat="48.82559" lon="1.45233">
        <ele>138.39999389648</ele>
        <time>2018-04-28T12:46:33.000Z</time>
      </trkpt>
      <trkpt lat="48.82555" lon="1.45241">
        <ele>138</ele>
        <time>2018-04-28T12:46:37.000Z</time>
      </trkpt>
      <trkpt lat="48.82553" lon="1.45249">
        <ele>138</ele>
        <time>2018-04-28T12:46:40.000Z</time>
      </trkpt>
      <trkpt lat="48.82552" lon="1.45254">
        <ele>137.80000305176</ele>
        <time>2018-04-28T12:46:43.000Z</time>
      </trkpt>
      <trkpt lat="48.82551" lon="1.45255">
        <ele>137.80000305176</ele>
        <time>2018-04-28T12:46:44.000Z</time>
      </trkpt>
      <trkpt lat="48.82549" lon="1.45259">
        <ele>137.60000610352</ele>
        <time>2018-04-28T12:46:46.000Z</time>
      </trkpt>
      <trkpt lat="48.82548" lon="1.45265">
        <ele>137.80000305176</ele>
        <time>2018-04-28T12:46:49.000Z</time>
      </trkpt>
      <trkpt lat="48.82547" lon="1.45269">
        <ele>137.80000305176</ele>
        <time>2018-04-28T12:46:51.000Z</time>
      </trkpt>
      <trkpt lat="48.82545" lon="1.45272">
        <ele>137.80000305176</ele>
        <time>2018-04-28T12:46:52.000Z</time>
      </trkpt>
      <trkpt lat="48.82541" lon="1.4528">
        <ele>137.80000305176</ele>
        <time>2018-04-28T12:46:55.000Z</time>
      </trkpt>
      <trkpt lat="48.82533" lon="1.45295">
        <ele>137.80000305176</ele>
        <time>2018-04-28T12:47:02.000Z</time>
      </trkpt>
      <trkpt lat="48.8253" lon="1.453">
        <ele>138</ele>
        <time>2018-04-28T12:47:05.000Z</time>
      </trkpt>
      <trkpt lat="48.82524" lon="1.45308">
        <ele>138</ele>
        <time>2018-04-28T12:47:10.000Z</time>
      </trkpt>
      <trkpt lat="48.82521" lon="1.4531">
        <ele>138</ele>
        <time>2018-04-28T12:47:12.000Z</time>
      </trkpt>
      <trkpt lat="48.82512" lon="1.4532">
        <ele>137.80000305176</ele>
        <time>2018-04-28T12:47:19.000Z</time>
      </trkpt>
      <trkpt lat="48.82501" lon="1.45328">
        <ele>137.60000610352</ele>
        <time>2018-04-28T12:47:26.000Z</time>
      </trkpt>
      <trkpt lat="48.825" lon="1.45329">
        <ele>137.60000610352</ele>
        <time>2018-04-28T12:47:28.000Z</time>
      </trkpt>
      <trkpt lat="48.82496" lon="1.45332">
        <ele>137.60000610352</ele>
        <time>2018-04-28T12:47:31.000Z</time>
      </trkpt>
      <trkpt lat="48.82491" lon="1.45336">
        <ele>137.39999389648</ele>
        <time>2018-04-28T12:47:36.000Z</time>
      </trkpt>
      <trkpt lat="48.82487" lon="1.45338">
        <ele>137.39999389648</ele>
        <time>2018-04-28T12:47:39.000Z</time>
      </trkpt>
      <trkpt lat="48.82478" lon="1.45343">
        <ele>137.19999694824</ele>
        <time>2018-04-28T12:47:45.000Z</time>
      </trkpt>
      <trkpt lat="48.82474" lon="1.45348">
        <ele>137.19999694824</ele>
        <time>2018-04-28T12:47:48.000Z</time>
      </trkpt>
      <trkpt lat="48.82469" lon="1.45351">
        <ele>137</ele>
        <time>2018-04-28T12:47:52.000Z</time>
      </trkpt>
      <trkpt lat="48.82459" lon="1.45359">
        <ele>136.80000305176</ele>
        <time>2018-04-28T12:47:58.000Z</time>
      </trkpt>
      <trkpt lat="48.82456" lon="1.45361">
        <ele>136.60000610352</ele>
        <time>2018-04-28T12:48:00.000Z</time>
      </trkpt>
      <trkpt lat="48.82453" lon="1.45364">
        <ele>136.60000610352</ele>
        <time>2018-04-28T12:48:02.000Z</time>
      </trkpt>
      <trkpt lat="48.82446" lon="1.45373">
        <ele>136.19999694824</ele>
        <time>2018-04-28T12:48:07.000Z</time>
      </trkpt>
      <trkpt lat="48.82435" lon="1.45388">
        <ele>135.80000305176</ele>
        <time>2018-04-28T12:48:16.000Z</time>
      </trkpt>
      <trkpt lat="48.82427" lon="1.45402">
        <ele>135.19999694824</ele>
        <time>2018-04-28T12:48:23.000Z</time>
      </trkpt>
      <trkpt lat="48.82425" lon="1.45405">
        <ele>135.19999694824</ele>
        <time>2018-04-28T12:48:24.000Z</time>
      </trkpt>
      <trkpt lat="48.82421" lon="1.4541">
        <ele>134.80000305176</ele>
        <time>2018-04-28T12:48:27.000Z</time>
      </trkpt>
      <trkpt lat="48.8242" lon="1.45414">
        <ele>134.60000610352</ele>
        <time>2018-04-28T12:48:28.000Z</time>
      </trkpt>
      <trkpt lat="48.82418" lon="1.45418">
        <ele>134.60000610352</ele>
        <time>2018-04-28T12:48:30.000Z</time>
      </trkpt>
      <trkpt lat="48.82417" lon="1.45419">
        <ele>134.39999389648</ele>
        <time>2018-04-28T12:48:31.000Z</time>
      </trkpt>
      <trkpt lat="48.82412" lon="1.45429">
        <ele>134</ele>
        <time>2018-04-28T12:48:36.000Z</time>
      </trkpt>
      <trkpt lat="48.82412" lon="1.4543">
        <ele>134</ele>
        <time>2018-04-28T12:48:37.000Z</time>
      </trkpt>
      <trkpt lat="48.8241" lon="1.45432">
        <ele>134</ele>
        <time>2018-04-28T12:48:38.000Z</time>
      </trkpt>
      <trkpt lat="48.82408" lon="1.45437">
        <ele>133.60000610352</ele>
        <time>2018-04-28T12:48:41.000Z</time>
      </trkpt>
      <trkpt lat="48.82407" lon="1.45439">
        <ele>133.60000610352</ele>
        <time>2018-04-28T12:48:42.000Z</time>
      </trkpt>
      <trkpt lat="48.82405" lon="1.45444">
        <ele>133.39999389648</ele>
        <time>2018-04-28T12:48:45.000Z</time>
      </trkpt>
      <trkpt lat="48.82404" lon="1.45447">
        <ele>133.39999389648</ele>
        <time>2018-04-28T12:48:47.000Z</time>
      </trkpt>
      <trkpt lat="48.824" lon="1.45455">
        <ele>133.19999694824</ele>
        <time>2018-04-28T12:48:51.000Z</time>
      </trkpt>
      <trkpt lat="48.82398" lon="1.45459">
        <ele>133.19999694824</ele>
        <time>2018-04-28T12:48:53.000Z</time>
      </trkpt>
      <trkpt lat="48.82396" lon="1.45463">
        <ele>133.19999694824</ele>
        <time>2018-04-28T12:48:56.000Z</time>
      </trkpt>
      <trkpt lat="48.82394" lon="1.45466">
        <ele>133.19999694824</ele>
        <time>2018-04-28T12:48:58.000Z</time>
      </trkpt>
      <trkpt lat="48.82393" lon="1.45468">
        <ele>133.19999694824</ele>
        <time>2018-04-28T12:48:59.000Z</time>
      </trkpt>
      <trkpt lat="48.82391" lon="1.45473">
        <ele>133.19999694824</ele>
        <time>2018-04-28T12:49:02.000Z</time>
      </trkpt>
      <trkpt lat="48.82389" lon="1.45477">
        <ele>133.19999694824</ele>
        <time>2018-04-28T12:49:04.000Z</time>
      </trkpt>
      <trkpt lat="48.82387" lon="1.45478">
        <ele>133</ele>
        <time>2018-04-28T12:49:05.000Z</time>
      </trkpt>
      <trkpt lat="48.82382" lon="1.45491">
        <ele>133</ele>
        <time>2018-04-28T12:49:11.000Z</time>
      </trkpt>
      <trkpt lat="48.82381" lon="1.45492">
        <ele>133</ele>
        <time>2018-04-28T12:49:12.000Z</time>
      </trkpt>
      <trkpt lat="48.82373" lon="1.45507">
        <ele>132.60000610352</ele>
        <time>2018-04-28T12:49:18.000Z</time>
      </trkpt>
      <trkpt lat="48.82366" lon="1.45517">
        <ele>132.39999389648</ele>
        <time>2018-04-28T12:49:24.000Z</time>
      </trkpt>
      <trkpt lat="48.82365" lon="1.4552">
        <ele>132.39999389648</ele>
        <time>2018-04-28T12:49:25.000Z</time>
      </trkpt>
      <trkpt lat="48.82361" lon="1.45528">
        <ele>132.19999694824</ele>
        <time>2018-04-28T12:49:29.000Z</time>
      </trkpt>
      <trkpt lat="48.82355" lon="1.45539">
        <ele>132</ele>
        <time>2018-04-28T12:49:35.000Z</time>
      </trkpt>
      <trkpt lat="48.8235" lon="1.45551">
        <ele>132</ele>
        <time>2018-04-28T12:49:41.000Z</time>
      </trkpt>
      <trkpt lat="48.82348" lon="1.45557">
        <ele>132</ele>
        <time>2018-04-28T12:49:44.000Z</time>
      </trkpt>
      <trkpt lat="48.82346" lon="1.45563">
        <ele>131.80000305176</ele>
        <time>2018-04-28T12:49:47.000Z</time>
      </trkpt>
      <trkpt lat="48.82341" lon="1.45575">
        <ele>131.80000305176</ele>
        <time>2018-04-28T12:49:53.000Z</time>
      </trkpt>
      <trkpt lat="48.82334" lon="1.45592">
        <ele>131.39999389648</ele>
        <time>2018-04-28T12:50:00.000Z</time>
      </trkpt>
      <trkpt lat="48.82327" lon="1.45613">
        <ele>131.19999694824</ele>
        <time>2018-04-28T12:50:08.000Z</time>
      </trkpt>
      <trkpt lat="48.82325" lon="1.45622">
        <ele>131</ele>
        <time>2018-04-28T12:50:15.000Z</time>
      </trkpt>
      <trkpt lat="48.82322" lon="1.45636">
        <ele>131.19999694824</ele>
        <time>2018-04-28T12:50:59.000Z</time>
      </trkpt>
      <trkpt lat="48.82324" lon="1.45641">
        <ele>131.19999694824</ele>
        <time>2018-04-28T12:51:02.000Z</time>
      </trkpt>
      <trkpt lat="48.82327" lon="1.45643">
        <ele>131.19999694824</ele>
        <time>2018-04-28T12:51:05.000Z</time>
      </trkpt>
      <trkpt lat="48.82329" lon="1.45645">
        <ele>131.19999694824</ele>
        <time>2018-04-28T12:51:12.000Z</time>
      </trkpt>
      <trkpt lat="48.82326" lon="1.45646">
        <ele>131.39999389648</ele>
        <time>2018-04-28T12:51:29.000Z</time>
      </trkpt>
      <trkpt lat="48.82322" lon="1.45645">
        <ele>131.39999389648</ele>
        <time>2018-04-28T12:51:47.000Z</time>
      </trkpt>
      <trkpt lat="48.82318" lon="1.45645">
        <ele>131.39999389648</ele>
        <time>2018-04-28T12:51:51.000Z</time>
      </trkpt>
      <trkpt lat="48.82311" lon="1.45649">
        <ele>131.60000610352</ele>
        <time>2018-04-28T12:51:56.000Z</time>
      </trkpt>
      <trkpt lat="48.8231" lon="1.4565">
        <ele>131.60000610352</ele>
        <time>2018-04-28T12:51:57.000Z</time>
      </trkpt>
      <trkpt lat="48.82309" lon="1.45652">
        <ele>131.60000610352</ele>
        <time>2018-04-28T12:51:58.000Z</time>
      </trkpt>
      <trkpt lat="48.82304" lon="1.45656">
        <ele>131.60000610352</ele>
        <time>2018-04-28T12:52:02.000Z</time>
      </trkpt>
      <trkpt lat="48.82303" lon="1.45659">
        <ele>131.60000610352</ele>
        <time>2018-04-28T12:52:05.000Z</time>
      </trkpt>
      <trkpt lat="48.82303" lon="1.45659">
        <ele>131.60000610352</ele>
        <time>2018-04-28T12:52:07.000Z</time>
      </trkpt>
      <trkpt lat="48.82298" lon="1.45671">
        <ele>131.60000610352</ele>
        <time>2018-04-28T12:53:16.000Z</time>
      </trkpt>
      <trkpt lat="48.82294" lon="1.45676">
        <ele>131.60000610352</ele>
        <time>2018-04-28T12:53:35.000Z</time>
      </trkpt>
      <trkpt lat="48.82288" lon="1.45681">
        <ele>131.60000610352</ele>
        <time>2018-04-28T12:53:40.000Z</time>
      </trkpt>
      <trkpt lat="48.8228" lon="1.45686">
        <ele>131.60000610352</ele>
        <time>2018-04-28T12:53:47.000Z</time>
      </trkpt>
      <trkpt lat="48.8227" lon="1.45689">
        <ele>131.60000610352</ele>
        <time>2018-04-28T12:53:55.000Z</time>
      </trkpt>
      <trkpt lat="48.82263" lon="1.45692">
        <ele>132.19999694824</ele>
        <time>2018-04-28T12:54:01.000Z</time>
      </trkpt>
      <trkpt lat="48.82259" lon="1.45695">
        <ele>132.39999389648</ele>
        <time>2018-04-28T12:54:05.000Z</time>
      </trkpt>
      <trkpt lat="48.82257" lon="1.45696">
        <ele>132.60000610352</ele>
        <time>2018-04-28T12:54:07.000Z</time>
      </trkpt>
      <trkpt lat="48.82254" lon="1.45697">
        <ele>132.80000305176</ele>
        <time>2018-04-28T12:54:09.000Z</time>
      </trkpt>
      <trkpt lat="48.82251" lon="1.45697">
        <ele>133</ele>
        <time>2018-04-28T12:54:12.000Z</time>
      </trkpt>
      <trkpt lat="48.82242" lon="1.45698">
        <ele>133.60000610352</ele>
        <time>2018-04-28T12:54:19.000Z</time>
      </trkpt>
      <trkpt lat="48.82235" lon="1.45697">
        <ele>134</ele>
        <time>2018-04-28T12:54:25.000Z</time>
      </trkpt>
      <trkpt lat="48.82234" lon="1.45697">
        <ele>134</ele>
        <time>2018-04-28T12:54:26.000Z</time>
      </trkpt>
      <trkpt lat="48.82226" lon="1.45697">
        <ele>134.19999694824</ele>
        <time>2018-04-28T12:54:32.000Z</time>
      </trkpt>
      <trkpt lat="48.82217" lon="1.45697">
        <ele>134.39999389648</ele>
        <time>2018-04-28T12:54:38.000Z</time>
      </trkpt>
      <trkpt lat="48.82206" lon="1.45697">
        <ele>134.60000610352</ele>
        <time>2018-04-28T12:54:44.000Z</time>
      </trkpt>
      <trkpt lat="48.82196" lon="1.45697">
        <ele>135</ele>
        <time>2018-04-28T12:54:50.000Z</time>
      </trkpt>
      <trkpt lat="48.82186" lon="1.45697">
        <ele>135</ele>
        <time>2018-04-28T12:54:56.000Z</time>
      </trkpt>
      <trkpt lat="48.82183" lon="1.45697">
        <ele>135</ele>
        <time>2018-04-28T12:54:58.000Z</time>
      </trkpt>
      <trkpt lat="48.82176" lon="1.45697">
        <ele>134.80000305176</ele>
        <time>2018-04-28T12:55:02.000Z</time>
      </trkpt>
      <trkpt lat="48.82164" lon="1.45699">
        <ele>134.39999389648</ele>
        <time>2018-04-28T12:55:09.000Z</time>
      </trkpt>
      <trkpt lat="48.82156" lon="1.45702">
        <ele>134.19999694824</ele>
        <time>2018-04-28T12:55:14.000Z</time>
      </trkpt>
      <trkpt lat="48.82154" lon="1.45706">
        <ele>134</ele>
        <time>2018-04-28T12:55:16.000Z</time>
      </trkpt>
      <trkpt lat="48.8215" lon="1.45715">
        <ele>133.80000305176</ele>
        <time>2018-04-28T12:55:20.000Z</time>
      </trkpt>
      <trkpt lat="48.82147" lon="1.45732">
        <ele>133.60000610352</ele>
        <time>2018-04-28T12:55:27.000Z</time>
      </trkpt>
      <trkpt lat="48.82147" lon="1.45744">
        <ele>133.39999389648</ele>
        <time>2018-04-28T12:55:33.000Z</time>
      </trkpt>
      <trkpt lat="48.82146" lon="1.45756">
        <ele>133.19999694824</ele>
        <time>2018-04-28T12:55:38.000Z</time>
      </trkpt>
      <trkpt lat="48.82145" lon="1.45771">
        <ele>133</ele>
        <time>2018-04-28T12:55:44.000Z</time>
      </trkpt>
      <trkpt lat="48.82145" lon="1.4578">
        <ele>133</ele>
        <time>2018-04-28T12:55:48.000Z</time>
      </trkpt>
      <trkpt lat="48.82144" lon="1.45782">
        <ele>133</ele>
        <time>2018-04-28T12:55:49.000Z</time>
      </trkpt>
      <trkpt lat="48.82143" lon="1.45795">
        <ele>132.80000305176</ele>
        <time>2018-04-28T12:55:54.000Z</time>
      </trkpt>
      <trkpt lat="48.82143" lon="1.458">
        <ele>132.80000305176</ele>
        <time>2018-04-28T12:55:56.000Z</time>
      </trkpt>
      <trkpt lat="48.82141" lon="1.45821">
        <ele>132.60000610352</ele>
        <time>2018-04-28T12:56:04.000Z</time>
      </trkpt>
      <trkpt lat="48.82141" lon="1.45838">
        <ele>132.39999389648</ele>
        <time>2018-04-28T12:56:11.000Z</time>
      </trkpt>
      <trkpt lat="48.82141" lon="1.45855">
        <ele>132</ele>
        <time>2018-04-28T12:56:18.000Z</time>
      </trkpt>
      <trkpt lat="48.82139" lon="1.45866">
        <ele>131.80000305176</ele>
        <time>2018-04-28T12:56:24.000Z</time>
      </trkpt>
      <trkpt lat="48.82139" lon="1.45882">
        <ele>131.39999389648</ele>
        <time>2018-04-28T12:56:32.000Z</time>
      </trkpt>
      <trkpt lat="48.82138" lon="1.4589">
        <ele>131.19999694824</ele>
        <time>2018-04-28T12:56:37.000Z</time>
      </trkpt>
      <trkpt lat="48.82138" lon="1.4589">
        <ele>131.19999694824</ele>
        <time>2018-04-28T12:56:39.000Z</time>
      </trkpt>
      <trkpt lat="48.82138" lon="1.45902">
        <ele>131</ele>
        <time>2018-04-28T12:57:51.000Z</time>
      </trkpt>
      <trkpt lat="48.82137" lon="1.45904">
        <ele>131</ele>
        <time>2018-04-28T12:57:52.000Z</time>
      </trkpt>
      <trkpt lat="48.82133" lon="1.45914">
        <ele>131</ele>
        <time>2018-04-28T12:57:55.000Z</time>
      </trkpt>
      <trkpt lat="48.8213" lon="1.45919">
        <ele>131</ele>
        <time>2018-04-28T12:57:56.000Z</time>
      </trkpt>
      <trkpt lat="48.82127" lon="1.45927">
        <ele>131</ele>
        <time>2018-04-28T12:57:59.000Z</time>
      </trkpt>
      <trkpt lat="48.82128" lon="1.45928">
        <ele>131</ele>
        <time>2018-04-28T12:58:00.000Z</time>
      </trkpt>
      <trkpt lat="48.82129" lon="1.45929">
        <ele>131</ele>
        <time>2018-04-28T12:58:10.000Z</time>
      </trkpt>
      <trkpt lat="48.82128" lon="1.4593">
        <ele>131</ele>
        <time>2018-04-28T12:58:16.000Z</time>
      </trkpt>
      <trkpt lat="48.82129" lon="1.4593">
        <ele>131</ele>
        <time>2018-04-28T12:58:24.000Z</time>
      </trkpt>
      <trkpt lat="48.82129" lon="1.45929">
        <ele>131</ele>
        <time>2018-04-28T12:58:32.000Z</time>
      </trkpt>
      <trkpt lat="48.82129" lon="1.45928">
        <ele>131</ele>
        <time>2018-04-28T12:58:37.000Z</time>
      </trkpt>
      <trkpt lat="48.82124" lon="1.45926">
        <ele>131</ele>
        <time>2018-04-28T13:01:16.000Z</time>
      </trkpt>
      <trkpt lat="48.82119" lon="1.45915">
        <ele>131</ele>
        <time>2018-04-28T13:01:22.000Z</time>
      </trkpt>
      <trkpt lat="48.82118" lon="1.45914">
        <ele>131</ele>
        <time>2018-04-28T13:01:23.000Z</time>
      </trkpt>
      <trkpt lat="48.82114" lon="1.45907">
        <ele>131</ele>
        <time>2018-04-28T13:01:28.000Z</time>
      </trkpt>
      <trkpt lat="48.82112" lon="1.45904">
        <ele>131</ele>
        <time>2018-04-28T13:01:30.000Z</time>
      </trkpt>
      <trkpt lat="48.82106" lon="1.45897">
        <ele>131</ele>
        <time>2018-04-28T13:01:35.000Z</time>
      </trkpt>
      <trkpt lat="48.82105" lon="1.45895">
        <ele>131.19999694824</ele>
        <time>2018-04-28T13:01:36.000Z</time>
      </trkpt>
      <trkpt lat="48.82103" lon="1.4589">
        <ele>131.19999694824</ele>
        <time>2018-04-28T13:01:39.000Z</time>
      </trkpt>
      <trkpt lat="48.82095" lon="1.45881">
        <ele>131.39999389648</ele>
        <time>2018-04-28T13:01:46.000Z</time>
      </trkpt>
      <trkpt lat="48.82089" lon="1.45876">
        <ele>131.39999389648</ele>
        <time>2018-04-28T13:01:51.000Z</time>
      </trkpt>
      <trkpt lat="48.8208" lon="1.45876">
        <ele>131.39999389648</ele>
        <time>2018-04-28T13:01:57.000Z</time>
      </trkpt>
      <trkpt lat="48.82078" lon="1.45876">
        <ele>131.39999389648</ele>
        <time>2018-04-28T13:01:58.000Z</time>
      </trkpt>
      <trkpt lat="48.82073" lon="1.45879">
        <ele>131.39999389648</ele>
        <time>2018-04-28T13:02:01.000Z</time>
      </trkpt>
      <trkpt lat="48.82072" lon="1.4588">
        <ele>131.39999389648</ele>
        <time>2018-04-28T13:02:02.000Z</time>
      </trkpt>
      <trkpt lat="48.8207" lon="1.45883">
        <ele>131.39999389648</ele>
        <time>2018-04-28T13:02:04.000Z</time>
      </trkpt>
      <trkpt lat="48.82062" lon="1.45886">
        <ele>131.60000610352</ele>
        <time>2018-04-28T13:02:09.000Z</time>
      </trkpt>
      <trkpt lat="48.82056" lon="1.4589">
        <ele>131.60000610352</ele>
        <time>2018-04-28T13:02:14.000Z</time>
      </trkpt>
      <trkpt lat="48.82047" lon="1.45896">
        <ele>131.60000610352</ele>
        <time>2018-04-28T13:02:20.000Z</time>
      </trkpt>
      <trkpt lat="48.82037" lon="1.459">
        <ele>131.80000305176</ele>
        <time>2018-04-28T13:02:27.000Z</time>
      </trkpt>
      <trkpt lat="48.82029" lon="1.45904">
        <ele>132</ele>
        <time>2018-04-28T13:02:33.000Z</time>
      </trkpt>
      <trkpt lat="48.82015" lon="1.45905">
        <ele>131.80000305176</ele>
        <time>2018-04-28T13:02:41.000Z</time>
      </trkpt>
      <trkpt lat="48.82005" lon="1.45907">
        <ele>131.60000610352</ele>
        <time>2018-04-28T13:02:47.000Z</time>
      </trkpt>
      <trkpt lat="48.81993" lon="1.45908">
        <ele>131.39999389648</ele>
        <time>2018-04-28T13:02:55.000Z</time>
      </trkpt>
      <trkpt lat="48.81984" lon="1.45907">
        <ele>131</ele>
        <time>2018-04-28T13:03:01.000Z</time>
      </trkpt>
      <trkpt lat="48.81973" lon="1.45906">
        <ele>130.80000305176</ele>
        <time>2018-04-28T13:03:08.000Z</time>
      </trkpt>
      <trkpt lat="48.81962" lon="1.45905">
        <ele>130.60000610352</ele>
        <time>2018-04-28T13:03:14.000Z</time>
      </trkpt>
      <trkpt lat="48.81948" lon="1.45904">
        <ele>130.19999694824</ele>
        <time>2018-04-28T13:03:23.000Z</time>
      </trkpt>
      <trkpt lat="48.81936" lon="1.45903">
        <ele>130</ele>
        <time>2018-04-28T13:03:30.000Z</time>
      </trkpt>
      <trkpt lat="48.81926" lon="1.45901">
        <ele>129.80000305176</ele>
        <time>2018-04-28T13:03:36.000Z</time>
      </trkpt>
      <trkpt lat="48.81913" lon="1.45899">
        <ele>129.60000610352</ele>
        <time>2018-04-28T13:03:43.000Z</time>
      </trkpt>
      <trkpt lat="48.819" lon="1.45897">
        <ele>129.60000610352</ele>
        <time>2018-04-28T13:03:51.000Z</time>
      </trkpt>
      <trkpt lat="48.81886" lon="1.45895">
        <ele>129.39999389648</ele>
        <time>2018-04-28T13:03:59.000Z</time>
      </trkpt>
      <trkpt lat="48.81871" lon="1.45893">
        <ele>129.19999694824</ele>
        <time>2018-04-28T13:04:08.000Z</time>
      </trkpt>
      <trkpt lat="48.81858" lon="1.4589">
        <ele>129.19999694824</ele>
        <time>2018-04-28T13:04:16.000Z</time>
      </trkpt>
      <trkpt lat="48.81846" lon="1.45888">
        <ele>129.19999694824</ele>
        <time>2018-04-28T13:04:23.000Z</time>
      </trkpt>
      <trkpt lat="48.81832" lon="1.45886">
        <ele>129.19999694824</ele>
        <time>2018-04-28T13:04:32.000Z</time>
      </trkpt>
      <trkpt lat="48.81822" lon="1.45883">
        <ele>129.19999694824</ele>
        <time>2018-04-28T13:04:39.000Z</time>
      </trkpt>
      <trkpt lat="48.81812" lon="1.45882">
        <ele>129.19999694824</ele>
        <time>2018-04-28T13:04:45.000Z</time>
      </trkpt>
      <trkpt lat="48.81801" lon="1.4588">
        <ele>129.19999694824</ele>
        <time>2018-04-28T13:04:52.000Z</time>
      </trkpt>
      <trkpt lat="48.81791" lon="1.45879">
        <ele>129.19999694824</ele>
        <time>2018-04-28T13:04:58.000Z</time>
      </trkpt>
      <trkpt lat="48.81784" lon="1.45877">
        <ele>129.19999694824</ele>
        <time>2018-04-28T13:05:03.000Z</time>
      </trkpt>
      <trkpt lat="48.81775" lon="1.45876">
        <ele>129.19999694824</ele>
        <time>2018-04-28T13:05:09.000Z</time>
      </trkpt>
      <trkpt lat="48.81767" lon="1.45875">
        <ele>129.39999389648</ele>
        <time>2018-04-28T13:05:14.000Z</time>
      </trkpt>
      <trkpt lat="48.8176" lon="1.45874">
        <ele>129.80000305176</ele>
        <time>2018-04-28T13:05:19.000Z</time>
      </trkpt>
      <trkpt lat="48.81749" lon="1.45874">
        <ele>130.19999694824</ele>
        <time>2018-04-28T13:05:25.000Z</time>
      </trkpt>
      <trkpt lat="48.81733" lon="1.45874">
        <ele>130.39999389648</ele>
        <time>2018-04-28T13:05:34.000Z</time>
      </trkpt>
      <trkpt lat="48.8173" lon="1.45874">
        <ele>130.39999389648</ele>
        <time>2018-04-28T13:05:36.000Z</time>
      </trkpt>
      <trkpt lat="48.81725" lon="1.45875">
        <ele>130.39999389648</ele>
        <time>2018-04-28T13:05:39.000Z</time>
      </trkpt>
      <trkpt lat="48.81714" lon="1.45878">
        <ele>130.39999389648</ele>
        <time>2018-04-28T13:05:46.000Z</time>
      </trkpt>
      <trkpt lat="48.817" lon="1.45882">
        <ele>130.39999389648</ele>
        <time>2018-04-28T13:05:54.000Z</time>
      </trkpt>
      <trkpt lat="48.81687" lon="1.45886">
        <ele>130.60000610352</ele>
        <time>2018-04-28T13:06:02.000Z</time>
      </trkpt>
      <trkpt lat="48.81675" lon="1.45893">
        <ele>131.39999389648</ele>
        <time>2018-04-28T13:06:10.000Z</time>
      </trkpt>
      <trkpt lat="48.81664" lon="1.459">
        <ele>132.60000610352</ele>
        <time>2018-04-28T13:06:17.000Z</time>
      </trkpt>
      <trkpt lat="48.81654" lon="1.45908">
        <ele>133.60000610352</ele>
        <time>2018-04-28T13:06:24.000Z</time>
      </trkpt>
      <trkpt lat="48.81642" lon="1.45918">
        <ele>134.80000305176</ele>
        <time>2018-04-28T13:06:31.000Z</time>
      </trkpt>
      <trkpt lat="48.81635" lon="1.45927">
        <ele>135.39999389648</ele>
        <time>2018-04-28T13:06:37.000Z</time>
      </trkpt>
      <trkpt lat="48.81628" lon="1.45935">
        <ele>135.39999389648</ele>
        <time>2018-04-28T13:06:43.000Z</time>
      </trkpt>
      <trkpt lat="48.81624" lon="1.45941">
        <ele>135.39999389648</ele>
        <time>2018-04-28T13:06:47.000Z</time>
      </trkpt>
      <trkpt lat="48.81622" lon="1.45941">
        <ele>135.39999389648</ele>
        <time>2018-04-28T13:06:48.000Z</time>
      </trkpt>
      <trkpt lat="48.81616" lon="1.4595">
        <ele>135.39999389648</ele>
        <time>2018-04-28T13:06:53.000Z</time>
      </trkpt>
      <trkpt lat="48.81611" lon="1.45956">
        <ele>135.19999694824</ele>
        <time>2018-04-28T13:06:57.000Z</time>
      </trkpt>
      <trkpt lat="48.81607" lon="1.45962">
        <ele>135.19999694824</ele>
        <time>2018-04-28T13:07:01.000Z</time>
      </trkpt>
      <trkpt lat="48.81606" lon="1.45963">
        <ele>135.19999694824</ele>
        <time>2018-04-28T13:07:02.000Z</time>
      </trkpt>
      <trkpt lat="48.816" lon="1.45973">
        <ele>134.60000610352</ele>
        <time>2018-04-28T13:07:08.000Z</time>
      </trkpt>
      <trkpt lat="48.81598" lon="1.45979">
        <ele>134.60000610352</ele>
        <time>2018-04-28T13:07:12.000Z</time>
      </trkpt>
      <trkpt lat="48.81598" lon="1.45979">
        <ele>134.60000610352</ele>
        <time>2018-04-28T13:07:13.000Z</time>
      </trkpt>
      <trkpt lat="48.81603" lon="1.45979">
        <ele>134.39999389648</ele>
        <time>2018-04-28T13:07:30.000Z</time>
      </trkpt>
      <trkpt lat="48.81609" lon="1.45969">
        <ele>134.60000610352</ele>
        <time>2018-04-28T13:07:37.000Z</time>
      </trkpt>
      <trkpt lat="48.81617" lon="1.45959">
        <ele>134.80000305176</ele>
        <time>2018-04-28T13:07:45.000Z</time>
      </trkpt>
      <trkpt lat="48.81624" lon="1.4595">
        <ele>134.80000305176</ele>
        <time>2018-04-28T13:07:52.000Z</time>
      </trkpt>
      <trkpt lat="48.8163" lon="1.45943">
        <ele>135</ele>
        <time>2018-04-28T13:07:58.000Z</time>
      </trkpt>
      <trkpt lat="48.81637" lon="1.45934">
        <ele>135</ele>
        <time>2018-04-28T13:08:04.000Z</time>
      </trkpt>
      <trkpt lat="48.81642" lon="1.45928">
        <ele>134.60000610352</ele>
        <time>2018-04-28T13:08:09.000Z</time>
      </trkpt>
      <trkpt lat="48.81648" lon="1.45915">
        <ele>134.19999694824</ele>
        <time>2018-04-28T13:08:16.000Z</time>
      </trkpt>
      <trkpt lat="48.81651" lon="1.45909">
        <ele>134</ele>
        <time>2018-04-28T13:08:19.000Z</time>
      </trkpt>
      <trkpt lat="48.81653" lon="1.45904">
        <ele>133.80000305176</ele>
        <time>2018-04-28T13:08:22.000Z</time>
      </trkpt>
      <trkpt lat="48.81654" lon="1.45901">
        <ele>133.60000610352</ele>
        <time>2018-04-28T13:08:24.000Z</time>
      </trkpt>
      <trkpt lat="48.81657" lon="1.45894">
        <ele>133.39999389648</ele>
        <time>2018-04-28T13:08:28.000Z</time>
      </trkpt>
      <trkpt lat="48.81661" lon="1.45878">
        <ele>133</ele>
        <time>2018-04-28T13:08:35.000Z</time>
      </trkpt>
      <trkpt lat="48.81664" lon="1.4587">
        <ele>132.80000305176</ele>
        <time>2018-04-28T13:08:39.000Z</time>
      </trkpt>
      <trkpt lat="48.81666" lon="1.45867">
        <ele>132.80000305176</ele>
        <time>2018-04-28T13:08:41.000Z</time>
      </trkpt>
      <trkpt lat="48.8167" lon="1.45856">
        <ele>132.80000305176</ele>
        <time>2018-04-28T13:08:45.000Z</time>
      </trkpt>
      <trkpt lat="48.81671" lon="1.45854">
        <ele>133</ele>
        <time>2018-04-28T13:08:46.000Z</time>
      </trkpt>
      <trkpt lat="48.81673" lon="1.45841">
        <ele>133.19999694824</ele>
        <time>2018-04-28T13:08:52.000Z</time>
      </trkpt>
      <trkpt lat="48.81673" lon="1.45839">
        <ele>133.19999694824</ele>
        <time>2018-04-28T13:08:53.000Z</time>
      </trkpt>
      <trkpt lat="48.81674" lon="1.45833">
        <ele>133.39999389648</ele>
        <time>2018-04-28T13:08:57.000Z</time>
      </trkpt>
      <trkpt lat="48.81678" lon="1.45822">
        <ele>133.60000610352</ele>
        <time>2018-04-28T13:09:03.000Z</time>
      </trkpt>
      <trkpt lat="48.8168" lon="1.45817">
        <ele>133.60000610352</ele>
        <time>2018-04-28T13:09:06.000Z</time>
      </trkpt>
      <trkpt lat="48.81682" lon="1.45812">
        <ele>133.60000610352</ele>
        <time>2018-04-28T13:09:09.000Z</time>
      </trkpt>
      <trkpt lat="48.81683" lon="1.45808">
        <ele>133.39999389648</ele>
        <time>2018-04-28T13:09:11.000Z</time>
      </trkpt>
      <trkpt lat="48.81688" lon="1.45796">
        <ele>133</ele>
        <time>2018-04-28T13:09:16.000Z</time>
      </trkpt>
      <trkpt lat="48.81691" lon="1.45788">
        <ele>133</ele>
        <time>2018-04-28T13:09:19.000Z</time>
      </trkpt>
      <trkpt lat="48.81693" lon="1.45783">
        <ele>132.80000305176</ele>
        <time>2018-04-28T13:09:21.000Z</time>
      </trkpt>
      <trkpt lat="48.81697" lon="1.45774">
        <ele>132.80000305176</ele>
        <time>2018-04-28T13:09:25.000Z</time>
      </trkpt>
      <trkpt lat="48.817" lon="1.45765">
        <ele>132.60000610352</ele>
        <time>2018-04-28T13:09:29.000Z</time>
      </trkpt>
      <trkpt lat="48.81706" lon="1.4575">
        <ele>132.39999389648</ele>
        <time>2018-04-28T13:09:36.000Z</time>
      </trkpt>
      <trkpt lat="48.81711" lon="1.45739">
        <ele>132.19999694824</ele>
        <time>2018-04-28T13:09:42.000Z</time>
      </trkpt>
      <trkpt lat="48.81716" lon="1.45729">
        <ele>131.80000305176</ele>
        <time>2018-04-28T13:09:47.000Z</time>
      </trkpt>
      <trkpt lat="48.81721" lon="1.45717">
        <ele>130.80000305176</ele>
        <time>2018-04-28T13:09:53.000Z</time>
      </trkpt>
      <trkpt lat="48.81728" lon="1.45699">
        <ele>129.60000610352</ele>
        <time>2018-04-28T13:10:02.000Z</time>
      </trkpt>
      <trkpt lat="48.81733" lon="1.45688">
        <ele>129</ele>
        <time>2018-04-28T13:10:08.000Z</time>
      </trkpt>
      <trkpt lat="48.81739" lon="1.45673">
        <ele>129.19999694824</ele>
        <time>2018-04-28T13:10:15.000Z</time>
      </trkpt>
      <trkpt lat="48.81742" lon="1.45667">
        <ele>129.19999694824</ele>
        <time>2018-04-28T13:10:18.000Z</time>
      </trkpt>
      <trkpt lat="48.81743" lon="1.45665">
        <ele>129.39999389648</ele>
        <time>2018-04-28T13:10:19.000Z</time>
      </trkpt>
      <trkpt lat="48.81747" lon="1.45655">
        <ele>129.39999389648</ele>
        <time>2018-04-28T13:10:24.000Z</time>
      </trkpt>
      <trkpt lat="48.81751" lon="1.45646">
        <ele>129.60000610352</ele>
        <time>2018-04-28T13:10:29.000Z</time>
      </trkpt>
      <trkpt lat="48.81753" lon="1.45642">
        <ele>129.60000610352</ele>
        <time>2018-04-28T13:10:31.000Z</time>
      </trkpt>
      <trkpt lat="48.8176" lon="1.45629">
        <ele>129.39999389648</ele>
        <time>2018-04-28T13:10:38.000Z</time>
      </trkpt>
      <trkpt lat="48.81765" lon="1.45619">
        <ele>129</ele>
        <time>2018-04-28T13:10:43.000Z</time>
      </trkpt>
      <trkpt lat="48.81767" lon="1.45613">
        <ele>128.80000305176</ele>
        <time>2018-04-28T13:10:47.000Z</time>
      </trkpt>
      <trkpt lat="48.81771" lon="1.45606">
        <ele>128.39999389648</ele>
        <time>2018-04-28T13:10:52.000Z</time>
      </trkpt>
      <trkpt lat="48.81776" lon="1.45597">
        <ele>128.39999389648</ele>
        <time>2018-04-28T13:10:58.000Z</time>
      </trkpt>
      <trkpt lat="48.81782" lon="1.4559">
        <ele>128.60000610352</ele>
        <time>2018-04-28T13:11:03.000Z</time>
      </trkpt>
      <trkpt lat="48.81788" lon="1.45578">
        <ele>128.60000610352</ele>
        <time>2018-04-28T13:11:09.000Z</time>
      </trkpt>
      <trkpt lat="48.81794" lon="1.45567">
        <ele>129</ele>
        <time>2018-04-28T13:11:15.000Z</time>
      </trkpt>
      <trkpt lat="48.818" lon="1.45558">
        <ele>129.39999389648</ele>
        <time>2018-04-28T13:11:20.000Z</time>
      </trkpt>
      <trkpt lat="48.81805" lon="1.45551">
        <ele>130</ele>
        <time>2018-04-28T13:11:25.000Z</time>
      </trkpt>
      <trkpt lat="48.8181" lon="1.45545">
        <ele>130.39999389648</ele>
        <time>2018-04-28T13:11:29.000Z</time>
      </trkpt>
      <trkpt lat="48.81811" lon="1.45544">
        <ele>130.60000610352</ele>
        <time>2018-04-28T13:11:30.000Z</time>
      </trkpt>
      <trkpt lat="48.81813" lon="1.45538">
        <ele>130.80000305176</ele>
        <time>2018-04-28T13:11:34.000Z</time>
      </trkpt>
      <trkpt lat="48.81818" lon="1.4553">
        <ele>131.19999694824</ele>
        <time>2018-04-28T13:11:38.000Z</time>
      </trkpt>
      <trkpt lat="48.81819" lon="1.45528">
        <ele>131.39999389648</ele>
        <time>2018-04-28T13:11:39.000Z</time>
      </trkpt>
      <trkpt lat="48.81821" lon="1.45524">
        <ele>131.19999694824</ele>
        <time>2018-04-28T13:11:42.000Z</time>
      </trkpt>
      <trkpt lat="48.81822" lon="1.45523">
        <ele>131.19999694824</ele>
        <time>2018-04-28T13:11:43.000Z</time>
      </trkpt>
      <trkpt lat="48.81828" lon="1.45516">
        <ele>131.19999694824</ele>
        <time>2018-04-28T13:11:47.000Z</time>
      </trkpt>
      <trkpt lat="48.81832" lon="1.45511">
        <ele>131.19999694824</ele>
        <time>2018-04-28T13:11:50.000Z</time>
      </trkpt>
      <trkpt lat="48.81833" lon="1.45508">
        <ele>131.19999694824</ele>
        <time>2018-04-28T13:11:52.000Z</time>
      </trkpt>
      <trkpt lat="48.81835" lon="1.45507">
        <ele>131.19999694824</ele>
        <time>2018-04-28T13:11:53.000Z</time>
      </trkpt>
      <trkpt lat="48.81839" lon="1.455">
        <ele>131</ele>
        <time>2018-04-28T13:11:57.000Z</time>
      </trkpt>
      <trkpt lat="48.81844" lon="1.45492">
        <ele>131</ele>
        <time>2018-04-28T13:12:01.000Z</time>
      </trkpt>
      <trkpt lat="48.81844" lon="1.4549">
        <ele>130.80000305176</ele>
        <time>2018-04-28T13:12:02.000Z</time>
      </trkpt>
      <trkpt lat="48.81846" lon="1.45487">
        <ele>130.80000305176</ele>
        <time>2018-04-28T13:12:03.000Z</time>
      </trkpt>
      <trkpt lat="48.81852" lon="1.45478">
        <ele>131.19999694824</ele>
        <time>2018-04-28T13:12:08.000Z</time>
      </trkpt>
      <trkpt lat="48.81853" lon="1.45476">
        <ele>131.19999694824</ele>
        <time>2018-04-28T13:12:09.000Z</time>
      </trkpt>
      <trkpt lat="48.81859" lon="1.45467">
        <ele>131.39999389648</ele>
        <time>2018-04-28T13:12:14.000Z</time>
      </trkpt>
      <trkpt lat="48.81861" lon="1.4546">
        <ele>131.80000305176</ele>
        <time>2018-04-28T13:12:18.000Z</time>
      </trkpt>
      <trkpt lat="48.81862" lon="1.45458">
        <ele>131.80000305176</ele>
        <time>2018-04-28T13:12:19.000Z</time>
      </trkpt>
      <trkpt lat="48.81864" lon="1.45454">
        <ele>132</ele>
        <time>2018-04-28T13:12:21.000Z</time>
      </trkpt>
      <trkpt lat="48.81865" lon="1.45453">
        <ele>132</ele>
        <time>2018-04-28T13:12:22.000Z</time>
      </trkpt>
      <trkpt lat="48.81869" lon="1.45444">
        <ele>132.39999389648</ele>
        <time>2018-04-28T13:12:26.000Z</time>
      </trkpt>
      <trkpt lat="48.81872" lon="1.45439">
        <ele>132.60000610352</ele>
        <time>2018-04-28T13:12:29.000Z</time>
      </trkpt>
      <trkpt lat="48.81878" lon="1.4543">
        <ele>133</ele>
        <time>2018-04-28T13:12:33.000Z</time>
      </trkpt>
      <trkpt lat="48.81879" lon="1.45428">
        <ele>133.19999694824</ele>
        <time>2018-04-28T13:12:34.000Z</time>
      </trkpt>
      <trkpt lat="48.81881" lon="1.45422">
        <ele>133.39999389648</ele>
        <time>2018-04-28T13:12:37.000Z</time>
      </trkpt>
      <trkpt lat="48.81886" lon="1.45413">
        <ele>133.60000610352</ele>
        <time>2018-04-28T13:12:42.000Z</time>
      </trkpt>
      <trkpt lat="48.81887" lon="1.45405">
        <ele>133.60000610352</ele>
        <time>2018-04-28T13:12:46.000Z</time>
      </trkpt>
      <trkpt lat="48.81887" lon="1.45404">
        <ele>133.80000305176</ele>
        <time>2018-04-28T13:12:47.000Z</time>
      </trkpt>
      <trkpt lat="48.81886" lon="1.45403">
        <ele>133.80000305176</ele>
        <time>2018-04-28T13:12:48.000Z</time>
      </trkpt>
      <trkpt lat="48.81885" lon="1.45394">
        <ele>133.80000305176</ele>
        <time>2018-04-28T13:12:52.000Z</time>
      </trkpt>
      <trkpt lat="48.81882" lon="1.45385">
        <ele>133.60000610352</ele>
        <time>2018-04-28T13:12:57.000Z</time>
      </trkpt>
      <trkpt lat="48.81881" lon="1.45382">
        <ele>133.60000610352</ele>
        <time>2018-04-28T13:12:59.000Z</time>
      </trkpt>
      <trkpt lat="48.81882" lon="1.45377">
        <ele>133.60000610352</ele>
        <time>2018-04-28T13:13:00.000Z</time>
      </trkpt>
      <trkpt lat="48.81881" lon="1.45372">
        <ele>133.60000610352</ele>
        <time>2018-04-28T13:13:02.000Z</time>
      </trkpt>
      <trkpt lat="48.81882" lon="1.45359">
        <ele>133.60000610352</ele>
        <time>2018-04-28T13:13:07.000Z</time>
      </trkpt>
      <trkpt lat="48.81882" lon="1.45346">
        <ele>133.60000610352</ele>
        <time>2018-04-28T13:13:12.000Z</time>
      </trkpt>
      <trkpt lat="48.81881" lon="1.45338">
        <ele>133.60000610352</ele>
        <time>2018-04-28T13:13:15.000Z</time>
      </trkpt>
      <trkpt lat="48.81882" lon="1.45335">
        <ele>133.60000610352</ele>
        <time>2018-04-28T13:13:16.000Z</time>
      </trkpt>
      <trkpt lat="48.81881" lon="1.45326">
        <ele>133.39999389648</ele>
        <time>2018-04-28T13:13:19.000Z</time>
      </trkpt>
      <trkpt lat="48.81881" lon="1.45315">
        <ele>133.39999389648</ele>
        <time>2018-04-28T13:13:23.000Z</time>
      </trkpt>
      <trkpt lat="48.81881" lon="1.45308">
        <ele>133.39999389648</ele>
        <time>2018-04-28T13:13:25.000Z</time>
      </trkpt>
      <trkpt lat="48.81881" lon="1.45293">
        <ele>133.39999389648</ele>
        <time>2018-04-28T13:13:31.000Z</time>
      </trkpt>
      <trkpt lat="48.81881" lon="1.45277">
        <ele>133.39999389648</ele>
        <time>2018-04-28T13:13:38.000Z</time>
      </trkpt>
      <trkpt lat="48.8188" lon="1.45271">
        <ele>133.19999694824</ele>
        <time>2018-04-28T13:13:41.000Z</time>
      </trkpt>
      <trkpt lat="48.8188" lon="1.45265">
        <ele>133.19999694824</ele>
        <time>2018-04-28T13:13:43.000Z</time>
      </trkpt>
      <trkpt lat="48.8188" lon="1.4526">
        <ele>133.19999694824</ele>
        <time>2018-04-28T13:13:45.000Z</time>
      </trkpt>
      <trkpt lat="48.8188" lon="1.45251">
        <ele>133.19999694824</ele>
        <time>2018-04-28T13:13:49.000Z</time>
      </trkpt>
      <trkpt lat="48.81881" lon="1.4524">
        <ele>133</ele>
        <time>2018-04-28T13:13:53.000Z</time>
      </trkpt>
      <trkpt lat="48.81882" lon="1.45229">
        <ele>133</ele>
        <time>2018-04-28T13:13:57.000Z</time>
      </trkpt>
      <trkpt lat="48.81883" lon="1.45218">
        <ele>133.39999389648</ele>
        <time>2018-04-28T13:14:02.000Z</time>
      </trkpt>
      <trkpt lat="48.81884" lon="1.45214">
        <ele>133.39999389648</ele>
        <time>2018-04-28T13:14:04.000Z</time>
      </trkpt>
      <trkpt lat="48.81884" lon="1.45213">
        <ele>133.39999389648</ele>
        <time>2018-04-28T13:14:05.000Z</time>
      </trkpt>
      <trkpt lat="48.81884" lon="1.45211">
        <ele>133.60000610352</ele>
        <time>2018-04-28T13:14:06.000Z</time>
      </trkpt>
      <trkpt lat="48.81885" lon="1.45204">
        <ele>133.60000610352</ele>
        <time>2018-04-28T13:14:09.000Z</time>
      </trkpt>
      <trkpt lat="48.81885" lon="1.45202">
        <ele>133.80000305176</ele>
        <time>2018-04-28T13:14:10.000Z</time>
      </trkpt>
      <trkpt lat="48.81886" lon="1.45191">
        <ele>134</ele>
        <time>2018-04-28T13:14:14.000Z</time>
      </trkpt>
      <trkpt lat="48.81887" lon="1.45181">
        <ele>134.19999694824</ele>
        <time>2018-04-28T13:14:18.000Z</time>
      </trkpt>
      <trkpt lat="48.81887" lon="1.45171">
        <ele>134.39999389648</ele>
        <time>2018-04-28T13:14:22.000Z</time>
      </trkpt>
      <trkpt lat="48.8189" lon="1.45159">
        <ele>134.39999389648</ele>
        <time>2018-04-28T13:14:27.000Z</time>
      </trkpt>
      <trkpt lat="48.81892" lon="1.45151">
        <ele>134.60000610352</ele>
        <time>2018-04-28T13:14:30.000Z</time>
      </trkpt>
      <trkpt lat="48.81891" lon="1.45149">
        <ele>134.60000610352</ele>
        <time>2018-04-28T13:14:31.000Z</time>
      </trkpt>
      <trkpt lat="48.81892" lon="1.45145">
        <ele>134.60000610352</ele>
        <time>2018-04-28T13:14:33.000Z</time>
      </trkpt>
      <trkpt lat="48.81892" lon="1.45139">
        <ele>134.80000305176</ele>
        <time>2018-04-28T13:14:35.000Z</time>
      </trkpt>
      <trkpt lat="48.81895" lon="1.45127">
        <ele>135</ele>
        <time>2018-04-28T13:14:40.000Z</time>
      </trkpt>
      <trkpt lat="48.81896" lon="1.45121">
        <ele>135.19999694824</ele>
        <time>2018-04-28T13:14:42.000Z</time>
      </trkpt>
      <trkpt lat="48.81898" lon="1.45113">
        <ele>135.39999389648</ele>
        <time>2018-04-28T13:14:45.000Z</time>
      </trkpt>
      <trkpt lat="48.81898" lon="1.45108">
        <ele>135.39999389648</ele>
        <time>2018-04-28T13:14:47.000Z</time>
      </trkpt>
      <trkpt lat="48.81898" lon="1.451">
        <ele>135.60000610352</ele>
        <time>2018-04-28T13:14:50.000Z</time>
      </trkpt>
      <trkpt lat="48.819" lon="1.45085">
        <ele>136</ele>
        <time>2018-04-28T13:14:55.000Z</time>
      </trkpt>
      <trkpt lat="48.81901" lon="1.45077">
        <ele>136.19999694824</ele>
        <time>2018-04-28T13:14:59.000Z</time>
      </trkpt>
      <trkpt lat="48.81902" lon="1.45072">
        <ele>136.19999694824</ele>
        <time>2018-04-28T13:15:01.000Z</time>
      </trkpt>
      <trkpt lat="48.81904" lon="1.45061">
        <ele>136.39999389648</ele>
        <time>2018-04-28T13:15:05.000Z</time>
      </trkpt>
      <trkpt lat="48.81905" lon="1.4506">
        <ele>136.39999389648</ele>
        <time>2018-04-28T13:15:06.000Z</time>
      </trkpt>
      <trkpt lat="48.81905" lon="1.45054">
        <ele>136.19999694824</ele>
        <time>2018-04-28T13:15:09.000Z</time>
      </trkpt>
      <trkpt lat="48.81906" lon="1.4505">
        <ele>136.19999694824</ele>
        <time>2018-04-28T13:15:11.000Z</time>
      </trkpt>
      <trkpt lat="48.81907" lon="1.45046">
        <ele>136.19999694824</ele>
        <time>2018-04-28T13:15:13.000Z</time>
      </trkpt>
      <trkpt lat="48.81909" lon="1.45036">
        <ele>136</ele>
        <time>2018-04-28T13:15:17.000Z</time>
      </trkpt>
      <trkpt lat="48.8191" lon="1.45031">
        <ele>136</ele>
        <time>2018-04-28T13:15:19.000Z</time>
      </trkpt>
      <trkpt lat="48.81912" lon="1.45023">
        <ele>135.80000305176</ele>
        <time>2018-04-28T13:15:22.000Z</time>
      </trkpt>
      <trkpt lat="48.81914" lon="1.45016">
        <ele>135.60000610352</ele>
        <time>2018-04-28T13:15:25.000Z</time>
      </trkpt>
      <trkpt lat="48.81915" lon="1.45012">
        <ele>135.60000610352</ele>
        <time>2018-04-28T13:15:27.000Z</time>
      </trkpt>
      <trkpt lat="48.81915" lon="1.45007">
        <ele>135.60000610352</ele>
        <time>2018-04-28T13:15:30.000Z</time>
      </trkpt>
      <trkpt lat="48.81916" lon="1.44996">
        <ele>135.39999389648</ele>
        <time>2018-04-28T13:15:35.000Z</time>
      </trkpt>
      <trkpt lat="48.81915" lon="1.44987">
        <ele>135.39999389648</ele>
        <time>2018-04-28T13:15:39.000Z</time>
      </trkpt>
      <trkpt lat="48.81915" lon="1.44979">
        <ele>135.19999694824</ele>
        <time>2018-04-28T13:15:43.000Z</time>
      </trkpt>
      <trkpt lat="48.81915" lon="1.44977">
        <ele>135.19999694824</ele>
        <time>2018-04-28T13:15:44.000Z</time>
      </trkpt>
      <trkpt lat="48.81916" lon="1.44966">
        <ele>135.19999694824</ele>
        <time>2018-04-28T13:15:48.000Z</time>
      </trkpt>
      <trkpt lat="48.81918" lon="1.44953">
        <ele>135.19999694824</ele>
        <time>2018-04-28T13:15:53.000Z</time>
      </trkpt>
      <trkpt lat="48.81918" lon="1.44952">
        <ele>135.19999694824</ele>
        <time>2018-04-28T13:15:54.000Z</time>
      </trkpt>
      <trkpt lat="48.81919" lon="1.44947">
        <ele>135.19999694824</ele>
        <time>2018-04-28T13:15:56.000Z</time>
      </trkpt>
      <trkpt lat="48.8192" lon="1.4493">
        <ele>135.19999694824</ele>
        <time>2018-04-28T13:16:02.000Z</time>
      </trkpt>
      <trkpt lat="48.81922" lon="1.44914">
        <ele>135.19999694824</ele>
        <time>2018-04-28T13:16:08.000Z</time>
      </trkpt>
      <trkpt lat="48.81922" lon="1.44906">
        <ele>135.19999694824</ele>
        <time>2018-04-28T13:16:12.000Z</time>
      </trkpt>
      <trkpt lat="48.81923" lon="1.44902">
        <ele>135.19999694824</ele>
        <time>2018-04-28T13:16:14.000Z</time>
      </trkpt>
      <trkpt lat="48.81924" lon="1.44895">
        <ele>135.19999694824</ele>
        <time>2018-04-28T13:16:18.000Z</time>
      </trkpt>
      <trkpt lat="48.81925" lon="1.44893">
        <ele>135</ele>
        <time>2018-04-28T13:16:19.000Z</time>
      </trkpt>
      <trkpt lat="48.81925" lon="1.44888">
        <ele>135</ele>
        <time>2018-04-28T13:16:22.000Z</time>
      </trkpt>
      <trkpt lat="48.81926" lon="1.44886">
        <ele>135</ele>
        <time>2018-04-28T13:16:23.000Z</time>
      </trkpt>
      <trkpt lat="48.81927" lon="1.4488">
        <ele>135</ele>
        <time>2018-04-28T13:16:26.000Z</time>
      </trkpt>
      <trkpt lat="48.81927" lon="1.44873">
        <ele>135</ele>
        <time>2018-04-28T13:16:30.000Z</time>
      </trkpt>
      <trkpt lat="48.81929" lon="1.44869">
        <ele>135</ele>
        <time>2018-04-28T13:16:32.000Z</time>
      </trkpt>
      <trkpt lat="48.81929" lon="1.44864">
        <ele>135</ele>
        <time>2018-04-28T13:16:33.000Z</time>
      </trkpt>
      <trkpt lat="48.81931" lon="1.44857">
        <ele>135</ele>
        <time>2018-04-28T13:16:35.000Z</time>
      </trkpt>
      <trkpt lat="48.81933" lon="1.44847">
        <ele>135</ele>
        <time>2018-04-28T13:16:39.000Z</time>
      </trkpt>
      <trkpt lat="48.81935" lon="1.44842">
        <ele>135</ele>
        <time>2018-04-28T13:16:41.000Z</time>
      </trkpt>
      <trkpt lat="48.81934" lon="1.4484">
        <ele>135</ele>
        <time>2018-04-28T13:16:42.000Z</time>
      </trkpt>
      <trkpt lat="48.81936" lon="1.44832">
        <ele>135</ele>
        <time>2018-04-28T13:16:45.000Z</time>
      </trkpt>
      <trkpt lat="48.81935" lon="1.44822">
        <ele>135</ele>
        <time>2018-04-28T13:16:49.000Z</time>
      </trkpt>
      <trkpt lat="48.81937" lon="1.44813">
        <ele>135</ele>
        <time>2018-04-28T13:16:53.000Z</time>
      </trkpt>
      <trkpt lat="48.81937" lon="1.44805">
        <ele>134.60000610352</ele>
        <time>2018-04-28T13:16:57.000Z</time>
      </trkpt>
      <trkpt lat="48.81938" lon="1.44803">
        <ele>134.60000610352</ele>
        <time>2018-04-28T13:16:58.000Z</time>
      </trkpt>
      <trkpt lat="48.81938" lon="1.44797">
        <ele>134.39999389648</ele>
        <time>2018-04-28T13:17:01.000Z</time>
      </trkpt>
      <trkpt lat="48.81937" lon="1.44792">
        <ele>134.19999694824</ele>
        <time>2018-04-28T13:17:03.000Z</time>
      </trkpt>
      <trkpt lat="48.81937" lon="1.44789">
        <ele>134</ele>
        <time>2018-04-28T13:17:04.000Z</time>
      </trkpt>
      <trkpt lat="48.81937" lon="1.44785">
        <ele>134</ele>
        <time>2018-04-28T13:17:06.000Z</time>
      </trkpt>
      <trkpt lat="48.81937" lon="1.4478">
        <ele>133.80000305176</ele>
        <time>2018-04-28T13:17:08.000Z</time>
      </trkpt>
      <trkpt lat="48.81939" lon="1.44767">
        <ele>133.19999694824</ele>
        <time>2018-04-28T13:17:14.000Z</time>
      </trkpt>
      <trkpt lat="48.8194" lon="1.44753">
        <ele>132.80000305176</ele>
        <time>2018-04-28T13:17:19.000Z</time>
      </trkpt>
      <trkpt lat="48.81941" lon="1.44743">
        <ele>132.39999389648</ele>
        <time>2018-04-28T13:17:23.000Z</time>
      </trkpt>
      <trkpt lat="48.81943" lon="1.44732">
        <ele>132</ele>
        <time>2018-04-28T13:17:26.000Z</time>
      </trkpt>
      <trkpt lat="48.81944" lon="1.44722">
        <ele>132</ele>
        <time>2018-04-28T13:17:30.000Z</time>
      </trkpt>
      <trkpt lat="48.81946" lon="1.44713">
        <ele>132</ele>
        <time>2018-04-28T13:17:34.000Z</time>
      </trkpt>
      <trkpt lat="48.81948" lon="1.447">
        <ele>132.19999694824</ele>
        <time>2018-04-28T13:17:39.000Z</time>
      </trkpt>
      <trkpt lat="48.81948" lon="1.44691">
        <ele>132.19999694824</ele>
        <time>2018-04-28T13:17:43.000Z</time>
      </trkpt>
      <trkpt lat="48.81948" lon="1.44689">
        <ele>132.19999694824</ele>
        <time>2018-04-28T13:17:44.000Z</time>
      </trkpt>
      <trkpt lat="48.8195" lon="1.4468">
        <ele>132.19999694824</ele>
        <time>2018-04-28T13:17:48.000Z</time>
      </trkpt>
      <trkpt lat="48.81952" lon="1.44664">
        <ele>132.19999694824</ele>
        <time>2018-04-28T13:17:55.000Z</time>
      </trkpt>
      <trkpt lat="48.81954" lon="1.44652">
        <ele>131.80000305176</ele>
        <time>2018-04-28T13:18:00.000Z</time>
      </trkpt>
      <trkpt lat="48.81958" lon="1.44641">
        <ele>132</ele>
        <time>2018-04-28T13:18:05.000Z</time>
      </trkpt>
      <trkpt lat="48.81959" lon="1.44637">
        <ele>132.19999694824</ele>
        <time>2018-04-28T13:18:07.000Z</time>
      </trkpt>
      <trkpt lat="48.8196" lon="1.44634">
        <ele>132.19999694824</ele>
        <time>2018-04-28T13:18:09.000Z</time>
      </trkpt>
      <trkpt lat="48.81965" lon="1.44629">
        <ele>132.39999389648</ele>
        <time>2018-04-28T13:18:14.000Z</time>
      </trkpt>
      <trkpt lat="48.8197" lon="1.44625">
        <ele>132.39999389648</ele>
        <time>2018-04-28T13:18:19.000Z</time>
      </trkpt>
      <trkpt lat="48.81971" lon="1.44625">
        <ele>132.60000610352</ele>
        <time>2018-04-28T13:18:20.000Z</time>
      </trkpt>
      <trkpt lat="48.81973" lon="1.44623">
        <ele>132.60000610352</ele>
        <time>2018-04-28T13:18:23.000Z</time>
      </trkpt>
      <trkpt lat="48.81975" lon="1.44622">
        <ele>132.60000610352</ele>
        <time>2018-04-28T13:18:25.000Z</time>
      </trkpt>
      <trkpt lat="48.81979" lon="1.4462">
        <ele>132.60000610352</ele>
        <time>2018-04-28T13:18:28.000Z</time>
      </trkpt>
      <trkpt lat="48.81984" lon="1.44618">
        <ele>132.60000610352</ele>
        <time>2018-04-28T13:18:32.000Z</time>
      </trkpt>
      <trkpt lat="48.81988" lon="1.44616">
        <ele>132.60000610352</ele>
        <time>2018-04-28T13:18:37.000Z</time>
      </trkpt>
      <trkpt lat="48.81989" lon="1.44616">
        <ele>132.60000610352</ele>
        <time>2018-04-28T13:18:38.000Z</time>
      </trkpt>
      <trkpt lat="48.81991" lon="1.44616">
        <ele>132.39999389648</ele>
        <time>2018-04-28T13:18:41.000Z</time>
      </trkpt>
      <trkpt lat="48.81992" lon="1.44617">
        <ele>132.39999389648</ele>
        <time>2018-04-28T13:18:49.000Z</time>
      </trkpt>
      <trkpt lat="48.81992" lon="1.44614">
        <ele>132.39999389648</ele>
        <time>2018-04-28T13:18:57.000Z</time>
      </trkpt>
      <trkpt lat="48.81993" lon="1.44601">
        <ele>132.39999389648</ele>
        <time>2018-04-28T13:21:15.000Z</time>
      </trkpt>
      <trkpt lat="48.82004" lon="1.44605">
        <ele>131.80000305176</ele>
        <time>2018-04-28T13:22:12.000Z</time>
      </trkpt>
      <trkpt lat="48.82007" lon="1.44604">
        <ele>131.80000305176</ele>
        <time>2018-04-28T13:22:16.000Z</time>
      </trkpt>
      <trkpt lat="48.82011" lon="1.44604">
        <ele>131.60000610352</ele>
        <time>2018-04-28T13:22:20.000Z</time>
      </trkpt>
      <trkpt lat="48.82013" lon="1.44604">
        <ele>131.39999389648</ele>
        <time>2018-04-28T13:22:21.000Z</time>
      </trkpt>
      <trkpt lat="48.82017" lon="1.44603">
        <ele>131.19999694824</ele>
        <time>2018-04-28T13:22:24.000Z</time>
      </trkpt>
      <trkpt lat="48.82019" lon="1.44603">
        <ele>131.19999694824</ele>
        <time>2018-04-28T13:22:26.000Z</time>
      </trkpt>
      <trkpt lat="48.8202" lon="1.44604">
        <ele>131.19999694824</ele>
        <time>2018-04-28T13:22:27.000Z</time>
      </trkpt>
      <trkpt lat="48.82027" lon="1.44604">
        <ele>131</ele>
        <time>2018-04-28T13:22:32.000Z</time>
      </trkpt>
      <trkpt lat="48.82034" lon="1.44603">
        <ele>131</ele>
        <time>2018-04-28T13:22:37.000Z</time>
      </trkpt>
      <trkpt lat="48.82034" lon="1.44603">
        <ele>131</ele>
        <time>2018-04-28T13:22:38.000Z</time>
      </trkpt>
      <trkpt lat="48.82037" lon="1.44603">
        <ele>131</ele>
        <time>2018-04-28T13:22:41.000Z</time>
      </trkpt>
      <trkpt lat="48.82039" lon="1.44602">
        <ele>131</ele>
        <time>2018-04-28T13:22:42.000Z</time>
      </trkpt>
      <trkpt lat="48.82043" lon="1.446">
        <ele>131</ele>
        <time>2018-04-28T13:22:46.000Z</time>
      </trkpt>
      <trkpt lat="48.82044" lon="1.446">
        <ele>131</ele>
        <time>2018-04-28T13:22:47.000Z</time>
      </trkpt>
      <trkpt lat="48.82046" lon="1.446">
        <ele>131</ele>
        <time>2018-04-28T13:22:48.000Z</time>
      </trkpt>
      <trkpt lat="48.8205" lon="1.446">
        <ele>131</ele>
        <time>2018-04-28T13:22:51.000Z</time>
      </trkpt>
      <trkpt lat="48.8206" lon="1.446">
        <ele>131.19999694824</ele>
        <time>2018-04-28T13:22:57.000Z</time>
      </trkpt>
      <trkpt lat="48.82071" lon="1.44598">
        <ele>131.60000610352</ele>
        <time>2018-04-28T13:23:04.000Z</time>
      </trkpt>
      <trkpt lat="48.82075" lon="1.44597">
        <ele>131.80000305176</ele>
        <time>2018-04-28T13:23:07.000Z</time>
      </trkpt>
      <trkpt lat="48.82077" lon="1.44597">
        <ele>131.80000305176</ele>
        <time>2018-04-28T13:23:09.000Z</time>
      </trkpt>
      <trkpt lat="48.82079" lon="1.44597">
        <ele>132</ele>
        <time>2018-04-28T13:23:11.000Z</time>
      </trkpt>
      <trkpt lat="48.82083" lon="1.44597">
        <ele>132</ele>
        <time>2018-04-28T13:23:13.000Z</time>
      </trkpt>
      <trkpt lat="48.82091" lon="1.44597">
        <ele>132.39999389648</ele>
        <time>2018-04-28T13:23:18.000Z</time>
      </trkpt>
      <trkpt lat="48.82097" lon="1.44594">
        <ele>132.60000610352</ele>
        <time>2018-04-28T13:23:24.000Z</time>
      </trkpt>
      <trkpt lat="48.82099" lon="1.44594">
        <ele>132.80000305176</ele>
        <time>2018-04-28T13:23:26.000Z</time>
      </trkpt>
      <trkpt lat="48.82103" lon="1.44593">
        <ele>133</ele>
        <time>2018-04-28T13:23:28.000Z</time>
      </trkpt>
      <trkpt lat="48.82107" lon="1.44593">
        <ele>132.80000305176</ele>
        <time>2018-04-28T13:23:30.000Z</time>
      </trkpt>
      <trkpt lat="48.8211" lon="1.44592">
        <ele>132.60000610352</ele>
        <time>2018-04-28T13:23:33.000Z</time>
      </trkpt>
      <trkpt lat="48.82112" lon="1.44592">
        <ele>132.39999389648</ele>
        <time>2018-04-28T13:23:34.000Z</time>
      </trkpt>
      <trkpt lat="48.82122" lon="1.44589">
        <ele>131.39999389648</ele>
        <time>2018-04-28T13:23:40.000Z</time>
      </trkpt>
      <trkpt lat="48.82126" lon="1.44588">
        <ele>131</ele>
        <time>2018-04-28T13:23:43.000Z</time>
      </trkpt>
      <trkpt lat="48.82128" lon="1.44588">
        <ele>130.80000305176</ele>
        <time>2018-04-28T13:23:45.000Z</time>
      </trkpt>
      <trkpt lat="48.82135" lon="1.44587">
        <ele>130.39999389648</ele>
        <time>2018-04-28T13:23:49.000Z</time>
      </trkpt>
      <trkpt lat="48.82137" lon="1.44586">
        <ele>130.39999389648</ele>
        <time>2018-04-28T13:23:50.000Z</time>
      </trkpt>
      <trkpt lat="48.82144" lon="1.44585">
        <ele>130.19999694824</ele>
        <time>2018-04-28T13:23:55.000Z</time>
      </trkpt>
      <trkpt lat="48.82152" lon="1.44583">
        <ele>129.80000305176</ele>
        <time>2018-04-28T13:24:00.000Z</time>
      </trkpt>
      <trkpt lat="48.82158" lon="1.44583">
        <ele>129.39999389648</ele>
        <time>2018-04-28T13:24:04.000Z</time>
      </trkpt>
      <trkpt lat="48.82159" lon="1.44583">
        <ele>129.39999389648</ele>
        <time>2018-04-28T13:24:05.000Z</time>
      </trkpt>
      <trkpt lat="48.82165" lon="1.44581">
        <ele>129.19999694824</ele>
        <time>2018-04-28T13:24:10.000Z</time>
      </trkpt>
      <trkpt lat="48.82168" lon="1.4458">
        <ele>129</ele>
        <time>2018-04-28T13:24:12.000Z</time>
      </trkpt>
      <trkpt lat="48.82171" lon="1.4458">
        <ele>128.80000305176</ele>
        <time>2018-04-28T13:24:14.000Z</time>
      </trkpt>
      <trkpt lat="48.82177" lon="1.44579">
        <ele>128.60000610352</ele>
        <time>2018-04-28T13:24:17.000Z</time>
      </trkpt>
      <trkpt lat="48.82179" lon="1.44579">
        <ele>128.60000610352</ele>
        <time>2018-04-28T13:24:18.000Z</time>
      </trkpt>
      <trkpt lat="48.82182" lon="1.44579">
        <ele>128.19999694824</ele>
        <time>2018-04-28T13:24:20.000Z</time>
      </trkpt>
      <trkpt lat="48.82184" lon="1.44578">
        <ele>128.19999694824</ele>
        <time>2018-04-28T13:24:22.000Z</time>
      </trkpt>
      <trkpt lat="48.82191" lon="1.44577">
        <ele>128</ele>
        <time>2018-04-28T13:24:27.000Z</time>
      </trkpt>
      <trkpt lat="48.82193" lon="1.44576">
        <ele>128</ele>
        <time>2018-04-28T13:24:28.000Z</time>
      </trkpt>
      <trkpt lat="48.82197" lon="1.44574">
        <ele>128</ele>
        <time>2018-04-28T13:24:31.000Z</time>
      </trkpt>
      <trkpt lat="48.82198" lon="1.44574">
        <ele>127.80000305176</ele>
        <time>2018-04-28T13:24:32.000Z</time>
      </trkpt>
      <trkpt lat="48.82204" lon="1.44571">
        <ele>127.40000152588</ele>
        <time>2018-04-28T13:24:35.000Z</time>
      </trkpt>
      <trkpt lat="48.82207" lon="1.44571">
        <ele>127.19999694824</ele>
        <time>2018-04-28T13:24:37.000Z</time>
      </trkpt>
      <trkpt lat="48.82213" lon="1.4457">
        <ele>126.40000152588</ele>
        <time>2018-04-28T13:24:41.000Z</time>
      </trkpt>
      <trkpt lat="48.82215" lon="1.44568">
        <ele>126.40000152588</ele>
        <time>2018-04-28T13:24:42.000Z</time>
      </trkpt>
      <trkpt lat="48.8222" lon="1.44562">
        <ele>126.19999694824</ele>
        <time>2018-04-28T13:24:46.000Z</time>
      </trkpt>
      <trkpt lat="48.82222" lon="1.44556">
        <ele>126.40000152588</ele>
        <time>2018-04-28T13:24:49.000Z</time>
      </trkpt>
      <trkpt lat="48.82224" lon="1.44554">
        <ele>126.40000152588</ele>
        <time>2018-04-28T13:24:51.000Z</time>
      </trkpt>
      <trkpt lat="48.82228" lon="1.44545">
        <ele>126.59999847412</ele>
        <time>2018-04-28T13:24:54.000Z</time>
      </trkpt>
      <trkpt lat="48.8223" lon="1.44541">
        <ele>126.80000305176</ele>
        <time>2018-04-28T13:24:56.000Z</time>
      </trkpt>
      <trkpt lat="48.8223" lon="1.44539">
        <ele>127</ele>
        <time>2018-04-28T13:24:57.000Z</time>
      </trkpt>
      <trkpt lat="48.82233" lon="1.44533">
        <ele>127.19999694824</ele>
        <time>2018-04-28T13:25:00.000Z</time>
      </trkpt>
      <trkpt lat="48.82235" lon="1.44528">
        <ele>127.19999694824</ele>
        <time>2018-04-28T13:25:02.000Z</time>
      </trkpt>
      <trkpt lat="48.82237" lon="1.44524">
        <ele>127.59999847412</ele>
        <time>2018-04-28T13:25:04.000Z</time>
      </trkpt>
      <trkpt lat="48.82241" lon="1.44514">
        <ele>128.19999694824</ele>
        <time>2018-04-28T13:25:09.000Z</time>
      </trkpt>
      <trkpt lat="48.82244" lon="1.44503">
        <ele>129</ele>
        <time>2018-04-28T13:25:13.000Z</time>
      </trkpt>
      <trkpt lat="48.82244" lon="1.44494">
        <ele>129.80000305176</ele>
        <time>2018-04-28T13:25:18.000Z</time>
      </trkpt>
      <trkpt lat="48.82245" lon="1.44492">
        <ele>130</ele>
        <time>2018-04-28T13:25:19.000Z</time>
      </trkpt>
      <trkpt lat="48.82247" lon="1.44479">
        <ele>130.80000305176</ele>
        <time>2018-04-28T13:25:24.000Z</time>
      </trkpt>
      <trkpt lat="48.8225" lon="1.4447">
        <ele>130.80000305176</ele>
        <time>2018-04-28T13:25:28.000Z</time>
      </trkpt>
      <trkpt lat="48.82253" lon="1.44458">
        <ele>130.80000305176</ele>
        <time>2018-04-28T13:25:33.000Z</time>
      </trkpt>
      <trkpt lat="48.82254" lon="1.44455">
        <ele>130.80000305176</ele>
        <time>2018-04-28T13:25:34.000Z</time>
      </trkpt>
      <trkpt lat="48.82254" lon="1.44453">
        <ele>130.80000305176</ele>
        <time>2018-04-28T13:25:35.000Z</time>
      </trkpt>
      <trkpt lat="48.82254" lon="1.44449">
        <ele>130.80000305176</ele>
        <time>2018-04-28T13:25:37.000Z</time>
      </trkpt>
      <trkpt lat="48.82255" lon="1.44442">
        <ele>131</ele>
        <time>2018-04-28T13:25:39.000Z</time>
      </trkpt>
      <trkpt lat="48.82257" lon="1.44438">
        <ele>131</ele>
        <time>2018-04-28T13:25:41.000Z</time>
      </trkpt>
      <trkpt lat="48.82258" lon="1.44432">
        <ele>131</ele>
        <time>2018-04-28T13:25:44.000Z</time>
      </trkpt>
      <trkpt lat="48.82258" lon="1.44431">
        <ele>131</ele>
        <time>2018-04-28T13:25:47.000Z</time>
      </trkpt>
      <trkpt lat="48.8226" lon="1.44428">
        <ele>131</ele>
        <time>2018-04-28T13:25:54.000Z</time>
      </trkpt>
      <trkpt lat="48.82262" lon="1.44422">
        <ele>131</ele>
        <time>2018-04-28T13:25:59.000Z</time>
      </trkpt>
      <trkpt lat="48.82262" lon="1.44421">
        <ele>131</ele>
        <time>2018-04-28T13:26:00.000Z</time>
      </trkpt>
      <trkpt lat="48.82263" lon="1.4442">
        <ele>131</ele>
        <time>2018-04-28T13:26:02.000Z</time>
      </trkpt>
      <trkpt lat="48.82265" lon="1.44417">
        <ele>131</ele>
        <time>2018-04-28T13:26:06.000Z</time>
      </trkpt>
      <trkpt lat="48.82267" lon="1.44408">
        <ele>131</ele>
        <time>2018-04-28T13:26:11.000Z</time>
      </trkpt>
      <trkpt lat="48.82268" lon="1.44404">
        <ele>131.19999694824</ele>
        <time>2018-04-28T13:26:13.000Z</time>
      </trkpt>
      <trkpt lat="48.82269" lon="1.44396">
        <ele>131.19999694824</ele>
        <time>2018-04-28T13:26:16.000Z</time>
      </trkpt>
      <trkpt lat="48.8227" lon="1.44389">
        <ele>131.19999694824</ele>
        <time>2018-04-28T13:26:19.000Z</time>
      </trkpt>
      <trkpt lat="48.8227" lon="1.44386">
        <ele>131.19999694824</ele>
        <time>2018-04-28T13:26:20.000Z</time>
      </trkpt>
      <trkpt lat="48.82271" lon="1.44378">
        <ele>131.19999694824</ele>
        <time>2018-04-28T13:26:23.000Z</time>
      </trkpt>
      <trkpt lat="48.82271" lon="1.44377">
        <ele>131.39999389648</ele>
        <time>2018-04-28T13:26:24.000Z</time>
      </trkpt>
      <trkpt lat="48.8227" lon="1.44375">
        <ele>131.39999389648</ele>
        <time>2018-04-28T13:26:25.000Z</time>
      </trkpt>
      <trkpt lat="48.8227" lon="1.4437">
        <ele>131.39999389648</ele>
        <time>2018-04-28T13:26:28.000Z</time>
      </trkpt>
      <trkpt lat="48.8227" lon="1.44368">
        <ele>131.39999389648</ele>
        <time>2018-04-28T13:26:29.000Z</time>
      </trkpt>
      <trkpt lat="48.82271" lon="1.44357">
        <ele>131.60000610352</ele>
        <time>2018-04-28T13:26:34.000Z</time>
      </trkpt>
      <trkpt lat="48.82271" lon="1.44345">
        <ele>131.60000610352</ele>
        <time>2018-04-28T13:26:39.000Z</time>
      </trkpt>
      <trkpt lat="48.82273" lon="1.44338">
        <ele>131.60000610352</ele>
        <time>2018-04-28T13:26:42.000Z</time>
      </trkpt>
      <trkpt lat="48.82274" lon="1.44335">
        <ele>131.60000610352</ele>
        <time>2018-04-28T13:26:43.000Z</time>
      </trkpt>
      <trkpt lat="48.82275" lon="1.44327">
        <ele>131.80000305176</ele>
        <time>2018-04-28T13:26:46.000Z</time>
      </trkpt>
      <trkpt lat="48.82274" lon="1.44325">
        <ele>131.80000305176</ele>
        <time>2018-04-28T13:26:47.000Z</time>
      </trkpt>
      <trkpt lat="48.82275" lon="1.44315">
        <ele>132</ele>
        <time>2018-04-28T13:26:52.000Z</time>
      </trkpt>
      <trkpt lat="48.82275" lon="1.4431">
        <ele>132.19999694824</ele>
        <time>2018-04-28T13:26:54.000Z</time>
      </trkpt>
      <trkpt lat="48.82276" lon="1.44299">
        <ele>132.60000610352</ele>
        <time>2018-04-28T13:26:58.000Z</time>
      </trkpt>
      <trkpt lat="48.82277" lon="1.44294">
        <ele>132.80000305176</ele>
        <time>2018-04-28T13:27:00.000Z</time>
      </trkpt>
      <trkpt lat="48.82278" lon="1.44287">
        <ele>133</ele>
        <time>2018-04-28T13:27:03.000Z</time>
      </trkpt>
      <trkpt lat="48.8228" lon="1.44282">
        <ele>133.19999694824</ele>
        <time>2018-04-28T13:27:05.000Z</time>
      </trkpt>
      <trkpt lat="48.8228" lon="1.44276">
        <ele>133.39999389648</ele>
        <time>2018-04-28T13:27:08.000Z</time>
      </trkpt>
      <trkpt lat="48.82279" lon="1.44272">
        <ele>133.39999389648</ele>
        <time>2018-04-28T13:27:10.000Z</time>
      </trkpt>
      <trkpt lat="48.82279" lon="1.44262">
        <ele>133.80000305176</ele>
        <time>2018-04-28T13:27:14.000Z</time>
      </trkpt>
      <trkpt lat="48.82281" lon="1.44258">
        <ele>134</ele>
        <time>2018-04-28T13:27:16.000Z</time>
      </trkpt>
      <trkpt lat="48.82281" lon="1.44254">
        <ele>134.19999694824</ele>
        <time>2018-04-28T13:27:18.000Z</time>
      </trkpt>
      <trkpt lat="48.82283" lon="1.44245">
        <ele>134.39999389648</ele>
        <time>2018-04-28T13:27:21.000Z</time>
      </trkpt>
      <trkpt lat="48.82284" lon="1.44233">
        <ele>134.80000305176</ele>
        <time>2018-04-28T13:27:26.000Z</time>
      </trkpt>
      <trkpt lat="48.82284" lon="1.44227">
        <ele>134.80000305176</ele>
        <time>2018-04-28T13:27:29.000Z</time>
      </trkpt>
      <trkpt lat="48.82285" lon="1.44225">
        <ele>134.80000305176</ele>
        <time>2018-04-28T13:27:31.000Z</time>
      </trkpt>
      <trkpt lat="48.82285" lon="1.44223">
        <ele>135</ele>
        <time>2018-04-28T13:27:32.000Z</time>
      </trkpt>
      <trkpt lat="48.82286" lon="1.44217">
        <ele>135</ele>
        <time>2018-04-28T13:27:35.000Z</time>
      </trkpt>
      <trkpt lat="48.82288" lon="1.4421">
        <ele>135.19999694824</ele>
        <time>2018-04-28T13:27:37.000Z</time>
      </trkpt>
      <trkpt lat="48.82289" lon="1.44203">
        <ele>135.19999694824</ele>
        <time>2018-04-28T13:27:39.000Z</time>
      </trkpt>
      <trkpt lat="48.82287" lon="1.44193">
        <ele>135.60000610352</ele>
        <time>2018-04-28T13:27:43.000Z</time>
      </trkpt>
      <trkpt lat="48.82287" lon="1.44187">
        <ele>135.80000305176</ele>
        <time>2018-04-28T13:27:46.000Z</time>
      </trkpt>
      <trkpt lat="48.82288" lon="1.44178">
        <ele>136</ele>
        <time>2018-04-28T13:27:49.000Z</time>
      </trkpt>
      <trkpt lat="48.82289" lon="1.44172">
        <ele>136</ele>
        <time>2018-04-28T13:27:52.000Z</time>
      </trkpt>
      <trkpt lat="48.82289" lon="1.44169">
        <ele>136.19999694824</ele>
        <time>2018-04-28T13:27:53.000Z</time>
      </trkpt>
      <trkpt lat="48.82291" lon="1.44166">
        <ele>136.19999694824</ele>
        <time>2018-04-28T13:27:54.000Z</time>
      </trkpt>
      <trkpt lat="48.82292" lon="1.44159">
        <ele>136.19999694824</ele>
        <time>2018-04-28T13:27:57.000Z</time>
      </trkpt>
      <trkpt lat="48.82293" lon="1.4415">
        <ele>136.39999389648</ele>
        <time>2018-04-28T13:28:01.000Z</time>
      </trkpt>
      <trkpt lat="48.82294" lon="1.44141">
        <ele>136.39999389648</ele>
        <time>2018-04-28T13:28:05.000Z</time>
      </trkpt>
      <trkpt lat="48.82295" lon="1.44135">
        <ele>136.19999694824</ele>
        <time>2018-04-28T13:28:08.000Z</time>
      </trkpt>
      <trkpt lat="48.82295" lon="1.44133">
        <ele>136.19999694824</ele>
        <time>2018-04-28T13:28:09.000Z</time>
      </trkpt>
      <trkpt lat="48.82297" lon="1.44123">
        <ele>136</ele>
        <time>2018-04-28T13:28:13.000Z</time>
      </trkpt>
      <trkpt lat="48.82297" lon="1.44121">
        <ele>136</ele>
        <time>2018-04-28T13:28:14.000Z</time>
      </trkpt>
      <trkpt lat="48.82298" lon="1.44114">
        <ele>136</ele>
        <time>2018-04-28T13:28:17.000Z</time>
      </trkpt>
      <trkpt lat="48.82299" lon="1.44108">
        <ele>135.80000305176</ele>
        <time>2018-04-28T13:28:19.000Z</time>
      </trkpt>
      <trkpt lat="48.82301" lon="1.44098">
        <ele>135.80000305176</ele>
        <time>2018-04-28T13:28:23.000Z</time>
      </trkpt>
      <trkpt lat="48.82302" lon="1.44094">
        <ele>135.60000610352</ele>
        <time>2018-04-28T13:28:25.000Z</time>
      </trkpt>
      <trkpt lat="48.82303" lon="1.44089">
        <ele>135.60000610352</ele>
        <time>2018-04-28T13:28:27.000Z</time>
      </trkpt>
      <trkpt lat="48.82303" lon="1.44087">
        <ele>135.39999389648</ele>
        <time>2018-04-28T13:28:28.000Z</time>
      </trkpt>
      <trkpt lat="48.82305" lon="1.44073">
        <ele>135.19999694824</ele>
        <time>2018-04-28T13:28:32.000Z</time>
      </trkpt>
      <trkpt lat="48.82306" lon="1.4406">
        <ele>135.39999389648</ele>
        <time>2018-04-28T13:28:37.000Z</time>
      </trkpt>
      <trkpt lat="48.82306" lon="1.44055">
        <ele>135.60000610352</ele>
        <time>2018-04-28T13:28:39.000Z</time>
      </trkpt>
      <trkpt lat="48.82304" lon="1.44052">
        <ele>135.80000305176</ele>
        <time>2018-04-28T13:28:41.000Z</time>
      </trkpt>
      <trkpt lat="48.82304" lon="1.4404">
        <ele>136.39999389648</ele>
        <time>2018-04-28T13:28:46.000Z</time>
      </trkpt>
      <trkpt lat="48.82306" lon="1.44031">
        <ele>136.80000305176</ele>
        <time>2018-04-28T13:28:50.000Z</time>
      </trkpt>
      <trkpt lat="48.82309" lon="1.44019">
        <ele>137.39999389648</ele>
        <time>2018-04-28T13:28:55.000Z</time>
      </trkpt>
      <trkpt lat="48.82312" lon="1.44007">
        <ele>137.39999389648</ele>
        <time>2018-04-28T13:29:00.000Z</time>
      </trkpt>
      <trkpt lat="48.82313" lon="1.44002">
        <ele>137.60000610352</ele>
        <time>2018-04-28T13:29:02.000Z</time>
      </trkpt>
      <trkpt lat="48.82314" lon="1.43997">
        <ele>137.60000610352</ele>
        <time>2018-04-28T13:29:04.000Z</time>
      </trkpt>
      <trkpt lat="48.82315" lon="1.43995">
        <ele>137.60000610352</ele>
        <time>2018-04-28T13:29:05.000Z</time>
      </trkpt>
      <trkpt lat="48.82315" lon="1.43994">
        <ele>137.60000610352</ele>
        <time>2018-04-28T13:29:06.000Z</time>
      </trkpt>
      <trkpt lat="48.82316" lon="1.43986">
        <ele>137.80000305176</ele>
        <time>2018-04-28T13:29:09.000Z</time>
      </trkpt>
      <trkpt lat="48.82317" lon="1.43982">
        <ele>137.80000305176</ele>
        <time>2018-04-28T13:29:11.000Z</time>
      </trkpt>
      <trkpt lat="48.82319" lon="1.43974">
        <ele>137.80000305176</ele>
        <time>2018-04-28T13:29:13.000Z</time>
      </trkpt>
      <trkpt lat="48.82322" lon="1.4396">
        <ele>137.60000610352</ele>
        <time>2018-04-28T13:29:17.000Z</time>
      </trkpt>
      <trkpt lat="48.82321" lon="1.43959">
        <ele>137.60000610352</ele>
        <time>2018-04-28T13:29:18.000Z</time>
      </trkpt>
      <trkpt lat="48.8232" lon="1.43952">
        <ele>137.80000305176</ele>
        <time>2018-04-28T13:29:21.000Z</time>
      </trkpt>
      <trkpt lat="48.82319" lon="1.43946">
        <ele>137.80000305176</ele>
        <time>2018-04-28T13:29:24.000Z</time>
      </trkpt>
      <trkpt lat="48.82321" lon="1.43943">
        <ele>137.80000305176</ele>
        <time>2018-04-28T13:29:25.000Z</time>
      </trkpt>
      <trkpt lat="48.82324" lon="1.43932">
        <ele>138</ele>
        <time>2018-04-28T13:29:29.000Z</time>
      </trkpt>
      <trkpt lat="48.82325" lon="1.43929">
        <ele>138</ele>
        <time>2018-04-28T13:29:30.000Z</time>
      </trkpt>
      <trkpt lat="48.82327" lon="1.43921">
        <ele>138.19999694824</ele>
        <time>2018-04-28T13:29:33.000Z</time>
      </trkpt>
      <trkpt lat="48.82328" lon="1.43911">
        <ele>138.39999389648</ele>
        <time>2018-04-28T13:29:37.000Z</time>
      </trkpt>
      <trkpt lat="48.82329" lon="1.43909">
        <ele>138.39999389648</ele>
        <time>2018-04-28T13:29:38.000Z</time>
      </trkpt>
      <trkpt lat="48.8233" lon="1.43902">
        <ele>138.60000610352</ele>
        <time>2018-04-28T13:29:41.000Z</time>
      </trkpt>
      <trkpt lat="48.82331" lon="1.43899">
        <ele>138.60000610352</ele>
        <time>2018-04-28T13:29:42.000Z</time>
      </trkpt>
      <trkpt lat="48.82331" lon="1.43889">
        <ele>138.80000305176</ele>
        <time>2018-04-28T13:29:45.000Z</time>
      </trkpt>
      <trkpt lat="48.82331" lon="1.43882">
        <ele>139</ele>
        <time>2018-04-28T13:29:48.000Z</time>
      </trkpt>
      <trkpt lat="48.82329" lon="1.43874">
        <ele>139.19999694824</ele>
        <time>2018-04-28T13:29:52.000Z</time>
      </trkpt>
      <trkpt lat="48.82329" lon="1.43872">
        <ele>139.19999694824</ele>
        <time>2018-04-28T13:29:53.000Z</time>
      </trkpt>
      <trkpt lat="48.82329" lon="1.43865">
        <ele>139.60000610352</ele>
        <time>2018-04-28T13:29:56.000Z</time>
      </trkpt>
      <trkpt lat="48.8233" lon="1.43863">
        <ele>139.60000610352</ele>
        <time>2018-04-28T13:29:57.000Z</time>
      </trkpt>
      <trkpt lat="48.8233" lon="1.43858">
        <ele>139.80000305176</ele>
        <time>2018-04-28T13:30:00.000Z</time>
      </trkpt>
      <trkpt lat="48.82332" lon="1.43849">
        <ele>140</ele>
        <time>2018-04-28T13:30:04.000Z</time>
      </trkpt>
      <trkpt lat="48.82334" lon="1.43837">
        <ele>140.39999389648</ele>
        <time>2018-04-28T13:30:08.000Z</time>
      </trkpt>
      <trkpt lat="48.82334" lon="1.43834">
        <ele>140.60000610352</ele>
        <time>2018-04-28T13:30:09.000Z</time>
      </trkpt>
      <trkpt lat="48.82336" lon="1.43825">
        <ele>140.80000305176</ele>
        <time>2018-04-28T13:30:13.000Z</time>
      </trkpt>
      <trkpt lat="48.82336" lon="1.43814">
        <ele>141.19999694824</ele>
        <time>2018-04-28T13:30:18.000Z</time>
      </trkpt>
      <trkpt lat="48.82337" lon="1.43809">
        <ele>141.19999694824</ele>
        <time>2018-04-28T13:30:20.000Z</time>
      </trkpt>
      <trkpt lat="48.8234" lon="1.43802">
        <ele>141</ele>
        <time>2018-04-28T13:30:23.000Z</time>
      </trkpt>
      <trkpt lat="48.82341" lon="1.43798">
        <ele>141</ele>
        <time>2018-04-28T13:30:25.000Z</time>
      </trkpt>
      <trkpt lat="48.82343" lon="1.4379">
        <ele>141.19999694824</ele>
        <time>2018-04-28T13:30:29.000Z</time>
      </trkpt>
      <trkpt lat="48.82345" lon="1.43785">
        <ele>141.19999694824</ele>
        <time>2018-04-28T13:30:31.000Z</time>
      </trkpt>
      <trkpt lat="48.82346" lon="1.43781">
        <ele>141.39999389648</ele>
        <time>2018-04-28T13:30:32.000Z</time>
      </trkpt>
      <trkpt lat="48.82347" lon="1.43777">
        <ele>141.39999389648</ele>
        <time>2018-04-28T13:30:33.000Z</time>
      </trkpt>
      <trkpt lat="48.82348" lon="1.43774">
        <ele>141.39999389648</ele>
        <time>2018-04-28T13:30:34.000Z</time>
      </trkpt>
      <trkpt lat="48.8235" lon="1.43766">
        <ele>141.60000610352</ele>
        <time>2018-04-28T13:30:38.000Z</time>
      </trkpt>
      <trkpt lat="48.82352" lon="1.43752">
        <ele>141.80000305176</ele>
        <time>2018-04-28T13:30:44.000Z</time>
      </trkpt>
      <trkpt lat="48.82356" lon="1.43743">
        <ele>141.80000305176</ele>
        <time>2018-04-28T13:30:47.000Z</time>
      </trkpt>
      <trkpt lat="48.82355" lon="1.43727">
        <ele>142</ele>
        <time>2018-04-28T13:30:52.000Z</time>
      </trkpt>
      <trkpt lat="48.82355" lon="1.43718">
        <ele>142</ele>
        <time>2018-04-28T13:30:56.000Z</time>
      </trkpt>
      <trkpt lat="48.82356" lon="1.43709">
        <ele>142</ele>
        <time>2018-04-28T13:31:01.000Z</time>
      </trkpt>
      <trkpt lat="48.82356" lon="1.43707">
        <ele>142</ele>
        <time>2018-04-28T13:31:02.000Z</time>
      </trkpt>
      <trkpt lat="48.82358" lon="1.43698">
        <ele>142</ele>
        <time>2018-04-28T13:31:06.000Z</time>
      </trkpt>
      <trkpt lat="48.82357" lon="1.43688">
        <ele>142</ele>
        <time>2018-04-28T13:31:11.000Z</time>
      </trkpt>
      <trkpt lat="48.82357" lon="1.4368">
        <ele>142</ele>
        <time>2018-04-28T13:31:15.000Z</time>
      </trkpt>
      <trkpt lat="48.82357" lon="1.43678">
        <ele>142</ele>
        <time>2018-04-28T13:31:16.000Z</time>
      </trkpt>
      <trkpt lat="48.82356" lon="1.43676">
        <ele>142</ele>
        <time>2018-04-28T13:31:17.000Z</time>
      </trkpt>
      <trkpt lat="48.82356" lon="1.43673">
        <ele>142</ele>
        <time>2018-04-28T13:31:18.000Z</time>
      </trkpt>
      <trkpt lat="48.82357" lon="1.43667">
        <ele>142</ele>
        <time>2018-04-28T13:31:22.000Z</time>
      </trkpt>
      <trkpt lat="48.82357" lon="1.43665">
        <ele>142</ele>
        <time>2018-04-28T13:31:23.000Z</time>
      </trkpt>
      <trkpt lat="48.82356" lon="1.43664">
        <ele>142</ele>
        <time>2018-04-28T13:31:24.000Z</time>
      </trkpt>
      <trkpt lat="48.82356" lon="1.43659">
        <ele>142</ele>
        <time>2018-04-28T13:31:26.000Z</time>
      </trkpt>
      <trkpt lat="48.82359" lon="1.43644">
        <ele>141.80000305176</ele>
        <time>2018-04-28T13:31:32.000Z</time>
      </trkpt>
      <trkpt lat="48.8236" lon="1.43632">
        <ele>141.80000305176</ele>
        <time>2018-04-28T13:31:36.000Z</time>
      </trkpt>
      <trkpt lat="48.82361" lon="1.4363">
        <ele>141.60000610352</ele>
        <time>2018-04-28T13:31:37.000Z</time>
      </trkpt>
      <trkpt lat="48.82358" lon="1.43622">
        <ele>141.60000610352</ele>
        <time>2018-04-28T13:31:40.000Z</time>
      </trkpt>
      <trkpt lat="48.82356" lon="1.4362">
        <ele>141.60000610352</ele>
        <time>2018-04-28T13:31:41.000Z</time>
      </trkpt>
      <trkpt lat="48.82356" lon="1.43616">
        <ele>141.60000610352</ele>
        <time>2018-04-28T13:31:44.000Z</time>
      </trkpt>
      <trkpt lat="48.82356" lon="1.43614">
        <ele>141.60000610352</ele>
        <time>2018-04-28T13:31:45.000Z</time>
      </trkpt>
      <trkpt lat="48.82357" lon="1.43606">
        <ele>141.39999389648</ele>
        <time>2018-04-28T13:31:49.000Z</time>
      </trkpt>
      <trkpt lat="48.82357" lon="1.43602">
        <ele>141.39999389648</ele>
        <time>2018-04-28T13:31:50.000Z</time>
      </trkpt>
      <trkpt lat="48.82359" lon="1.43591">
        <ele>141.19999694824</ele>
        <time>2018-04-28T13:31:54.000Z</time>
      </trkpt>
      <trkpt lat="48.82361" lon="1.43579">
        <ele>141</ele>
        <time>2018-04-28T13:31:58.000Z</time>
      </trkpt>
      <trkpt lat="48.82361" lon="1.43576">
        <ele>141</ele>
        <time>2018-04-28T13:31:59.000Z</time>
      </trkpt>
      <trkpt lat="48.82363" lon="1.43566">
        <ele>141</ele>
        <time>2018-04-28T13:32:03.000Z</time>
      </trkpt>
      <trkpt lat="48.82364" lon="1.43557">
        <ele>141.19999694824</ele>
        <time>2018-04-28T13:32:07.000Z</time>
      </trkpt>
      <trkpt lat="48.82365" lon="1.43546">
        <ele>141.19999694824</ele>
        <time>2018-04-28T13:32:11.000Z</time>
      </trkpt>
      <trkpt lat="48.82367" lon="1.43534">
        <ele>141.39999389648</ele>
        <time>2018-04-28T13:32:15.000Z</time>
      </trkpt>
      <trkpt lat="48.82368" lon="1.43531">
        <ele>141.39999389648</ele>
        <time>2018-04-28T13:32:16.000Z</time>
      </trkpt>
      <trkpt lat="48.82368" lon="1.43519">
        <ele>141.60000610352</ele>
        <time>2018-04-28T13:32:20.000Z</time>
      </trkpt>
      <trkpt lat="48.82371" lon="1.43507">
        <ele>141.60000610352</ele>
        <time>2018-04-28T13:32:25.000Z</time>
      </trkpt>
      <trkpt lat="48.82372" lon="1.43504">
        <ele>141.80000305176</ele>
        <time>2018-04-28T13:32:26.000Z</time>
      </trkpt>
      <trkpt lat="48.82373" lon="1.43493">
        <ele>141.80000305176</ele>
        <time>2018-04-28T13:32:30.000Z</time>
      </trkpt>
      <trkpt lat="48.82373" lon="1.43488">
        <ele>141.60000610352</ele>
        <time>2018-04-28T13:32:33.000Z</time>
      </trkpt>
      <trkpt lat="48.82372" lon="1.4348">
        <ele>141.60000610352</ele>
        <time>2018-04-28T13:32:36.000Z</time>
      </trkpt>
      <trkpt lat="48.82373" lon="1.43477">
        <ele>141.39999389648</ele>
        <time>2018-04-28T13:32:37.000Z</time>
      </trkpt>
      <trkpt lat="48.82377" lon="1.43469">
        <ele>141</ele>
        <time>2018-04-28T13:32:40.000Z</time>
      </trkpt>
      <trkpt lat="48.82379" lon="1.43462">
        <ele>140.60000610352</ele>
        <time>2018-04-28T13:32:43.000Z</time>
      </trkpt>
      <trkpt lat="48.8238" lon="1.43459">
        <ele>140.60000610352</ele>
        <time>2018-04-28T13:32:44.000Z</time>
      </trkpt>
      <trkpt lat="48.82381" lon="1.4345">
        <ele>140.19999694824</ele>
        <time>2018-04-28T13:32:48.000Z</time>
      </trkpt>
      <trkpt lat="48.82382" lon="1.43436">
        <ele>139.60000610352</ele>
        <time>2018-04-28T13:32:54.000Z</time>
      </trkpt>
      <trkpt lat="48.82382" lon="1.43425">
        <ele>139.39999389648</ele>
        <time>2018-04-28T13:32:59.000Z</time>
      </trkpt>
      <trkpt lat="48.82383" lon="1.43419">
        <ele>139.39999389648</ele>
        <time>2018-04-28T13:33:02.000Z</time>
      </trkpt>
      <trkpt lat="48.82384" lon="1.43412">
        <ele>139.39999389648</ele>
        <time>2018-04-28T13:33:04.000Z</time>
      </trkpt>
      <trkpt lat="48.82386" lon="1.434">
        <ele>139.39999389648</ele>
        <time>2018-04-28T13:33:08.000Z</time>
      </trkpt>
      <trkpt lat="48.82388" lon="1.4339">
        <ele>139.19999694824</ele>
        <time>2018-04-28T13:33:12.000Z</time>
      </trkpt>
      <trkpt lat="48.82392" lon="1.43375">
        <ele>139.19999694824</ele>
        <time>2018-04-28T13:33:18.000Z</time>
      </trkpt>
      <trkpt lat="48.82394" lon="1.43367">
        <ele>139</ele>
        <time>2018-04-28T13:33:21.000Z</time>
      </trkpt>
      <trkpt lat="48.82394" lon="1.43366">
        <ele>139</ele>
        <time>2018-04-28T13:33:22.000Z</time>
      </trkpt>
      <trkpt lat="48.82396" lon="1.43359">
        <ele>139</ele>
        <time>2018-04-28T13:33:25.000Z</time>
      </trkpt>
      <trkpt lat="48.82397" lon="1.43356">
        <ele>139</ele>
        <time>2018-04-28T13:33:26.000Z</time>
      </trkpt>
      <trkpt lat="48.82396" lon="1.43355">
        <ele>139</ele>
        <time>2018-04-28T13:33:27.000Z</time>
      </trkpt>
      <trkpt lat="48.82396" lon="1.43348">
        <ele>138.80000305176</ele>
        <time>2018-04-28T13:33:30.000Z</time>
      </trkpt>
      <trkpt lat="48.82398" lon="1.4334">
        <ele>138.80000305176</ele>
        <time>2018-04-28T13:33:33.000Z</time>
      </trkpt>
      <trkpt lat="48.82399" lon="1.4333">
        <ele>138.60000610352</ele>
        <time>2018-04-28T13:33:37.000Z</time>
      </trkpt>
      <trkpt lat="48.82399" lon="1.43319">
        <ele>138.60000610352</ele>
        <time>2018-04-28T13:33:42.000Z</time>
      </trkpt>
      <trkpt lat="48.824" lon="1.4331">
        <ele>138.39999389648</ele>
        <time>2018-04-28T13:33:46.000Z</time>
      </trkpt>
      <trkpt lat="48.82401" lon="1.43298">
        <ele>138.39999389648</ele>
        <time>2018-04-28T13:33:51.000Z</time>
      </trkpt>
      <trkpt lat="48.82401" lon="1.43296">
        <ele>138.39999389648</ele>
        <time>2018-04-28T13:33:52.000Z</time>
      </trkpt>
      <trkpt lat="48.82403" lon="1.43286">
        <ele>138.19999694824</ele>
        <time>2018-04-28T13:33:56.000Z</time>
      </trkpt>
      <trkpt lat="48.82405" lon="1.43277">
        <ele>138</ele>
        <time>2018-04-28T13:33:59.000Z</time>
      </trkpt>
      <trkpt lat="48.82406" lon="1.43271">
        <ele>138</ele>
        <time>2018-04-28T13:34:01.000Z</time>
      </trkpt>
      <trkpt lat="48.82408" lon="1.43264">
        <ele>137.80000305176</ele>
        <time>2018-04-28T13:34:04.000Z</time>
      </trkpt>
      <trkpt lat="48.8241" lon="1.43259">
        <ele>137.60000610352</ele>
        <time>2018-04-28T13:34:05.000Z</time>
      </trkpt>
      <trkpt lat="48.82409" lon="1.43256">
        <ele>137.60000610352</ele>
        <time>2018-04-28T13:34:06.000Z</time>
      </trkpt>
      <trkpt lat="48.82409" lon="1.43254">
        <ele>137.60000610352</ele>
        <time>2018-04-28T13:34:07.000Z</time>
      </trkpt>
      <trkpt lat="48.82411" lon="1.43237">
        <ele>137.19999694824</ele>
        <time>2018-04-28T13:34:14.000Z</time>
      </trkpt>
      <trkpt lat="48.82412" lon="1.43232">
        <ele>137</ele>
        <time>2018-04-28T13:34:16.000Z</time>
      </trkpt>
      <trkpt lat="48.82411" lon="1.43227">
        <ele>137</ele>
        <time>2018-04-28T13:34:18.000Z</time>
      </trkpt>
      <trkpt lat="48.82412" lon="1.43222">
        <ele>137</ele>
        <time>2018-04-28T13:34:20.000Z</time>
      </trkpt>
      <trkpt lat="48.82411" lon="1.4322">
        <ele>137</ele>
        <time>2018-04-28T13:34:21.000Z</time>
      </trkpt>
      <trkpt lat="48.82411" lon="1.43218">
        <ele>137</ele>
        <time>2018-04-28T13:34:22.000Z</time>
      </trkpt>
      <trkpt lat="48.82413" lon="1.43206">
        <ele>137</ele>
        <time>2018-04-28T13:34:28.000Z</time>
      </trkpt>
      <trkpt lat="48.82411" lon="1.43196">
        <ele>136.80000305176</ele>
        <time>2018-04-28T13:34:32.000Z</time>
      </trkpt>
      <trkpt lat="48.82412" lon="1.43191">
        <ele>136.39999389648</ele>
        <time>2018-04-28T13:34:35.000Z</time>
      </trkpt>
      <trkpt lat="48.82412" lon="1.4319">
        <ele>136.39999389648</ele>
        <time>2018-04-28T13:34:36.000Z</time>
      </trkpt>
      <trkpt lat="48.82415" lon="1.4318">
        <ele>136</ele>
        <time>2018-04-28T13:34:40.000Z</time>
      </trkpt>
      <trkpt lat="48.82416" lon="1.43173">
        <ele>135.60000610352</ele>
        <time>2018-04-28T13:34:43.000Z</time>
      </trkpt>
      <trkpt lat="48.82417" lon="1.43171">
        <ele>135.60000610352</ele>
        <time>2018-04-28T13:34:44.000Z</time>
      </trkpt>
      <trkpt lat="48.82418" lon="1.43169">
        <ele>135.39999389648</ele>
        <time>2018-04-28T13:34:46.000Z</time>
      </trkpt>
      <trkpt lat="48.8242" lon="1.43167">
        <ele>135.39999389648</ele>
        <time>2018-04-28T13:34:49.000Z</time>
      </trkpt>
      <trkpt lat="48.82424" lon="1.43172">
        <ele>135.39999389648</ele>
        <time>2018-04-28T13:34:58.000Z</time>
      </trkpt>
      <trkpt lat="48.82426" lon="1.43176">
        <ele>135.39999389648</ele>
        <time>2018-04-28T13:35:01.000Z</time>
      </trkpt>
      <trkpt lat="48.82427" lon="1.43177">
        <ele>135.39999389648</ele>
        <time>2018-04-28T13:35:02.000Z</time>
      </trkpt>
      <trkpt lat="48.82431" lon="1.4318">
        <ele>135.39999389648</ele>
        <time>2018-04-28T13:35:05.000Z</time>
      </trkpt>
      <trkpt lat="48.82432" lon="1.4318">
        <ele>135.39999389648</ele>
        <time>2018-04-28T13:35:06.000Z</time>
      </trkpt>
      <trkpt lat="48.82436" lon="1.43182">
        <ele>135.19999694824</ele>
        <time>2018-04-28T13:35:09.000Z</time>
      </trkpt>
      <trkpt lat="48.82438" lon="1.43185">
        <ele>135.39999389648</ele>
        <time>2018-04-28T13:35:11.000Z</time>
      </trkpt>
      <trkpt lat="48.82443" lon="1.4319">
        <ele>135.19999694824</ele>
        <time>2018-04-28T13:35:15.000Z</time>
      </trkpt>
      <trkpt lat="48.82444" lon="1.43191">
        <ele>135</ele>
        <time>2018-04-28T13:35:16.000Z</time>
      </trkpt>
      <trkpt lat="48.8245" lon="1.43197">
        <ele>134.80000305176</ele>
        <time>2018-04-28T13:35:21.000Z</time>
      </trkpt>
      <trkpt lat="48.82452" lon="1.432">
        <ele>134.80000305176</ele>
        <time>2018-04-28T13:35:24.000Z</time>
      </trkpt>
      <trkpt lat="48.82455" lon="1.43204">
        <ele>134.60000610352</ele>
        <time>2018-04-28T13:35:27.000Z</time>
      </trkpt>
      <trkpt lat="48.82457" lon="1.43205">
        <ele>134.60000610352</ele>
        <time>2018-04-28T13:35:29.000Z</time>
      </trkpt>
      <trkpt lat="48.82459" lon="1.43208">
        <ele>134.39999389648</ele>
        <time>2018-04-28T13:35:31.000Z</time>
      </trkpt>
      <trkpt lat="48.82465" lon="1.43215">
        <ele>134.19999694824</ele>
        <time>2018-04-28T13:35:36.000Z</time>
      </trkpt>
      <trkpt lat="48.8247" lon="1.43223">
        <ele>134</ele>
        <time>2018-04-28T13:35:42.000Z</time>
      </trkpt>
      <trkpt lat="48.82476" lon="1.43228">
        <ele>133.80000305176</ele>
        <time>2018-04-28T13:35:46.000Z</time>
      </trkpt>
      <trkpt lat="48.82481" lon="1.43233">
        <ele>133.60000610352</ele>
        <time>2018-04-28T13:35:50.000Z</time>
      </trkpt>
      <trkpt lat="48.82481" lon="1.43236">
        <ele>133.80000305176</ele>
        <time>2018-04-28T13:35:51.000Z</time>
      </trkpt>
      <trkpt lat="48.82483" lon="1.43241">
        <ele>133.80000305176</ele>
        <time>2018-04-28T13:35:54.000Z</time>
      </trkpt>
      <trkpt lat="48.82488" lon="1.43246">
        <ele>133.80000305176</ele>
        <time>2018-04-28T13:35:58.000Z</time>
      </trkpt>
      <trkpt lat="48.82491" lon="1.4325">
        <ele>133.60000610352</ele>
        <time>2018-04-28T13:36:01.000Z</time>
      </trkpt>
      <trkpt lat="48.82496" lon="1.43257">
        <ele>133.80000305176</ele>
        <time>2018-04-28T13:36:05.000Z</time>
      </trkpt>
      <trkpt lat="48.82496" lon="1.4326">
        <ele>133.80000305176</ele>
        <time>2018-04-28T13:36:06.000Z</time>
      </trkpt>
      <trkpt lat="48.825" lon="1.43266">
        <ele>133.80000305176</ele>
        <time>2018-04-28T13:36:09.000Z</time>
      </trkpt>
      <trkpt lat="48.82505" lon="1.43273">
        <ele>134</ele>
        <time>2018-04-28T13:36:13.000Z</time>
      </trkpt>
      <trkpt lat="48.82507" lon="1.43277">
        <ele>134</ele>
        <time>2018-04-28T13:36:15.000Z</time>
      </trkpt>
      <trkpt lat="48.82508" lon="1.43278">
        <ele>134</ele>
        <time>2018-04-28T13:36:16.000Z</time>
      </trkpt>
      <trkpt lat="48.82511" lon="1.43281">
        <ele>133.80000305176</ele>
        <time>2018-04-28T13:36:18.000Z</time>
      </trkpt>
      <trkpt lat="48.82514" lon="1.43285">
        <ele>133.80000305176</ele>
        <time>2018-04-28T13:36:23.000Z</time>
      </trkpt>
      <trkpt lat="48.82521" lon="1.43291">
        <ele>133.60000610352</ele>
        <time>2018-04-28T13:36:28.000Z</time>
      </trkpt>
      <trkpt lat="48.82524" lon="1.43295">
        <ele>133.60000610352</ele>
        <time>2018-04-28T13:36:30.000Z</time>
      </trkpt>
      <trkpt lat="48.82528" lon="1.43302">
        <ele>133.60000610352</ele>
        <time>2018-04-28T13:36:34.000Z</time>
      </trkpt>
      <trkpt lat="48.82535" lon="1.43313">
        <ele>133.60000610352</ele>
        <time>2018-04-28T13:36:40.000Z</time>
      </trkpt>
      <trkpt lat="48.82535" lon="1.43314">
        <ele>133.60000610352</ele>
        <time>2018-04-28T13:36:41.000Z</time>
      </trkpt>
      <trkpt lat="48.8254" lon="1.43321">
        <ele>133.80000305176</ele>
        <time>2018-04-28T13:36:45.000Z</time>
      </trkpt>
      <trkpt lat="48.82546" lon="1.43329">
        <ele>133.80000305176</ele>
        <time>2018-04-28T13:36:50.000Z</time>
      </trkpt>
      <trkpt lat="48.82547" lon="1.4333">
        <ele>133.80000305176</ele>
        <time>2018-04-28T13:36:51.000Z</time>
      </trkpt>
      <trkpt lat="48.82553" lon="1.43335">
        <ele>133.60000610352</ele>
        <time>2018-04-28T13:36:55.000Z</time>
      </trkpt>
      <trkpt lat="48.82555" lon="1.43336">
        <ele>133.60000610352</ele>
        <time>2018-04-28T13:36:56.000Z</time>
      </trkpt>
      <trkpt lat="48.8256" lon="1.43342">
        <ele>133.60000610352</ele>
        <time>2018-04-28T13:37:00.000Z</time>
      </trkpt>
      <trkpt lat="48.82561" lon="1.43344">
        <ele>133.60000610352</ele>
        <time>2018-04-28T13:37:01.000Z</time>
      </trkpt>
      <trkpt lat="48.82569" lon="1.43353">
        <ele>133.60000610352</ele>
        <time>2018-04-28T13:37:07.000Z</time>
      </trkpt>
      <trkpt lat="48.82574" lon="1.43363">
        <ele>134</ele>
        <time>2018-04-28T13:37:12.000Z</time>
      </trkpt>
      <trkpt lat="48.82576" lon="1.43366">
        <ele>134</ele>
        <time>2018-04-28T13:37:14.000Z</time>
      </trkpt>
      <trkpt lat="48.8258" lon="1.4337">
        <ele>134</ele>
        <time>2018-04-28T13:37:16.000Z</time>
      </trkpt>
      <trkpt lat="48.8258" lon="1.43372">
        <ele>134.19999694824</ele>
        <time>2018-04-28T13:37:17.000Z</time>
      </trkpt>
      <trkpt lat="48.82585" lon="1.43378">
        <ele>134.19999694824</ele>
        <time>2018-04-28T13:37:21.000Z</time>
      </trkpt>
      <trkpt lat="48.82589" lon="1.43386">
        <ele>134.19999694824</ele>
        <time>2018-04-28T13:37:25.000Z</time>
      </trkpt>
      <trkpt lat="48.82593" lon="1.43393">
        <ele>134.39999389648</ele>
        <time>2018-04-28T13:37:29.000Z</time>
      </trkpt>
      <trkpt lat="48.82601" lon="1.43401">
        <ele>134.19999694824</ele>
        <time>2018-04-28T13:37:34.000Z</time>
      </trkpt>
      <trkpt lat="48.82607" lon="1.43406">
        <ele>134</ele>
        <time>2018-04-28T13:37:38.000Z</time>
      </trkpt>
      <trkpt lat="48.82608" lon="1.43407">
        <ele>134</ele>
        <time>2018-04-28T13:37:39.000Z</time>
      </trkpt>
      <trkpt lat="48.82614" lon="1.43416">
        <ele>133.80000305176</ele>
        <time>2018-04-28T13:37:43.000Z</time>
      </trkpt>
      <trkpt lat="48.82618" lon="1.43419">
        <ele>133.80000305176</ele>
        <time>2018-04-28T13:37:45.000Z</time>
      </trkpt>
      <trkpt lat="48.82622" lon="1.43422">
        <ele>133.60000610352</ele>
        <time>2018-04-28T13:37:47.000Z</time>
      </trkpt>
      <trkpt lat="48.82628" lon="1.43429">
        <ele>133.39999389648</ele>
        <time>2018-04-28T13:37:51.000Z</time>
      </trkpt>
      <trkpt lat="48.82632" lon="1.43435">
        <ele>133.19999694824</ele>
        <time>2018-04-28T13:37:55.000Z</time>
      </trkpt>
      <trkpt lat="48.82637" lon="1.43442">
        <ele>133.19999694824</ele>
        <time>2018-04-28T13:37:59.000Z</time>
      </trkpt>
      <trkpt lat="48.82638" lon="1.43443">
        <ele>133</ele>
        <time>2018-04-28T13:38:00.000Z</time>
      </trkpt>
      <trkpt lat="48.82639" lon="1.43445">
        <ele>133</ele>
        <time>2018-04-28T13:38:01.000Z</time>
      </trkpt>
      <trkpt lat="48.82642" lon="1.4345">
        <ele>133</ele>
        <time>2018-04-28T13:38:05.000Z</time>
      </trkpt>
      <trkpt lat="48.82644" lon="1.43451">
        <ele>133</ele>
        <time>2018-04-28T13:38:06.000Z</time>
      </trkpt>
      <trkpt lat="48.82648" lon="1.43457">
        <ele>132.80000305176</ele>
        <time>2018-04-28T13:38:10.000Z</time>
      </trkpt>
      <trkpt lat="48.82653" lon="1.43465">
        <ele>132.80000305176</ele>
        <time>2018-04-28T13:38:14.000Z</time>
      </trkpt>
      <trkpt lat="48.82653" lon="1.43467">
        <ele>132.80000305176</ele>
        <time>2018-04-28T13:38:15.000Z</time>
      </trkpt>
      <trkpt lat="48.8266" lon="1.43475">
        <ele>132.60000610352</ele>
        <time>2018-04-28T13:38:20.000Z</time>
      </trkpt>
      <trkpt lat="48.82667" lon="1.43484">
        <ele>132.39999389648</ele>
        <time>2018-04-28T13:38:25.000Z</time>
      </trkpt>
      <trkpt lat="48.82669" lon="1.43491">
        <ele>132.19999694824</ele>
        <time>2018-04-28T13:38:30.000Z</time>
      </trkpt>
      <trkpt lat="48.82674" lon="1.43497">
        <ele>132</ele>
        <time>2018-04-28T13:38:34.000Z</time>
      </trkpt>
      <trkpt lat="48.82678" lon="1.43506">
        <ele>132</ele>
        <time>2018-04-28T13:38:39.000Z</time>
      </trkpt>
      <trkpt lat="48.82683" lon="1.43509">
        <ele>131.60000610352</ele>
        <time>2018-04-28T13:38:42.000Z</time>
      </trkpt>
      <trkpt lat="48.82685" lon="1.43514">
        <ele>131.60000610352</ele>
        <time>2018-04-28T13:38:45.000Z</time>
      </trkpt>
      <trkpt lat="48.82689" lon="1.43519">
        <ele>131.39999389648</ele>
        <time>2018-04-28T13:38:48.000Z</time>
      </trkpt>
      <trkpt lat="48.82693" lon="1.43521">
        <ele>131.39999389648</ele>
        <time>2018-04-28T13:38:50.000Z</time>
      </trkpt>
      <trkpt lat="48.82698" lon="1.43528">
        <ele>131.19999694824</ele>
        <time>2018-04-28T13:38:54.000Z</time>
      </trkpt>
      <trkpt lat="48.82704" lon="1.43535">
        <ele>131.19999694824</ele>
        <time>2018-04-28T13:38:59.000Z</time>
      </trkpt>
      <trkpt lat="48.82708" lon="1.43539">
        <ele>131</ele>
        <time>2018-04-28T13:39:02.000Z</time>
      </trkpt>
      <trkpt lat="48.82709" lon="1.43541">
        <ele>131</ele>
        <time>2018-04-28T13:39:03.000Z</time>
      </trkpt>
      <trkpt lat="48.82713" lon="1.43546">
        <ele>130.80000305176</ele>
        <time>2018-04-28T13:39:06.000Z</time>
      </trkpt>
      <trkpt lat="48.82717" lon="1.43553">
        <ele>130.80000305176</ele>
        <time>2018-04-28T13:39:10.000Z</time>
      </trkpt>
      <trkpt lat="48.82718" lon="1.43554">
        <ele>130.80000305176</ele>
        <time>2018-04-28T13:39:11.000Z</time>
      </trkpt>
      <trkpt lat="48.82724" lon="1.43562">
        <ele>130.60000610352</ele>
        <time>2018-04-28T13:39:15.000Z</time>
      </trkpt>
      <trkpt lat="48.82726" lon="1.43563">
        <ele>130.60000610352</ele>
        <time>2018-04-28T13:39:16.000Z</time>
      </trkpt>
      <trkpt lat="48.82733" lon="1.43569">
        <ele>130.39999389648</ele>
        <time>2018-04-28T13:39:20.000Z</time>
      </trkpt>
      <trkpt lat="48.82739" lon="1.43578">
        <ele>130</ele>
        <time>2018-04-28T13:39:25.000Z</time>
      </trkpt>
      <trkpt lat="48.82746" lon="1.43586">
        <ele>129.80000305176</ele>
        <time>2018-04-28T13:39:30.000Z</time>
      </trkpt>
      <trkpt lat="48.82753" lon="1.43594">
        <ele>129.39999389648</ele>
        <time>2018-04-28T13:39:35.000Z</time>
      </trkpt>
      <trkpt lat="48.82757" lon="1.436">
        <ele>129.19999694824</ele>
        <time>2018-04-28T13:39:38.000Z</time>
      </trkpt>
      <trkpt lat="48.82761" lon="1.43606">
        <ele>129</ele>
        <time>2018-04-28T13:39:41.000Z</time>
      </trkpt>
      <trkpt lat="48.82766" lon="1.43612">
        <ele>128.60000610352</ele>
        <time>2018-04-28T13:39:45.000Z</time>
      </trkpt>
      <trkpt lat="48.82769" lon="1.4362">
        <ele>128.39999389648</ele>
        <time>2018-04-28T13:39:49.000Z</time>
      </trkpt>
      <trkpt lat="48.82776" lon="1.43628">
        <ele>128</ele>
        <time>2018-04-28T13:39:54.000Z</time>
      </trkpt>
      <trkpt lat="48.82781" lon="1.43634">
        <ele>127.59999847412</ele>
        <time>2018-04-28T13:39:58.000Z</time>
      </trkpt>
      <trkpt lat="48.82783" lon="1.43637">
        <ele>127.40000152588</ele>
        <time>2018-04-28T13:40:00.000Z</time>
      </trkpt>
      <trkpt lat="48.82787" lon="1.43638">
        <ele>127</ele>
        <time>2018-04-28T13:40:01.000Z</time>
      </trkpt>
      <trkpt lat="48.82789" lon="1.43639">
        <ele>126.80000305176</ele>
        <time>2018-04-28T13:40:03.000Z</time>
      </trkpt>
      <trkpt lat="48.8279" lon="1.43641">
        <ele>126.80000305176</ele>
        <time>2018-04-28T13:40:04.000Z</time>
      </trkpt>
      <trkpt lat="48.82793" lon="1.4365">
        <ele>126.40000152588</ele>
        <time>2018-04-28T13:40:08.000Z</time>
      </trkpt>
      <trkpt lat="48.82794" lon="1.43651">
        <ele>126.40000152588</ele>
        <time>2018-04-28T13:40:09.000Z</time>
      </trkpt>
      <trkpt lat="48.82796" lon="1.43657">
        <ele>126</ele>
        <time>2018-04-28T13:40:12.000Z</time>
      </trkpt>
      <trkpt lat="48.82799" lon="1.43665">
        <ele>125.59999847412</ele>
        <time>2018-04-28T13:40:15.000Z</time>
      </trkpt>
      <trkpt lat="48.828" lon="1.43666">
        <ele>125.59999847412</ele>
        <time>2018-04-28T13:40:16.000Z</time>
      </trkpt>
      <trkpt lat="48.828" lon="1.43668">
        <ele>125.59999847412</ele>
        <time>2018-04-28T13:40:17.000Z</time>
      </trkpt>
      <trkpt lat="48.82801" lon="1.43673">
        <ele>125.40000152588</ele>
        <time>2018-04-28T13:40:21.000Z</time>
      </trkpt>
      <trkpt lat="48.82807" lon="1.4368">
        <ele>124.80000305176</ele>
        <time>2018-04-28T13:40:24.000Z</time>
      </trkpt>
      <trkpt lat="48.82808" lon="1.43683">
        <ele>124.59999847412</ele>
        <time>2018-04-28T13:40:25.000Z</time>
      </trkpt>
      <trkpt lat="48.82816" lon="1.43689">
        <ele>124</ele>
        <time>2018-04-28T13:40:29.000Z</time>
      </trkpt>
      <trkpt lat="48.8282" lon="1.43693">
        <ele>123.40000152588</ele>
        <time>2018-04-28T13:40:31.000Z</time>
      </trkpt>
      <trkpt lat="48.82822" lon="1.43697">
        <ele>123.19999694824</ele>
        <time>2018-04-28T13:40:34.000Z</time>
      </trkpt>
      <trkpt lat="48.82824" lon="1.43702">
        <ele>123</ele>
        <time>2018-04-28T13:40:36.000Z</time>
      </trkpt>
      <trkpt lat="48.8283" lon="1.43705">
        <ele>122.40000152588</ele>
        <time>2018-04-28T13:40:39.000Z</time>
      </trkpt>
      <trkpt lat="48.82832" lon="1.43708">
        <ele>122.19999694824</ele>
        <time>2018-04-28T13:40:42.000Z</time>
      </trkpt>
      <trkpt lat="48.82837" lon="1.43715">
        <ele>121.80000305176</ele>
        <time>2018-04-28T13:40:45.000Z</time>
      </trkpt>
      <trkpt lat="48.8284" lon="1.43718">
        <ele>121.40000152588</ele>
        <time>2018-04-28T13:40:47.000Z</time>
      </trkpt>
      <trkpt lat="48.82844" lon="1.43725">
        <ele>121.19999694824</ele>
        <time>2018-04-28T13:40:51.000Z</time>
      </trkpt>
      <trkpt lat="48.8285" lon="1.43732">
        <ele>120.59999847412</ele>
        <time>2018-04-28T13:40:55.000Z</time>
      </trkpt>
      <trkpt lat="48.82853" lon="1.43735">
        <ele>120.40000152588</ele>
        <time>2018-04-28T13:40:57.000Z</time>
      </trkpt>
      <trkpt lat="48.82856" lon="1.43738">
        <ele>120.19999694824</ele>
        <time>2018-04-28T13:40:59.000Z</time>
      </trkpt>
      <trkpt lat="48.82857" lon="1.43742">
        <ele>120.40000152588</ele>
        <time>2018-04-28T13:41:01.000Z</time>
      </trkpt>
      <trkpt lat="48.8286" lon="1.43747">
        <ele>120.19999694824</ele>
        <time>2018-04-28T13:41:04.000Z</time>
      </trkpt>
      <trkpt lat="48.82867" lon="1.43755">
        <ele>120</ele>
        <time>2018-04-28T13:41:10.000Z</time>
      </trkpt>
      <trkpt lat="48.8287" lon="1.43762">
        <ele>120</ele>
        <time>2018-04-28T13:41:13.000Z</time>
      </trkpt>
      <trkpt lat="48.82874" lon="1.43762">
        <ele>119.59999847412</ele>
        <time>2018-04-28T13:41:15.000Z</time>
      </trkpt>
      <trkpt lat="48.82874" lon="1.4377">
        <ele>120</ele>
        <time>2018-04-28T13:41:18.000Z</time>
      </trkpt>
      <trkpt lat="48.82879" lon="1.43776">
        <ele>119.80000305176</ele>
        <time>2018-04-28T13:41:22.000Z</time>
      </trkpt>
      <trkpt lat="48.82881" lon="1.43779">
        <ele>119.80000305176</ele>
        <time>2018-04-28T13:41:24.000Z</time>
      </trkpt>
      <trkpt lat="48.82887" lon="1.43783">
        <ele>119.40000152588</ele>
        <time>2018-04-28T13:41:27.000Z</time>
      </trkpt>
      <trkpt lat="48.82887" lon="1.43786">
        <ele>119.59999847412</ele>
        <time>2018-04-28T13:41:28.000Z</time>
      </trkpt>
      <trkpt lat="48.82888" lon="1.43791">
        <ele>119.59999847412</ele>
        <time>2018-04-28T13:41:30.000Z</time>
      </trkpt>
      <trkpt lat="48.82893" lon="1.43798">
        <ele>119.59999847412</ele>
        <time>2018-04-28T13:41:34.000Z</time>
      </trkpt>
      <trkpt lat="48.82896" lon="1.43802">
        <ele>119.40000152588</ele>
        <time>2018-04-28T13:41:36.000Z</time>
      </trkpt>
      <trkpt lat="48.82898" lon="1.43803">
        <ele>119.40000152588</ele>
        <time>2018-04-28T13:41:37.000Z</time>
      </trkpt>
      <trkpt lat="48.82901" lon="1.43806">
        <ele>119.19999694824</ele>
        <time>2018-04-28T13:41:39.000Z</time>
      </trkpt>
      <trkpt lat="48.82904" lon="1.43816">
        <ele>119.40000152588</ele>
        <time>2018-04-28T13:41:43.000Z</time>
      </trkpt>
      <trkpt lat="48.82905" lon="1.43818">
        <ele>119.19999694824</ele>
        <time>2018-04-28T13:41:44.000Z</time>
      </trkpt>
      <trkpt lat="48.82909" lon="1.43821">
        <ele>119</ele>
        <time>2018-04-28T13:41:46.000Z</time>
      </trkpt>
      <trkpt lat="48.82911" lon="1.43825">
        <ele>118.80000305176</ele>
        <time>2018-04-28T13:41:48.000Z</time>
      </trkpt>
      <trkpt lat="48.82918" lon="1.43829">
        <ele>118.19999694824</ele>
        <time>2018-04-28T13:41:52.000Z</time>
      </trkpt>
      <trkpt lat="48.82925" lon="1.43834">
        <ele>117.80000305176</ele>
        <time>2018-04-28T13:41:56.000Z</time>
      </trkpt>
      <trkpt lat="48.8293" lon="1.43844">
        <ele>117.59999847412</ele>
        <time>2018-04-28T13:42:01.000Z</time>
      </trkpt>
      <trkpt lat="48.82931" lon="1.43851">
        <ele>117.59999847412</ele>
        <time>2018-04-28T13:42:04.000Z</time>
      </trkpt>
      <trkpt lat="48.82937" lon="1.43857">
        <ele>117.19999694824</ele>
        <time>2018-04-28T13:42:08.000Z</time>
      </trkpt>
      <trkpt lat="48.82942" lon="1.43862">
        <ele>117</ele>
        <time>2018-04-28T13:42:11.000Z</time>
      </trkpt>
      <trkpt lat="48.82945" lon="1.43865">
        <ele>117.19999694824</ele>
        <time>2018-04-28T13:42:13.000Z</time>
      </trkpt>
      <trkpt lat="48.82951" lon="1.43872">
        <ele>117.19999694824</ele>
        <time>2018-04-28T13:42:18.000Z</time>
      </trkpt>
      <trkpt lat="48.82956" lon="1.4388">
        <ele>117.40000152588</ele>
        <time>2018-04-28T13:42:23.000Z</time>
      </trkpt>
      <trkpt lat="48.82964" lon="1.43887">
        <ele>117.40000152588</ele>
        <time>2018-04-28T13:42:28.000Z</time>
      </trkpt>
      <trkpt lat="48.82969" lon="1.43894">
        <ele>117.59999847412</ele>
        <time>2018-04-28T13:42:32.000Z</time>
      </trkpt>
      <trkpt lat="48.82971" lon="1.439">
        <ele>117.59999847412</ele>
        <time>2018-04-28T13:42:35.000Z</time>
      </trkpt>
      <trkpt lat="48.82976" lon="1.43906">
        <ele>117.40000152588</ele>
        <time>2018-04-28T13:42:39.000Z</time>
      </trkpt>
      <trkpt lat="48.82979" lon="1.43909">
        <ele>117.19999694824</ele>
        <time>2018-04-28T13:42:42.000Z</time>
      </trkpt>
      <trkpt lat="48.8298" lon="1.43912">
        <ele>117</ele>
        <time>2018-04-28T13:42:43.000Z</time>
      </trkpt>
      <trkpt lat="48.82979" lon="1.43912">
        <ele>117</ele>
        <time>2018-04-28T13:42:44.000Z</time>
      </trkpt>
      <trkpt lat="48.82979" lon="1.43915">
        <ele>117</ele>
        <time>2018-04-28T13:42:46.000Z</time>
      </trkpt>
      <trkpt lat="48.82982" lon="1.43915">
        <ele>116.80000305176</ele>
        <time>2018-04-28T13:42:47.000Z</time>
      </trkpt>
      <trkpt lat="48.82985" lon="1.43919">
        <ele>116.80000305176</ele>
        <time>2018-04-28T13:42:49.000Z</time>
      </trkpt>
      <trkpt lat="48.82993" lon="1.43927">
        <ele>116.40000152588</ele>
        <time>2018-04-28T13:42:54.000Z</time>
      </trkpt>
      <trkpt lat="48.82998" lon="1.43933">
        <ele>116</ele>
        <time>2018-04-28T13:42:58.000Z</time>
      </trkpt>
      <trkpt lat="48.83003" lon="1.43938">
        <ele>115.80000305176</ele>
        <time>2018-04-28T13:43:02.000Z</time>
      </trkpt>
      <trkpt lat="48.83005" lon="1.43939">
        <ele>115.80000305176</ele>
        <time>2018-04-28T13:43:03.000Z</time>
      </trkpt>
      <trkpt lat="48.83008" lon="1.43945">
        <ele>115.59999847412</ele>
        <time>2018-04-28T13:43:07.000Z</time>
      </trkpt>
      <trkpt lat="48.83011" lon="1.43949">
        <ele>115.40000152588</ele>
        <time>2018-04-28T13:43:11.000Z</time>
      </trkpt>
      <trkpt lat="48.83011" lon="1.4395">
        <ele>115.19999694824</ele>
        <time>2018-04-28T13:43:12.000Z</time>
      </trkpt>
      <trkpt lat="48.83013" lon="1.43951">
        <ele>115.19999694824</ele>
        <time>2018-04-28T13:43:15.000Z</time>
      </trkpt>
      <trkpt lat="48.83013" lon="1.43951">
        <ele>115.19999694824</ele>
        <time>2018-04-28T13:43:18.000Z</time>
      </trkpt>
      <trkpt lat="48.83006" lon="1.43955">
        <ele>115.19999694824</ele>
        <time>2018-04-28T13:43:46.000Z</time>
      </trkpt>
      <trkpt lat="48.83006" lon="1.43955">
        <ele>115.19999694824</ele>
        <time>2018-04-28T13:43:48.000Z</time>
      </trkpt>
      <trkpt lat="48.83014" lon="1.4396">
        <ele>115</ele>
        <time>2018-04-28T13:44:15.000Z</time>
      </trkpt>
      <trkpt lat="48.83018" lon="1.43958">
        <ele>115</ele>
        <time>2018-04-28T13:44:18.000Z</time>
      </trkpt>
      <trkpt lat="48.83022" lon="1.43958">
        <ele>114.80000305176</ele>
        <time>2018-04-28T13:44:22.000Z</time>
      </trkpt>
      <trkpt lat="48.83023" lon="1.43958">
        <ele>115</ele>
        <time>2018-04-28T13:44:23.000Z</time>
      </trkpt>
      <trkpt lat="48.83026" lon="1.43958">
        <ele>115.40000152588</ele>
        <time>2018-04-28T13:44:27.000Z</time>
      </trkpt>
      <trkpt lat="48.83029" lon="1.43958">
        <ele>115.80000305176</ele>
        <time>2018-04-28T13:44:30.000Z</time>
      </trkpt>
      <trkpt lat="48.8303" lon="1.43958">
        <ele>116</ele>
        <time>2018-04-28T13:44:31.000Z</time>
      </trkpt>
      <trkpt lat="48.83033" lon="1.43957">
        <ele>116.59999847412</ele>
        <time>2018-04-28T13:44:35.000Z</time>
      </trkpt>
      <trkpt lat="48.83037" lon="1.43957">
        <ele>117</ele>
        <time>2018-04-28T13:44:38.000Z</time>
      </trkpt>
      <trkpt lat="48.83037" lon="1.43956">
        <ele>117.19999694824</ele>
        <time>2018-04-28T13:44:39.000Z</time>
      </trkpt>
      <trkpt lat="48.83042" lon="1.43954">
        <ele>118</ele>
        <time>2018-04-28T13:44:46.000Z</time>
      </trkpt>
      <trkpt lat="48.83044" lon="1.43953">
        <ele>118.19999694824</ele>
        <time>2018-04-28T13:44:50.000Z</time>
      </trkpt>
      <trkpt lat="48.83051" lon="1.43952">
        <ele>119.40000152588</ele>
        <time>2018-04-28T13:44:57.000Z</time>
      </trkpt>
      <trkpt lat="48.83053" lon="1.43951">
        <ele>119.59999847412</ele>
        <time>2018-04-28T13:44:59.000Z</time>
      </trkpt>
      <trkpt lat="48.83057" lon="1.43949">
        <ele>120.19999694824</ele>
        <time>2018-04-28T13:45:02.000Z</time>
      </trkpt>
      <trkpt lat="48.83061" lon="1.43948">
        <ele>120.80000305176</ele>
        <time>2018-04-28T13:45:05.000Z</time>
      </trkpt>
      <trkpt lat="48.83063" lon="1.43949">
        <ele>121</ele>
        <time>2018-04-28T13:45:06.000Z</time>
      </trkpt>
      <trkpt lat="48.83065" lon="1.43949">
        <ele>121.40000152588</ele>
        <time>2018-04-28T13:45:08.000Z</time>
      </trkpt>
      <trkpt lat="48.83066" lon="1.43948">
        <ele>121.59999847412</ele>
        <time>2018-04-28T13:45:09.000Z</time>
      </trkpt>
      <trkpt lat="48.83071" lon="1.43946">
        <ele>122.19999694824</ele>
        <time>2018-04-28T13:45:13.000Z</time>
      </trkpt>
      <trkpt lat="48.83072" lon="1.43946">
        <ele>122.40000152588</ele>
        <time>2018-04-28T13:45:14.000Z</time>
      </trkpt>
      <trkpt lat="48.83076" lon="1.43946">
        <ele>123</ele>
        <time>2018-04-28T13:45:18.000Z</time>
      </trkpt>
      <trkpt lat="48.8308" lon="1.43944">
        <ele>123.59999847412</ele>
        <time>2018-04-28T13:45:22.000Z</time>
      </trkpt>
      <trkpt lat="48.83081" lon="1.43943">
        <ele>124</ele>
        <time>2018-04-28T13:45:23.000Z</time>
      </trkpt>
      <trkpt lat="48.83089" lon="1.43943">
        <ele>125</ele>
        <time>2018-04-28T13:45:28.000Z</time>
      </trkpt>
      <trkpt lat="48.83095" lon="1.43941">
        <ele>126</ele>
        <time>2018-04-28T13:45:33.000Z</time>
      </trkpt>
      <trkpt lat="48.83105" lon="1.43942">
        <ele>127.40000152588</ele>
        <time>2018-04-28T13:45:39.000Z</time>
      </trkpt>
      <trkpt lat="48.83113" lon="1.43943">
        <ele>128</ele>
        <time>2018-04-28T13:45:44.000Z</time>
      </trkpt>
      <trkpt lat="48.83118" lon="1.43942">
        <ele>128.60000610352</ele>
        <time>2018-04-28T13:45:48.000Z</time>
      </trkpt>
      <trkpt lat="48.83124" lon="1.43941">
        <ele>129</ele>
        <time>2018-04-28T13:45:52.000Z</time>
      </trkpt>
      <trkpt lat="48.83131" lon="1.43941">
        <ele>129.60000610352</ele>
        <time>2018-04-28T13:45:57.000Z</time>
      </trkpt>
      <trkpt lat="48.83131" lon="1.43942">
        <ele>129.60000610352</ele>
        <time>2018-04-28T13:45:58.000Z</time>
      </trkpt>
      <trkpt lat="48.83133" lon="1.43941">
        <ele>129.80000305176</ele>
        <time>2018-04-28T13:45:59.000Z</time>
      </trkpt>
      <trkpt lat="48.83137" lon="1.43941">
        <ele>130.19999694824</ele>
        <time>2018-04-28T13:46:02.000Z</time>
      </trkpt>
      <trkpt lat="48.83138" lon="1.43941">
        <ele>130.19999694824</ele>
        <time>2018-04-28T13:46:04.000Z</time>
      </trkpt>
      <trkpt lat="48.83141" lon="1.43941">
        <ele>130.39999389648</ele>
        <time>2018-04-28T13:46:06.000Z</time>
      </trkpt>
      <trkpt lat="48.83142" lon="1.43941">
        <ele>130.60000610352</ele>
        <time>2018-04-28T13:46:07.000Z</time>
      </trkpt>
      <trkpt lat="48.83146" lon="1.43941">
        <ele>130.80000305176</ele>
        <time>2018-04-28T13:46:09.000Z</time>
      </trkpt>
      <trkpt lat="48.83147" lon="1.43941">
        <ele>131</ele>
        <time>2018-04-28T13:46:10.000Z</time>
      </trkpt>
      <trkpt lat="48.8315" lon="1.4394">
        <ele>131.19999694824</ele>
        <time>2018-04-28T13:46:11.000Z</time>
      </trkpt>
      <trkpt lat="48.83154" lon="1.4394">
        <ele>131.39999389648</ele>
        <time>2018-04-28T13:46:14.000Z</time>
      </trkpt>
      <trkpt lat="48.83158" lon="1.43939">
        <ele>131.60000610352</ele>
        <time>2018-04-28T13:46:17.000Z</time>
      </trkpt>
      <trkpt lat="48.83162" lon="1.43939">
        <ele>132</ele>
        <time>2018-04-28T13:46:19.000Z</time>
      </trkpt>
      <trkpt lat="48.8317" lon="1.43939">
        <ele>132.39999389648</ele>
        <time>2018-04-28T13:46:22.000Z</time>
      </trkpt>
      <trkpt lat="48.83174" lon="1.43939">
        <ele>132.60000610352</ele>
        <time>2018-04-28T13:46:24.000Z</time>
      </trkpt>
      <trkpt lat="48.83176" lon="1.43939">
        <ele>132.80000305176</ele>
        <time>2018-04-28T13:46:25.000Z</time>
      </trkpt>
      <trkpt lat="48.83182" lon="1.43939">
        <ele>133</ele>
        <time>2018-04-28T13:46:29.000Z</time>
      </trkpt>
      <trkpt lat="48.83186" lon="1.43939">
        <ele>133.39999389648</ele>
        <time>2018-04-28T13:46:32.000Z</time>
      </trkpt>
      <trkpt lat="48.83198" lon="1.43936">
        <ele>133.60000610352</ele>
        <time>2018-04-28T13:46:38.000Z</time>
      </trkpt>
      <trkpt lat="48.832" lon="1.43935">
        <ele>133.60000610352</ele>
        <time>2018-04-28T13:46:40.000Z</time>
      </trkpt>
      <trkpt lat="48.83203" lon="1.43935">
        <ele>133.80000305176</ele>
        <time>2018-04-28T13:46:42.000Z</time>
      </trkpt>
      <trkpt lat="48.83205" lon="1.43937">
        <ele>133.80000305176</ele>
        <time>2018-04-28T13:46:43.000Z</time>
      </trkpt>
      <trkpt lat="48.83209" lon="1.43936">
        <ele>133.80000305176</ele>
        <time>2018-04-28T13:46:45.000Z</time>
      </trkpt>
      <trkpt lat="48.83214" lon="1.43935">
        <ele>133.80000305176</ele>
        <time>2018-04-28T13:46:47.000Z</time>
      </trkpt>
      <trkpt lat="48.83216" lon="1.43936">
        <ele>133.80000305176</ele>
        <time>2018-04-28T13:46:48.000Z</time>
      </trkpt>
      <trkpt lat="48.83217" lon="1.43935">
        <ele>134</ele>
        <time>2018-04-28T13:46:49.000Z</time>
      </trkpt>
      <trkpt lat="48.83223" lon="1.43936">
        <ele>134</ele>
        <time>2018-04-28T13:46:52.000Z</time>
      </trkpt>
      <trkpt lat="48.83226" lon="1.43936">
        <ele>134</ele>
        <time>2018-04-28T13:46:54.000Z</time>
      </trkpt>
      <trkpt lat="48.83232" lon="1.43935">
        <ele>134</ele>
        <time>2018-04-28T13:46:58.000Z</time>
      </trkpt>
      <trkpt lat="48.83239" lon="1.43933">
        <ele>134</ele>
        <time>2018-04-28T13:47:03.000Z</time>
      </trkpt>
      <trkpt lat="48.8324" lon="1.43933">
        <ele>134</ele>
        <time>2018-04-28T13:47:04.000Z</time>
      </trkpt>
      <trkpt lat="48.83246" lon="1.43931">
        <ele>134</ele>
        <time>2018-04-28T13:47:07.000Z</time>
      </trkpt>
      <trkpt lat="48.83248" lon="1.43932">
        <ele>134</ele>
        <time>2018-04-28T13:47:08.000Z</time>
      </trkpt>
      <trkpt lat="48.83253" lon="1.43933">
        <ele>134</ele>
        <time>2018-04-28T13:47:12.000Z</time>
      </trkpt>
      <trkpt lat="48.83254" lon="1.43933">
        <ele>134</ele>
        <time>2018-04-28T13:47:13.000Z</time>
      </trkpt>
      <trkpt lat="48.83255" lon="1.43932">
        <ele>134</ele>
        <time>2018-04-28T13:47:14.000Z</time>
      </trkpt>
      <trkpt lat="48.83259" lon="1.43932">
        <ele>134</ele>
        <time>2018-04-28T13:47:16.000Z</time>
      </trkpt>
      <trkpt lat="48.83267" lon="1.43932">
        <ele>134</ele>
        <time>2018-04-28T13:47:21.000Z</time>
      </trkpt>
      <trkpt lat="48.83268" lon="1.43932">
        <ele>134</ele>
        <time>2018-04-28T13:47:22.000Z</time>
      </trkpt>
      <trkpt lat="48.83274" lon="1.43931">
        <ele>134</ele>
        <time>2018-04-28T13:47:25.000Z</time>
      </trkpt>
      <trkpt lat="48.83283" lon="1.43929">
        <ele>134</ele>
        <time>2018-04-28T13:47:30.000Z</time>
      </trkpt>
      <trkpt lat="48.83286" lon="1.43929">
        <ele>134</ele>
        <time>2018-04-28T13:47:32.000Z</time>
      </trkpt>
      <trkpt lat="48.83287" lon="1.4393">
        <ele>134</ele>
        <time>2018-04-28T13:47:33.000Z</time>
      </trkpt>
      <trkpt lat="48.8329" lon="1.43929">
        <ele>134</ele>
        <time>2018-04-28T13:47:35.000Z</time>
      </trkpt>
      <trkpt lat="48.83293" lon="1.43929">
        <ele>134</ele>
        <time>2018-04-28T13:47:37.000Z</time>
      </trkpt>
      <trkpt lat="48.83301" lon="1.43927">
        <ele>134</ele>
        <time>2018-04-28T13:47:42.000Z</time>
      </trkpt>
      <trkpt lat="48.83303" lon="1.43927">
        <ele>134</ele>
        <time>2018-04-28T13:47:43.000Z</time>
      </trkpt>
      <trkpt lat="48.83311" lon="1.43926">
        <ele>134.19999694824</ele>
        <time>2018-04-28T13:47:47.000Z</time>
      </trkpt>
      <trkpt lat="48.83318" lon="1.43925">
        <ele>134.19999694824</ele>
        <time>2018-04-28T13:47:51.000Z</time>
      </trkpt>
      <trkpt lat="48.8332" lon="1.43924">
        <ele>134.19999694824</ele>
        <time>2018-04-28T13:47:52.000Z</time>
      </trkpt>
      <trkpt lat="48.83325" lon="1.43924">
        <ele>134.39999389648</ele>
        <time>2018-04-28T13:47:56.000Z</time>
      </trkpt>
      <trkpt lat="48.83333" lon="1.43922">
        <ele>134.39999389648</ele>
        <time>2018-04-28T13:48:01.000Z</time>
      </trkpt>
      <trkpt lat="48.83336" lon="1.43921">
        <ele>134.60000610352</ele>
        <time>2018-04-28T13:48:05.000Z</time>
      </trkpt>
      <trkpt lat="48.83343" lon="1.43919">
        <ele>134.60000610352</ele>
        <time>2018-04-28T13:48:10.000Z</time>
      </trkpt>
      <trkpt lat="48.83345" lon="1.4392">
        <ele>134.60000610352</ele>
        <time>2018-04-28T13:48:12.000Z</time>
      </trkpt>
      <trkpt lat="48.83347" lon="1.43919">
        <ele>134.60000610352</ele>
        <time>2018-04-28T13:48:14.000Z</time>
      </trkpt>
      <trkpt lat="48.83348" lon="1.4392">
        <ele>134.60000610352</ele>
        <time>2018-04-28T13:48:15.000Z</time>
      </trkpt>
      <trkpt lat="48.83354" lon="1.43919">
        <ele>134.80000305176</ele>
        <time>2018-04-28T13:48:19.000Z</time>
      </trkpt>
      <trkpt lat="48.83359" lon="1.43919">
        <ele>134.80000305176</ele>
        <time>2018-04-28T13:48:22.000Z</time>
      </trkpt>
      <trkpt lat="48.83364" lon="1.43918">
        <ele>134.80000305176</ele>
        <time>2018-04-28T13:48:25.000Z</time>
      </trkpt>
      <trkpt lat="48.83373" lon="1.43916">
        <ele>134.80000305176</ele>
        <time>2018-04-28T13:48:30.000Z</time>
      </trkpt>
      <trkpt lat="48.83373" lon="1.43915">
        <ele>134.80000305176</ele>
        <time>2018-04-28T13:48:31.000Z</time>
      </trkpt>
      <trkpt lat="48.83379" lon="1.43914">
        <ele>134.80000305176</ele>
        <time>2018-04-28T13:48:34.000Z</time>
      </trkpt>
      <trkpt lat="48.83386" lon="1.43916">
        <ele>134.60000610352</ele>
        <time>2018-04-28T13:48:38.000Z</time>
      </trkpt>
      <trkpt lat="48.8339" lon="1.43916">
        <ele>134.60000610352</ele>
        <time>2018-04-28T13:48:40.000Z</time>
      </trkpt>
      <trkpt lat="48.83398" lon="1.43915">
        <ele>134.39999389648</ele>
        <time>2018-04-28T13:48:44.000Z</time>
      </trkpt>
      <trkpt lat="48.83405" lon="1.43914">
        <ele>134.39999389648</ele>
        <time>2018-04-28T13:48:49.000Z</time>
      </trkpt>
      <trkpt lat="48.83413" lon="1.43914">
        <ele>134.39999389648</ele>
        <time>2018-04-28T13:48:54.000Z</time>
      </trkpt>
      <trkpt lat="48.8342" lon="1.43915">
        <ele>134.19999694824</ele>
        <time>2018-04-28T13:48:57.000Z</time>
      </trkpt>
      <trkpt lat="48.83421" lon="1.43914">
        <ele>134.19999694824</ele>
        <time>2018-04-28T13:48:58.000Z</time>
      </trkpt>
      <trkpt lat="48.83427" lon="1.43914">
        <ele>134.19999694824</ele>
        <time>2018-04-28T13:49:01.000Z</time>
      </trkpt>
      <trkpt lat="48.83427" lon="1.43914">
        <ele>134.19999694824</ele>
        <time>2018-04-28T13:49:03.000Z</time>
      </trkpt>
      <trkpt lat="48.83429" lon="1.43913">
        <ele>134.19999694824</ele>
        <time>2018-04-28T13:49:04.000Z</time>
      </trkpt>
      <trkpt lat="48.83434" lon="1.43912">
        <ele>134</ele>
        <time>2018-04-28T13:49:07.000Z</time>
      </trkpt>
      <trkpt lat="48.83439" lon="1.4391">
        <ele>134</ele>
        <time>2018-04-28T13:49:09.000Z</time>
      </trkpt>
      <trkpt lat="48.83441" lon="1.43908">
        <ele>134</ele>
        <time>2018-04-28T13:49:11.000Z</time>
      </trkpt>
      <trkpt lat="48.83443" lon="1.43908">
        <ele>134.19999694824</ele>
        <time>2018-04-28T13:49:12.000Z</time>
      </trkpt>
      <trkpt lat="48.83449" lon="1.43907">
        <ele>134.39999389648</ele>
        <time>2018-04-28T13:49:16.000Z</time>
      </trkpt>
      <trkpt lat="48.83457" lon="1.43906">
        <ele>134.60000610352</ele>
        <time>2018-04-28T13:49:21.000Z</time>
      </trkpt>
      <trkpt lat="48.83466" lon="1.43906">
        <ele>134.80000305176</ele>
        <time>2018-04-28T13:49:26.000Z</time>
      </trkpt>
      <trkpt lat="48.83475" lon="1.43907">
        <ele>135</ele>
        <time>2018-04-28T13:49:31.000Z</time>
      </trkpt>
      <trkpt lat="48.83477" lon="1.43905">
        <ele>135</ele>
        <time>2018-04-28T13:49:32.000Z</time>
      </trkpt>
      <trkpt lat="48.83481" lon="1.43905">
        <ele>135</ele>
        <time>2018-04-28T13:49:34.000Z</time>
      </trkpt>
      <trkpt lat="48.83486" lon="1.43904">
        <ele>135.19999694824</ele>
        <time>2018-04-28T13:49:37.000Z</time>
      </trkpt>
      <trkpt lat="48.83493" lon="1.43903">
        <ele>135.39999389648</ele>
        <time>2018-04-28T13:49:41.000Z</time>
      </trkpt>
      <trkpt lat="48.83499" lon="1.43902">
        <ele>135.39999389648</ele>
        <time>2018-04-28T13:49:45.000Z</time>
      </trkpt>
      <trkpt lat="48.83502" lon="1.43901">
        <ele>135.60000610352</ele>
        <time>2018-04-28T13:49:47.000Z</time>
      </trkpt>
      <trkpt lat="48.83502" lon="1.43902">
        <ele>135.60000610352</ele>
        <time>2018-04-28T13:49:48.000Z</time>
      </trkpt>
      <trkpt lat="48.83505" lon="1.43902">
        <ele>135.60000610352</ele>
        <time>2018-04-28T13:49:50.000Z</time>
      </trkpt>
      <trkpt lat="48.83513" lon="1.439">
        <ele>135.80000305176</ele>
        <time>2018-04-28T13:49:54.000Z</time>
      </trkpt>
      <trkpt lat="48.83518" lon="1.439">
        <ele>135.80000305176</ele>
        <time>2018-04-28T13:49:58.000Z</time>
      </trkpt>
      <trkpt lat="48.83519" lon="1.439">
        <ele>136</ele>
        <time>2018-04-28T13:49:59.000Z</time>
      </trkpt>
      <trkpt lat="48.83523" lon="1.43899">
        <ele>136</ele>
        <time>2018-04-28T13:50:02.000Z</time>
      </trkpt>
      <trkpt lat="48.83529" lon="1.43899">
        <ele>136</ele>
        <time>2018-04-28T13:50:06.000Z</time>
      </trkpt>
      <trkpt lat="48.83536" lon="1.439">
        <ele>136.19999694824</ele>
        <time>2018-04-28T13:50:10.000Z</time>
      </trkpt>
      <trkpt lat="48.83544" lon="1.43898">
        <ele>136.19999694824</ele>
        <time>2018-04-28T13:50:15.000Z</time>
      </trkpt>
      <trkpt lat="48.8355" lon="1.43898">
        <ele>136.39999389648</ele>
        <time>2018-04-28T13:50:18.000Z</time>
      </trkpt>
      <trkpt lat="48.83552" lon="1.43898">
        <ele>136.39999389648</ele>
        <time>2018-04-28T13:50:19.000Z</time>
      </trkpt>
      <trkpt lat="48.83558" lon="1.43898">
        <ele>136.39999389648</ele>
        <time>2018-04-28T13:50:23.000Z</time>
      </trkpt>
      <trkpt lat="48.83562" lon="1.43897">
        <ele>136.39999389648</ele>
        <time>2018-04-28T13:50:26.000Z</time>
      </trkpt>
      <trkpt lat="48.83566" lon="1.43896">
        <ele>136.39999389648</ele>
        <time>2018-04-28T13:50:28.000Z</time>
      </trkpt>
      <trkpt lat="48.8357" lon="1.43893">
        <ele>136.60000610352</ele>
        <time>2018-04-28T13:50:32.000Z</time>
      </trkpt>
      <trkpt lat="48.83573" lon="1.43894">
        <ele>136.60000610352</ele>
        <time>2018-04-28T13:50:34.000Z</time>
      </trkpt>
      <trkpt lat="48.83581" lon="1.43895">
        <ele>136.60000610352</ele>
        <time>2018-04-28T13:50:38.000Z</time>
      </trkpt>
      <trkpt lat="48.83583" lon="1.43895">
        <ele>136.60000610352</ele>
        <time>2018-04-28T13:50:40.000Z</time>
      </trkpt>
      <trkpt lat="48.83587" lon="1.43895">
        <ele>136.80000305176</ele>
        <time>2018-04-28T13:50:42.000Z</time>
      </trkpt>
      <trkpt lat="48.83596" lon="1.43894">
        <ele>136.80000305176</ele>
        <time>2018-04-28T13:50:47.000Z</time>
      </trkpt>
      <trkpt lat="48.83606" lon="1.43894">
        <ele>136.80000305176</ele>
        <time>2018-04-28T13:50:52.000Z</time>
      </trkpt>
      <trkpt lat="48.83612" lon="1.43895">
        <ele>136.80000305176</ele>
        <time>2018-04-28T13:50:56.000Z</time>
      </trkpt>
      <trkpt lat="48.83614" lon="1.43894">
        <ele>136.60000610352</ele>
        <time>2018-04-28T13:50:57.000Z</time>
      </trkpt>
      <trkpt lat="48.83618" lon="1.43893">
        <ele>136.60000610352</ele>
        <time>2018-04-28T13:51:00.000Z</time>
      </trkpt>
      <trkpt lat="48.8362" lon="1.43892">
        <ele>136.39999389648</ele>
        <time>2018-04-28T13:51:01.000Z</time>
      </trkpt>
      <trkpt lat="48.83627" lon="1.43891">
        <ele>136.19999694824</ele>
        <time>2018-04-28T13:51:05.000Z</time>
      </trkpt>
      <trkpt lat="48.83634" lon="1.4389">
        <ele>136.19999694824</ele>
        <time>2018-04-28T13:51:10.000Z</time>
      </trkpt>
      <trkpt lat="48.8364" lon="1.43891">
        <ele>136</ele>
        <time>2018-04-28T13:51:13.000Z</time>
      </trkpt>
      <trkpt lat="48.83648" lon="1.43892">
        <ele>135.80000305176</ele>
        <time>2018-04-28T13:51:17.000Z</time>
      </trkpt>
      <trkpt lat="48.83657" lon="1.4389">
        <ele>135.60000610352</ele>
        <time>2018-04-28T13:51:22.000Z</time>
      </trkpt>
      <trkpt lat="48.83663" lon="1.4389">
        <ele>135.39999389648</ele>
        <time>2018-04-28T13:51:26.000Z</time>
      </trkpt>
      <trkpt lat="48.83665" lon="1.4389">
        <ele>135.39999389648</ele>
        <time>2018-04-28T13:51:28.000Z</time>
      </trkpt>
      <trkpt lat="48.83673" lon="1.4389">
        <ele>135.19999694824</ele>
        <time>2018-04-28T13:51:32.000Z</time>
      </trkpt>
      <trkpt lat="48.83678" lon="1.4389">
        <ele>135</ele>
        <time>2018-04-28T13:51:36.000Z</time>
      </trkpt>
      <trkpt lat="48.8368" lon="1.43889">
        <ele>135</ele>
        <time>2018-04-28T13:51:37.000Z</time>
      </trkpt>
      <trkpt lat="48.83685" lon="1.43888">
        <ele>134.80000305176</ele>
        <time>2018-04-28T13:51:41.000Z</time>
      </trkpt>
      <trkpt lat="48.83686" lon="1.43889">
        <ele>134.80000305176</ele>
        <time>2018-04-28T13:51:42.000Z</time>
      </trkpt>
      <trkpt lat="48.83691" lon="1.43887">
        <ele>134.60000610352</ele>
        <time>2018-04-28T13:51:45.000Z</time>
      </trkpt>
      <trkpt lat="48.83692" lon="1.43887">
        <ele>134.60000610352</ele>
        <time>2018-04-28T13:51:46.000Z</time>
      </trkpt>
      <trkpt lat="48.83701" lon="1.43885">
        <ele>134.19999694824</ele>
        <time>2018-04-28T13:51:50.000Z</time>
      </trkpt>
      <trkpt lat="48.8371" lon="1.43882">
        <ele>133.80000305176</ele>
        <time>2018-04-28T13:51:55.000Z</time>
      </trkpt>
      <trkpt lat="48.83712" lon="1.43881">
        <ele>133.80000305176</ele>
        <time>2018-04-28T13:51:57.000Z</time>
      </trkpt>
      <trkpt lat="48.83715" lon="1.43881">
        <ele>133.60000610352</ele>
        <time>2018-04-28T13:51:59.000Z</time>
      </trkpt>
      <trkpt lat="48.83717" lon="1.4388">
        <ele>133.60000610352</ele>
        <time>2018-04-28T13:52:00.000Z</time>
      </trkpt>
      <trkpt lat="48.83723" lon="1.43879">
        <ele>133.39999389648</ele>
        <time>2018-04-28T13:52:04.000Z</time>
      </trkpt>
      <trkpt lat="48.83724" lon="1.4388">
        <ele>133.19999694824</ele>
        <time>2018-04-28T13:52:05.000Z</time>
      </trkpt>
      <trkpt lat="48.83726" lon="1.4388">
        <ele>133.19999694824</ele>
        <time>2018-04-28T13:52:07.000Z</time>
      </trkpt>
      <trkpt lat="48.83733" lon="1.43878">
        <ele>133</ele>
        <time>2018-04-28T13:52:10.000Z</time>
      </trkpt>
      <trkpt lat="48.83742" lon="1.43877">
        <ele>132.60000610352</ele>
        <time>2018-04-28T13:52:15.000Z</time>
      </trkpt>
      <trkpt lat="48.83743" lon="1.43877">
        <ele>132.60000610352</ele>
        <time>2018-04-28T13:52:16.000Z</time>
      </trkpt>
      <trkpt lat="48.83747" lon="1.43877">
        <ele>132.39999389648</ele>
        <time>2018-04-28T13:52:18.000Z</time>
      </trkpt>
      <trkpt lat="48.8375" lon="1.43877">
        <ele>132.19999694824</ele>
        <time>2018-04-28T13:52:20.000Z</time>
      </trkpt>
      <trkpt lat="48.83753" lon="1.43876">
        <ele>132.19999694824</ele>
        <time>2018-04-28T13:52:23.000Z</time>
      </trkpt>
      <trkpt lat="48.83761" lon="1.43877">
        <ele>132.19999694824</ele>
        <time>2018-04-28T13:52:27.000Z</time>
      </trkpt>
      <trkpt lat="48.83769" lon="1.43876">
        <ele>132</ele>
        <time>2018-04-28T13:52:32.000Z</time>
      </trkpt>
      <trkpt lat="48.83774" lon="1.43874">
        <ele>132</ele>
        <time>2018-04-28T13:52:35.000Z</time>
      </trkpt>
      <trkpt lat="48.83776" lon="1.43874">
        <ele>132</ele>
        <time>2018-04-28T13:52:36.000Z</time>
      </trkpt>
      <trkpt lat="48.83777" lon="1.43875">
        <ele>132.19999694824</ele>
        <time>2018-04-28T13:52:37.000Z</time>
      </trkpt>
      <trkpt lat="48.83783" lon="1.43873">
        <ele>132.19999694824</ele>
        <time>2018-04-28T13:52:40.000Z</time>
      </trkpt>
      <trkpt lat="48.83791" lon="1.43872">
        <ele>132.39999389648</ele>
        <time>2018-04-28T13:52:44.000Z</time>
      </trkpt>
      <trkpt lat="48.83792" lon="1.43873">
        <ele>132.39999389648</ele>
        <time>2018-04-28T13:52:45.000Z</time>
      </trkpt>
      <trkpt lat="48.838" lon="1.43874">
        <ele>132.60000610352</ele>
        <time>2018-04-28T13:52:50.000Z</time>
      </trkpt>
      <trkpt lat="48.83805" lon="1.43875">
        <ele>132.80000305176</ele>
        <time>2018-04-28T13:52:54.000Z</time>
      </trkpt>
      <trkpt lat="48.83809" lon="1.43875">
        <ele>132.80000305176</ele>
        <time>2018-04-28T13:52:57.000Z</time>
      </trkpt>
      <trkpt lat="48.83812" lon="1.43873">
        <ele>133</ele>
        <time>2018-04-28T13:53:00.000Z</time>
      </trkpt>
      <trkpt lat="48.83813" lon="1.43874">
        <ele>133</ele>
        <time>2018-04-28T13:53:01.000Z</time>
      </trkpt>
      <trkpt lat="48.83818" lon="1.43875">
        <ele>133.19999694824</ele>
        <time>2018-04-28T13:53:05.000Z</time>
      </trkpt>
      <trkpt lat="48.83824" lon="1.43874">
        <ele>133.19999694824</ele>
        <time>2018-04-28T13:53:09.000Z</time>
      </trkpt>
      <trkpt lat="48.83827" lon="1.43874">
        <ele>133.39999389648</ele>
        <time>2018-04-28T13:53:11.000Z</time>
      </trkpt>
      <trkpt lat="48.83828" lon="1.43875">
        <ele>133.39999389648</ele>
        <time>2018-04-28T13:53:12.000Z</time>
      </trkpt>
      <trkpt lat="48.83832" lon="1.43874">
        <ele>133.39999389648</ele>
        <time>2018-04-28T13:53:15.000Z</time>
      </trkpt>
      <trkpt lat="48.83838" lon="1.43872">
        <ele>133.60000610352</ele>
        <time>2018-04-28T13:53:19.000Z</time>
      </trkpt>
      <trkpt lat="48.83843" lon="1.4387">
        <ele>133.60000610352</ele>
        <time>2018-04-28T13:53:23.000Z</time>
      </trkpt>
      <trkpt lat="48.83847" lon="1.4387">
        <ele>133.80000305176</ele>
        <time>2018-04-28T13:53:25.000Z</time>
      </trkpt>
      <trkpt lat="48.83856" lon="1.4387">
        <ele>134</ele>
        <time>2018-04-28T13:53:30.000Z</time>
      </trkpt>
      <trkpt lat="48.83866" lon="1.43869">
        <ele>133.80000305176</ele>
        <time>2018-04-28T13:53:35.000Z</time>
      </trkpt>
      <trkpt lat="48.83874" lon="1.43868">
        <ele>133.80000305176</ele>
        <time>2018-04-28T13:53:39.000Z</time>
      </trkpt>
      <trkpt lat="48.83881" lon="1.43868">
        <ele>133.60000610352</ele>
        <time>2018-04-28T13:53:43.000Z</time>
      </trkpt>
      <trkpt lat="48.83893" lon="1.43865">
        <ele>133.60000610352</ele>
        <time>2018-04-28T13:53:49.000Z</time>
      </trkpt>
      <trkpt lat="48.839" lon="1.43866">
        <ele>133.39999389648</ele>
        <time>2018-04-28T13:53:53.000Z</time>
      </trkpt>
      <trkpt lat="48.83906" lon="1.43864">
        <ele>133.39999389648</ele>
        <time>2018-04-28T13:53:57.000Z</time>
      </trkpt>
      <trkpt lat="48.83913" lon="1.43863">
        <ele>133.39999389648</ele>
        <time>2018-04-28T13:54:00.000Z</time>
      </trkpt>
      <trkpt lat="48.83921" lon="1.43864">
        <ele>133.39999389648</ele>
        <time>2018-04-28T13:54:04.000Z</time>
      </trkpt>
      <trkpt lat="48.83926" lon="1.43864">
        <ele>133.39999389648</ele>
        <time>2018-04-28T13:54:08.000Z</time>
      </trkpt>
      <trkpt lat="48.83926" lon="1.43864">
        <ele>133.39999389648</ele>
        <time>2018-04-28T13:54:09.000Z</time>
      </trkpt>
      <trkpt lat="48.83931" lon="1.43862">
        <ele>133.39999389648</ele>
        <time>2018-04-28T13:54:12.000Z</time>
      </trkpt>
      <trkpt lat="48.83934" lon="1.43862">
        <ele>133.39999389648</ele>
        <time>2018-04-28T13:54:13.000Z</time>
      </trkpt>
      <trkpt lat="48.8394" lon="1.43861">
        <ele>133.39999389648</ele>
        <time>2018-04-28T13:54:17.000Z</time>
      </trkpt>
      <trkpt lat="48.83942" lon="1.43861">
        <ele>133.39999389648</ele>
        <time>2018-04-28T13:54:18.000Z</time>
      </trkpt>
      <trkpt lat="48.8395" lon="1.43861">
        <ele>133.60000610352</ele>
        <time>2018-04-28T13:54:23.000Z</time>
      </trkpt>
      <trkpt lat="48.83954" lon="1.4386">
        <ele>133.60000610352</ele>
        <time>2018-04-28T13:54:26.000Z</time>
      </trkpt>
      <trkpt lat="48.83957" lon="1.4386">
        <ele>133.60000610352</ele>
        <time>2018-04-28T13:54:28.000Z</time>
      </trkpt>
      <trkpt lat="48.83958" lon="1.4386">
        <ele>133.60000610352</ele>
        <time>2018-04-28T13:54:29.000Z</time>
      </trkpt>
      <trkpt lat="48.83967" lon="1.43861">
        <ele>133.80000305176</ele>
        <time>2018-04-28T13:54:35.000Z</time>
      </trkpt>
      <trkpt lat="48.8397" lon="1.43859">
        <ele>133.80000305176</ele>
        <time>2018-04-28T13:54:37.000Z</time>
      </trkpt>
      <trkpt lat="48.83976" lon="1.43858">
        <ele>134</ele>
        <time>2018-04-28T13:54:40.000Z</time>
      </trkpt>
      <trkpt lat="48.83978" lon="1.43858">
        <ele>134</ele>
        <time>2018-04-28T13:54:41.000Z</time>
      </trkpt>
      <trkpt lat="48.83986" lon="1.43857">
        <ele>134</ele>
        <time>2018-04-28T13:54:45.000Z</time>
      </trkpt>
      <trkpt lat="48.83997" lon="1.43856">
        <ele>133.80000305176</ele>
        <time>2018-04-28T13:54:51.000Z</time>
      </trkpt>
      <trkpt lat="48.84" lon="1.43855">
        <ele>133.80000305176</ele>
        <time>2018-04-28T13:54:54.000Z</time>
      </trkpt>
      <trkpt lat="48.8401" lon="1.43855">
        <ele>133.60000610352</ele>
        <time>2018-04-28T13:54:59.000Z</time>
      </trkpt>
      <trkpt lat="48.84015" lon="1.43853">
        <ele>133.60000610352</ele>
        <time>2018-04-28T13:55:02.000Z</time>
      </trkpt>
      <trkpt lat="48.84017" lon="1.43854">
        <ele>133.60000610352</ele>
        <time>2018-04-28T13:55:03.000Z</time>
      </trkpt>
      <trkpt lat="48.84022" lon="1.43853">
        <ele>133.39999389648</ele>
        <time>2018-04-28T13:55:06.000Z</time>
      </trkpt>
      <trkpt lat="48.84026" lon="1.43851">
        <ele>133.39999389648</ele>
        <time>2018-04-28T13:55:08.000Z</time>
      </trkpt>
      <trkpt lat="48.84033" lon="1.43849">
        <ele>133.19999694824</ele>
        <time>2018-04-28T13:55:13.000Z</time>
      </trkpt>
      <trkpt lat="48.84034" lon="1.43849">
        <ele>133.19999694824</ele>
        <time>2018-04-28T13:55:14.000Z</time>
      </trkpt>
      <trkpt lat="48.84044" lon="1.43847">
        <ele>133.19999694824</ele>
        <time>2018-04-28T13:55:19.000Z</time>
      </trkpt>
      <trkpt lat="48.84044" lon="1.43847">
        <ele>133.19999694824</ele>
        <time>2018-04-28T13:55:20.000Z</time>
      </trkpt>
      <trkpt lat="48.84049" lon="1.43846">
        <ele>133</ele>
        <time>2018-04-28T13:55:22.000Z</time>
      </trkpt>
      <trkpt lat="48.84052" lon="1.43847">
        <ele>133</ele>
        <time>2018-04-28T13:55:24.000Z</time>
      </trkpt>
      <trkpt lat="48.84058" lon="1.43846">
        <ele>133</ele>
        <time>2018-04-28T13:55:28.000Z</time>
      </trkpt>
      <trkpt lat="48.84073" lon="1.43845">
        <ele>133</ele>
        <time>2018-04-28T13:55:39.000Z</time>
      </trkpt>
      <trkpt lat="48.8408" lon="1.43845">
        <ele>133</ele>
        <time>2018-04-28T13:55:42.000Z</time>
      </trkpt>
      <trkpt lat="48.84083" lon="1.43845">
        <ele>133</ele>
        <time>2018-04-28T13:55:44.000Z</time>
      </trkpt>
      <trkpt lat="48.84086" lon="1.43846">
        <ele>133</ele>
        <time>2018-04-28T13:55:46.000Z</time>
      </trkpt>
      <trkpt lat="48.8409" lon="1.43845">
        <ele>133</ele>
        <time>2018-04-28T13:55:48.000Z</time>
      </trkpt>
      <trkpt lat="48.84094" lon="1.43844">
        <ele>133</ele>
        <time>2018-04-28T13:55:51.000Z</time>
      </trkpt>
      <trkpt lat="48.84096" lon="1.43843">
        <ele>133</ele>
        <time>2018-04-28T13:55:52.000Z</time>
      </trkpt>
      <trkpt lat="48.84104" lon="1.43843">
        <ele>133</ele>
        <time>2018-04-28T13:55:58.000Z</time>
      </trkpt>
      <trkpt lat="48.84112" lon="1.43843">
        <ele>133.19999694824</ele>
        <time>2018-04-28T13:56:02.000Z</time>
      </trkpt>
      <trkpt lat="48.84121" lon="1.43843">
        <ele>133.80000305176</ele>
        <time>2018-04-28T13:56:07.000Z</time>
      </trkpt>
      <trkpt lat="48.84128" lon="1.43842">
        <ele>134</ele>
        <time>2018-04-28T13:56:11.000Z</time>
      </trkpt>
      <trkpt lat="48.8413" lon="1.43842">
        <ele>134.19999694824</ele>
        <time>2018-04-28T13:56:12.000Z</time>
      </trkpt>
      <trkpt lat="48.84133" lon="1.43844">
        <ele>134.19999694824</ele>
        <time>2018-04-28T13:56:14.000Z</time>
      </trkpt>
      <trkpt lat="48.84133" lon="1.43844">
        <ele>134.39999389648</ele>
        <time>2018-04-28T13:56:15.000Z</time>
      </trkpt>
      <trkpt lat="48.84144" lon="1.43844">
        <ele>134.80000305176</ele>
        <time>2018-04-28T13:56:20.000Z</time>
      </trkpt>
      <trkpt lat="48.84145" lon="1.43844">
        <ele>134.80000305176</ele>
        <time>2018-04-28T13:56:21.000Z</time>
      </trkpt>
      <trkpt lat="48.84147" lon="1.43844">
        <ele>134.80000305176</ele>
        <time>2018-04-28T13:56:23.000Z</time>
      </trkpt>
      <trkpt lat="48.84148" lon="1.43844">
        <ele>134.80000305176</ele>
        <time>2018-04-28T13:56:24.000Z</time>
      </trkpt>
      <trkpt lat="48.84156" lon="1.43844">
        <ele>135.19999694824</ele>
        <time>2018-04-28T13:56:29.000Z</time>
      </trkpt>
      <trkpt lat="48.84164" lon="1.43842">
        <ele>135.39999389648</ele>
        <time>2018-04-28T13:56:34.000Z</time>
      </trkpt>
      <trkpt lat="48.84173" lon="1.43841">
        <ele>135.80000305176</ele>
        <time>2018-04-28T13:56:39.000Z</time>
      </trkpt>
      <trkpt lat="48.84175" lon="1.43842">
        <ele>135.80000305176</ele>
        <time>2018-04-28T13:56:41.000Z</time>
      </trkpt>
      <trkpt lat="48.84178" lon="1.43842">
        <ele>136</ele>
        <time>2018-04-28T13:56:42.000Z</time>
      </trkpt>
      <trkpt lat="48.84188" lon="1.43839">
        <ele>136.19999694824</ele>
        <time>2018-04-28T13:56:46.000Z</time>
      </trkpt>
      <trkpt lat="48.84189" lon="1.43839">
        <ele>136.19999694824</ele>
        <time>2018-04-28T13:56:47.000Z</time>
      </trkpt>
      <trkpt lat="48.84193" lon="1.43837">
        <ele>136.39999389648</ele>
        <time>2018-04-28T13:56:49.000Z</time>
      </trkpt>
      <trkpt lat="48.84195" lon="1.43837">
        <ele>136.39999389648</ele>
        <time>2018-04-28T13:56:50.000Z</time>
      </trkpt>
      <trkpt lat="48.84202" lon="1.43838">
        <ele>136.80000305176</ele>
        <time>2018-04-28T13:56:54.000Z</time>
      </trkpt>
      <trkpt lat="48.8421" lon="1.43836">
        <ele>137</ele>
        <time>2018-04-28T13:56:59.000Z</time>
      </trkpt>
      <trkpt lat="48.84218" lon="1.43835">
        <ele>137.19999694824</ele>
        <time>2018-04-28T13:57:04.000Z</time>
      </trkpt>
      <trkpt lat="48.84226" lon="1.43833">
        <ele>137.60000610352</ele>
        <time>2018-04-28T13:57:08.000Z</time>
      </trkpt>
      <trkpt lat="48.84233" lon="1.43831">
        <ele>137.80000305176</ele>
        <time>2018-04-28T13:57:12.000Z</time>
      </trkpt>
      <trkpt lat="48.84236" lon="1.43831">
        <ele>137.80000305176</ele>
        <time>2018-04-28T13:57:14.000Z</time>
      </trkpt>
      <trkpt lat="48.84238" lon="1.43831">
        <ele>138</ele>
        <time>2018-04-28T13:57:15.000Z</time>
      </trkpt>
      <trkpt lat="48.84242" lon="1.43835">
        <ele>138.19999694824</ele>
        <time>2018-04-28T13:57:18.000Z</time>
      </trkpt>
      <trkpt lat="48.8425" lon="1.43833">
        <ele>138.39999389648</ele>
        <time>2018-04-28T13:57:22.000Z</time>
      </trkpt>
      <trkpt lat="48.84252" lon="1.43833">
        <ele>138.39999389648</ele>
        <time>2018-04-28T13:57:23.000Z</time>
      </trkpt>
      <trkpt lat="48.84256" lon="1.43835">
        <ele>138.60000610352</ele>
        <time>2018-04-28T13:57:26.000Z</time>
      </trkpt>
      <trkpt lat="48.84259" lon="1.43835">
        <ele>138.80000305176</ele>
        <time>2018-04-28T13:57:29.000Z</time>
      </trkpt>
      <trkpt lat="48.84264" lon="1.43838">
        <ele>139</ele>
        <time>2018-04-28T13:57:40.000Z</time>
      </trkpt>
      <trkpt lat="48.84269" lon="1.43836">
        <ele>139.19999694824</ele>
        <time>2018-04-28T13:57:44.000Z</time>
      </trkpt>
      <trkpt lat="48.84271" lon="1.43836">
        <ele>139.19999694824</ele>
        <time>2018-04-28T13:57:47.000Z</time>
      </trkpt>
      <trkpt lat="48.84274" lon="1.43835">
        <ele>139.19999694824</ele>
        <time>2018-04-28T13:57:49.000Z</time>
      </trkpt>
      <trkpt lat="48.84279" lon="1.43834">
        <ele>139</ele>
        <time>2018-04-28T13:57:53.000Z</time>
      </trkpt>
      <trkpt lat="48.84286" lon="1.43834">
        <ele>138.80000305176</ele>
        <time>2018-04-28T13:57:57.000Z</time>
      </trkpt>
      <trkpt lat="48.84289" lon="1.43832">
        <ele>138.80000305176</ele>
        <time>2018-04-28T13:58:01.000Z</time>
      </trkpt>
      <trkpt lat="48.84297" lon="1.43832">
        <ele>138.80000305176</ele>
        <time>2018-04-28T13:58:06.000Z</time>
      </trkpt>
      <trkpt lat="48.84304" lon="1.43829">
        <ele>138.60000610352</ele>
        <time>2018-04-28T13:58:11.000Z</time>
      </trkpt>
      <trkpt lat="48.84305" lon="1.43829">
        <ele>138.60000610352</ele>
        <time>2018-04-28T13:58:12.000Z</time>
      </trkpt>
      <trkpt lat="48.8431" lon="1.43829">
        <ele>138.60000610352</ele>
        <time>2018-04-28T13:58:16.000Z</time>
      </trkpt>
      <trkpt lat="48.84311" lon="1.43829">
        <ele>138.60000610352</ele>
        <time>2018-04-28T13:58:17.000Z</time>
      </trkpt>
      <trkpt lat="48.84315" lon="1.43829">
        <ele>138.39999389648</ele>
        <time>2018-04-28T13:58:21.000Z</time>
      </trkpt>
      <trkpt lat="48.84318" lon="1.43829">
        <ele>138.39999389648</ele>
        <time>2018-04-28T13:58:23.000Z</time>
      </trkpt>
      <trkpt lat="48.84319" lon="1.4383">
        <ele>138.39999389648</ele>
        <time>2018-04-28T13:58:24.000Z</time>
      </trkpt>
      <trkpt lat="48.84324" lon="1.43828">
        <ele>138.39999389648</ele>
        <time>2018-04-28T13:58:27.000Z</time>
      </trkpt>
      <trkpt lat="48.84333" lon="1.43826">
        <ele>138.19999694824</ele>
        <time>2018-04-28T13:58:31.000Z</time>
      </trkpt>
      <trkpt lat="48.84334" lon="1.43825">
        <ele>138.19999694824</ele>
        <time>2018-04-28T13:58:32.000Z</time>
      </trkpt>
      <trkpt lat="48.84341" lon="1.43825">
        <ele>138.19999694824</ele>
        <time>2018-04-28T13:58:36.000Z</time>
      </trkpt>
      <trkpt lat="48.84342" lon="1.43826">
        <ele>138.19999694824</ele>
        <time>2018-04-28T13:58:37.000Z</time>
      </trkpt>
      <trkpt lat="48.84348" lon="1.43823">
        <ele>138</ele>
        <time>2018-04-28T13:58:40.000Z</time>
      </trkpt>
      <trkpt lat="48.84352" lon="1.43823">
        <ele>138</ele>
        <time>2018-04-28T13:58:42.000Z</time>
      </trkpt>
      <trkpt lat="48.84356" lon="1.43822">
        <ele>138</ele>
        <time>2018-04-28T13:58:44.000Z</time>
      </trkpt>
      <trkpt lat="48.84364" lon="1.4382">
        <ele>137.80000305176</ele>
        <time>2018-04-28T13:58:49.000Z</time>
      </trkpt>
      <trkpt lat="48.84371" lon="1.43819">
        <ele>137.80000305176</ele>
        <time>2018-04-28T13:58:54.000Z</time>
      </trkpt>
      <trkpt lat="48.84377" lon="1.43819">
        <ele>137.60000610352</ele>
        <time>2018-04-28T13:58:57.000Z</time>
      </trkpt>
      <trkpt lat="48.84378" lon="1.43818">
        <ele>137.60000610352</ele>
        <time>2018-04-28T13:58:58.000Z</time>
      </trkpt>
      <trkpt lat="48.84381" lon="1.43818">
        <ele>137.60000610352</ele>
        <time>2018-04-28T13:59:01.000Z</time>
      </trkpt>
      <trkpt lat="48.84385" lon="1.43818">
        <ele>137.60000610352</ele>
        <time>2018-04-28T13:59:03.000Z</time>
      </trkpt>
      <trkpt lat="48.84387" lon="1.43818">
        <ele>137.60000610352</ele>
        <time>2018-04-28T13:59:05.000Z</time>
      </trkpt>
      <trkpt lat="48.84387" lon="1.43819">
        <ele>137.60000610352</ele>
        <time>2018-04-28T13:59:06.000Z</time>
      </trkpt>
      <trkpt lat="48.84389" lon="1.43818">
        <ele>137.60000610352</ele>
        <time>2018-04-28T13:59:07.000Z</time>
      </trkpt>
      <trkpt lat="48.84396" lon="1.43818">
        <ele>137.39999389648</ele>
        <time>2018-04-28T13:59:11.000Z</time>
      </trkpt>
      <trkpt lat="48.844" lon="1.43819">
        <ele>137.39999389648</ele>
        <time>2018-04-28T13:59:15.000Z</time>
      </trkpt>
      <trkpt lat="48.84407" lon="1.43818">
        <ele>137.39999389648</ele>
        <time>2018-04-28T13:59:20.000Z</time>
      </trkpt>
      <trkpt lat="48.8441" lon="1.43818">
        <ele>137.19999694824</ele>
        <time>2018-04-28T13:59:22.000Z</time>
      </trkpt>
      <trkpt lat="48.84413" lon="1.43819">
        <ele>137.19999694824</ele>
        <time>2018-04-28T13:59:25.000Z</time>
      </trkpt>
      <trkpt lat="48.8442" lon="1.43819">
        <ele>137.19999694824</ele>
        <time>2018-04-28T13:59:29.000Z</time>
      </trkpt>
      <trkpt lat="48.84424" lon="1.43819">
        <ele>137.19999694824</ele>
        <time>2018-04-28T13:59:32.000Z</time>
      </trkpt>
      <trkpt lat="48.84426" lon="1.43818">
        <ele>137</ele>
        <time>2018-04-28T13:59:33.000Z</time>
      </trkpt>
      <trkpt lat="48.84432" lon="1.43817">
        <ele>137</ele>
        <time>2018-04-28T13:59:37.000Z</time>
      </trkpt>
      <trkpt lat="48.84434" lon="1.43817">
        <ele>137</ele>
        <time>2018-04-28T13:59:38.000Z</time>
      </trkpt>
      <trkpt lat="48.84435" lon="1.43817">
        <ele>137</ele>
        <time>2018-04-28T13:59:39.000Z</time>
      </trkpt>
      <trkpt lat="48.84441" lon="1.43817">
        <ele>137</ele>
        <time>2018-04-28T13:59:42.000Z</time>
      </trkpt>
      <trkpt lat="48.84447" lon="1.43817">
        <ele>137</ele>
        <time>2018-04-28T13:59:46.000Z</time>
      </trkpt>
      <trkpt lat="48.84448" lon="1.43816">
        <ele>136.80000305176</ele>
        <time>2018-04-28T13:59:47.000Z</time>
      </trkpt>
      <trkpt lat="48.84455" lon="1.43816">
        <ele>136.80000305176</ele>
        <time>2018-04-28T13:59:52.000Z</time>
      </trkpt>
      <trkpt lat="48.84461" lon="1.43815">
        <ele>136.80000305176</ele>
        <time>2018-04-28T13:59:56.000Z</time>
      </trkpt>
      <trkpt lat="48.84463" lon="1.43815">
        <ele>136.80000305176</ele>
        <time>2018-04-28T13:59:57.000Z</time>
      </trkpt>
      <trkpt lat="48.84471" lon="1.43815">
        <ele>136.60000610352</ele>
        <time>2018-04-28T14:00:01.000Z</time>
      </trkpt>
      <trkpt lat="48.84475" lon="1.43812">
        <ele>136.60000610352</ele>
        <time>2018-04-28T14:00:03.000Z</time>
      </trkpt>
      <trkpt lat="48.84482" lon="1.43809">
        <ele>136.60000610352</ele>
        <time>2018-04-28T14:00:05.000Z</time>
      </trkpt>
      <trkpt lat="48.84492" lon="1.43806">
        <ele>136.39999389648</ele>
        <time>2018-04-28T14:00:08.000Z</time>
      </trkpt>
      <trkpt lat="48.84493" lon="1.43807">
        <ele>136.39999389648</ele>
        <time>2018-04-28T14:00:09.000Z</time>
      </trkpt>
      <trkpt lat="48.84498" lon="1.43806">
        <ele>136.39999389648</ele>
        <time>2018-04-28T14:00:11.000Z</time>
      </trkpt>
      <trkpt lat="48.84504" lon="1.43806">
        <ele>136.39999389648</ele>
        <time>2018-04-28T14:00:15.000Z</time>
      </trkpt>
      <trkpt lat="48.8451" lon="1.43806">
        <ele>136.19999694824</ele>
        <time>2018-04-28T14:00:18.000Z</time>
      </trkpt>
      <trkpt lat="48.84517" lon="1.43807">
        <ele>136.19999694824</ele>
        <time>2018-04-28T14:00:22.000Z</time>
      </trkpt>
      <trkpt lat="48.84519" lon="1.43806">
        <ele>136.19999694824</ele>
        <time>2018-04-28T14:00:23.000Z</time>
      </trkpt>
      <trkpt lat="48.84523" lon="1.43805">
        <ele>136.19999694824</ele>
        <time>2018-04-28T14:00:27.000Z</time>
      </trkpt>
      <trkpt lat="48.8453" lon="1.43805">
        <ele>135.80000305176</ele>
        <time>2018-04-28T14:00:31.000Z</time>
      </trkpt>
      <trkpt lat="48.84532" lon="1.43803">
        <ele>135.60000610352</ele>
        <time>2018-04-28T14:00:33.000Z</time>
      </trkpt>
      <trkpt lat="48.84536" lon="1.43803">
        <ele>135.39999389648</ele>
        <time>2018-04-28T14:00:36.000Z</time>
      </trkpt>
      <trkpt lat="48.84543" lon="1.43804">
        <ele>135</ele>
        <time>2018-04-28T14:00:40.000Z</time>
      </trkpt>
      <trkpt lat="48.84546" lon="1.43804">
        <ele>134.80000305176</ele>
        <time>2018-04-28T14:00:43.000Z</time>
      </trkpt>
      <trkpt lat="48.84549" lon="1.43804">
        <ele>134.60000610352</ele>
        <time>2018-04-28T14:00:45.000Z</time>
      </trkpt>
      <trkpt lat="48.84553" lon="1.43804">
        <ele>134.19999694824</ele>
        <time>2018-04-28T14:00:49.000Z</time>
      </trkpt>
      <trkpt lat="48.84555" lon="1.43804">
        <ele>134.19999694824</ele>
        <time>2018-04-28T14:00:50.000Z</time>
      </trkpt>
      <trkpt lat="48.84564" lon="1.43802">
        <ele>133.60000610352</ele>
        <time>2018-04-28T14:00:55.000Z</time>
      </trkpt>
      <trkpt lat="48.84565" lon="1.43801">
        <ele>133.60000610352</ele>
        <time>2018-04-28T14:00:57.000Z</time>
      </trkpt>
      <trkpt lat="48.84568" lon="1.43801">
        <ele>133.39999389648</ele>
        <time>2018-04-28T14:00:59.000Z</time>
      </trkpt>
      <trkpt lat="48.84568" lon="1.43801">
        <ele>133.39999389648</ele>
        <time>2018-04-28T14:01:00.000Z</time>
      </trkpt>
      <trkpt lat="48.84578" lon="1.438">
        <ele>132.80000305176</ele>
        <time>2018-04-28T14:01:03.000Z</time>
      </trkpt>
      <trkpt lat="48.84583" lon="1.43799">
        <ele>132.60000610352</ele>
        <time>2018-04-28T14:01:06.000Z</time>
      </trkpt>
      <trkpt lat="48.84585" lon="1.43801">
        <ele>132.39999389648</ele>
        <time>2018-04-28T14:01:08.000Z</time>
      </trkpt>
      <trkpt lat="48.84589" lon="1.438">
        <ele>132.19999694824</ele>
        <time>2018-04-28T14:01:10.000Z</time>
      </trkpt>
      <trkpt lat="48.84591" lon="1.43799">
        <ele>132</ele>
        <time>2018-04-28T14:01:14.000Z</time>
      </trkpt>
      <trkpt lat="48.84594" lon="1.43799">
        <ele>131.80000305176</ele>
        <time>2018-04-28T14:01:15.000Z</time>
      </trkpt>
      <trkpt lat="48.84601" lon="1.43795">
        <ele>130.80000305176</ele>
        <time>2018-04-28T14:01:19.000Z</time>
      </trkpt>
      <trkpt lat="48.84605" lon="1.43794">
        <ele>130.39999389648</ele>
        <time>2018-04-28T14:01:20.000Z</time>
      </trkpt>
      <trkpt lat="48.84607" lon="1.43795">
        <ele>130.19999694824</ele>
        <time>2018-04-28T14:01:21.000Z</time>
      </trkpt>
      <trkpt lat="48.8461" lon="1.43794">
        <ele>130</ele>
        <time>2018-04-28T14:01:23.000Z</time>
      </trkpt>
      <trkpt lat="48.84612" lon="1.43794">
        <ele>129.80000305176</ele>
        <time>2018-04-28T14:01:25.000Z</time>
      </trkpt>
      <trkpt lat="48.84617" lon="1.43793">
        <ele>129.19999694824</ele>
        <time>2018-04-28T14:01:28.000Z</time>
      </trkpt>
      <trkpt lat="48.84621" lon="1.43793">
        <ele>128.80000305176</ele>
        <time>2018-04-28T14:01:32.000Z</time>
      </trkpt>
      <trkpt lat="48.84624" lon="1.43793">
        <ele>128.60000610352</ele>
        <time>2018-04-28T14:01:34.000Z</time>
      </trkpt>
      <trkpt lat="48.84633" lon="1.43791">
        <ele>127.80000305176</ele>
        <time>2018-04-28T14:01:38.000Z</time>
      </trkpt>
      <trkpt lat="48.84641" lon="1.4379">
        <ele>127.19999694824</ele>
        <time>2018-04-28T14:01:42.000Z</time>
      </trkpt>
      <trkpt lat="48.84649" lon="1.4379">
        <ele>126.40000152588</ele>
        <time>2018-04-28T14:01:47.000Z</time>
      </trkpt>
      <trkpt lat="48.84648" lon="1.43788">
        <ele>126.40000152588</ele>
        <time>2018-04-28T14:01:49.000Z</time>
      </trkpt>
      <trkpt lat="48.84649" lon="1.43788">
        <ele>126.40000152588</ele>
        <time>2018-04-28T14:01:50.000Z</time>
      </trkpt>
      <trkpt lat="48.8465" lon="1.43788">
        <ele>126.40000152588</ele>
        <time>2018-04-28T14:01:52.000Z</time>
      </trkpt>
      <trkpt lat="48.84653" lon="1.43789">
        <ele>126</ele>
        <time>2018-04-28T14:01:56.000Z</time>
      </trkpt>
      <trkpt lat="48.84656" lon="1.43785">
        <ele>125.59999847412</ele>
        <time>2018-04-28T14:01:57.000Z</time>
      </trkpt>
      <trkpt lat="48.84659" lon="1.43785">
        <ele>125.40000152588</ele>
        <time>2018-04-28T14:01:59.000Z</time>
      </trkpt>
      <trkpt lat="48.8466" lon="1.43785">
        <ele>125.19999694824</ele>
        <time>2018-04-28T14:02:00.000Z</time>
      </trkpt>
      <trkpt lat="48.84667" lon="1.43784">
        <ele>124.59999847412</ele>
        <time>2018-04-28T14:02:03.000Z</time>
      </trkpt>
      <trkpt lat="48.84669" lon="1.43783">
        <ele>124.40000152588</ele>
        <time>2018-04-28T14:02:05.000Z</time>
      </trkpt>
      <trkpt lat="48.84671" lon="1.43784">
        <ele>124.19999694824</ele>
        <time>2018-04-28T14:02:06.000Z</time>
      </trkpt>
      <trkpt lat="48.84677" lon="1.43781">
        <ele>123.59999847412</ele>
        <time>2018-04-28T14:02:09.000Z</time>
      </trkpt>
      <trkpt lat="48.84683" lon="1.4378">
        <ele>122.80000305176</ele>
        <time>2018-04-28T14:02:13.000Z</time>
      </trkpt>
      <trkpt lat="48.84687" lon="1.43779">
        <ele>122.59999847412</ele>
        <time>2018-04-28T14:02:14.000Z</time>
      </trkpt>
      <trkpt lat="48.84687" lon="1.43778">
        <ele>122.40000152588</ele>
        <time>2018-04-28T14:02:16.000Z</time>
      </trkpt>
      <trkpt lat="48.84692" lon="1.43779">
        <ele>121.80000305176</ele>
        <time>2018-04-28T14:02:19.000Z</time>
      </trkpt>
      <trkpt lat="48.847" lon="1.43778">
        <ele>120.59999847412</ele>
        <time>2018-04-28T14:02:23.000Z</time>
      </trkpt>
      <trkpt lat="48.847" lon="1.43778">
        <ele>120.59999847412</ele>
        <time>2018-04-28T14:02:24.000Z</time>
      </trkpt>
      <trkpt lat="48.84701" lon="1.43776">
        <ele>120.40000152588</ele>
        <time>2018-04-28T14:02:27.000Z</time>
      </trkpt>
      <trkpt lat="48.84704" lon="1.43776">
        <ele>119.80000305176</ele>
        <time>2018-04-28T14:02:36.000Z</time>
      </trkpt>
      <trkpt lat="48.84709" lon="1.43776">
        <ele>119</ele>
        <time>2018-04-28T14:03:04.000Z</time>
      </trkpt>
      <trkpt lat="48.84709" lon="1.43775">
        <ele>119</ele>
        <time>2018-04-28T14:03:06.000Z</time>
      </trkpt>
      <trkpt lat="48.84714" lon="1.43775">
        <ele>118.19999694824</ele>
        <time>2018-04-28T14:03:19.000Z</time>
      </trkpt>
      <trkpt lat="48.84722" lon="1.43777">
        <ele>117</ele>
        <time>2018-04-28T14:03:24.000Z</time>
      </trkpt>
      <trkpt lat="48.84724" lon="1.43779">
        <ele>116.80000305176</ele>
        <time>2018-04-28T14:03:26.000Z</time>
      </trkpt>
      <trkpt lat="48.84725" lon="1.43782">
        <ele>116.80000305176</ele>
        <time>2018-04-28T14:03:28.000Z</time>
      </trkpt>
      <trkpt lat="48.84728" lon="1.4379">
        <ele>116.59999847412</ele>
        <time>2018-04-28T14:03:34.000Z</time>
      </trkpt>
      <trkpt lat="48.84731" lon="1.43797">
        <ele>116.59999847412</ele>
        <time>2018-04-28T14:03:38.000Z</time>
      </trkpt>
      <trkpt lat="48.84732" lon="1.43798">
        <ele>116.40000152588</ele>
        <time>2018-04-28T14:03:39.000Z</time>
      </trkpt>
      <trkpt lat="48.84732" lon="1.438">
        <ele>116.59999847412</ele>
        <time>2018-04-28T14:03:40.000Z</time>
      </trkpt>
      <trkpt lat="48.84733" lon="1.43805">
        <ele>116.59999847412</ele>
        <time>2018-04-28T14:03:43.000Z</time>
      </trkpt>
      <trkpt lat="48.84734" lon="1.4381">
        <ele>116.59999847412</ele>
        <time>2018-04-28T14:03:45.000Z</time>
      </trkpt>
      <trkpt lat="48.84736" lon="1.4382">
        <ele>116.80000305176</ele>
        <time>2018-04-28T14:03:50.000Z</time>
      </trkpt>
      <trkpt lat="48.84735" lon="1.43824">
        <ele>117</ele>
        <time>2018-04-28T14:03:52.000Z</time>
      </trkpt>
      <trkpt lat="48.84734" lon="1.43831">
        <ele>117.40000152588</ele>
        <time>2018-04-28T14:03:55.000Z</time>
      </trkpt>
      <trkpt lat="48.84733" lon="1.4384">
        <ele>117.80000305176</ele>
        <time>2018-04-28T14:03:59.000Z</time>
      </trkpt>
      <trkpt lat="48.84732" lon="1.43844">
        <ele>118</ele>
        <time>2018-04-28T14:04:01.000Z</time>
      </trkpt>
      <trkpt lat="48.84734" lon="1.43851">
        <ele>117.80000305176</ele>
        <time>2018-04-28T14:04:06.000Z</time>
      </trkpt>
      <trkpt lat="48.84736" lon="1.43854">
        <ele>117.59999847412</ele>
        <time>2018-04-28T14:04:08.000Z</time>
      </trkpt>
      <trkpt lat="48.8474" lon="1.43856">
        <ele>117</ele>
        <time>2018-04-28T14:04:11.000Z</time>
      </trkpt>
      <trkpt lat="48.84742" lon="1.43858">
        <ele>116.80000305176</ele>
        <time>2018-04-28T14:04:13.000Z</time>
      </trkpt>
      <trkpt lat="48.84748" lon="1.4386">
        <ele>116</ele>
        <time>2018-04-28T14:04:18.000Z</time>
      </trkpt>
      <trkpt lat="48.84749" lon="1.43861">
        <ele>115.80000305176</ele>
        <time>2018-04-28T14:04:19.000Z</time>
      </trkpt>
      <trkpt lat="48.84757" lon="1.43862">
        <ele>114.59999847412</ele>
        <time>2018-04-28T14:04:24.000Z</time>
      </trkpt>
      <trkpt lat="48.84766" lon="1.43862">
        <ele>113</ele>
        <time>2018-04-28T14:04:30.000Z</time>
      </trkpt>
      <trkpt lat="48.84775" lon="1.43863">
        <ele>111.80000305176</ele>
        <time>2018-04-28T14:04:35.000Z</time>
      </trkpt>
      <trkpt lat="48.84788" lon="1.43864">
        <ele>110.19999694824</ele>
        <time>2018-04-28T14:04:44.000Z</time>
      </trkpt>
      <trkpt lat="48.84795" lon="1.43865">
        <ele>109.40000152588</ele>
        <time>2018-04-28T14:04:49.000Z</time>
      </trkpt>
      <trkpt lat="48.84802" lon="1.43866">
        <ele>108.80000305176</ele>
        <time>2018-04-28T14:04:54.000Z</time>
      </trkpt>
      <trkpt lat="48.84812" lon="1.43868">
        <ele>107.59999847412</ele>
        <time>2018-04-28T14:05:00.000Z</time>
      </trkpt>
      <trkpt lat="48.8482" lon="1.43869">
        <ele>106.59999847412</ele>
        <time>2018-04-28T14:05:05.000Z</time>
      </trkpt>
      <trkpt lat="48.84829" lon="1.4387">
        <ele>105.40000152588</ele>
        <time>2018-04-28T14:05:11.000Z</time>
      </trkpt>
      <trkpt lat="48.8484" lon="1.43872">
        <ele>103.80000305176</ele>
        <time>2018-04-28T14:05:19.000Z</time>
      </trkpt>
      <trkpt lat="48.84849" lon="1.43874">
        <ele>102.59999847412</ele>
        <time>2018-04-28T14:05:25.000Z</time>
      </trkpt>
      <trkpt lat="48.84852" lon="1.43874">
        <ele>102.19999694824</ele>
        <time>2018-04-28T14:05:28.000Z</time>
      </trkpt>
      <trkpt lat="48.84856" lon="1.43875">
        <ele>101.59999847412</ele>
        <time>2018-04-28T14:05:30.000Z</time>
      </trkpt>
      <trkpt lat="48.84871" lon="1.43877">
        <ele>100</ele>
        <time>2018-04-28T14:05:39.000Z</time>
      </trkpt>
      <trkpt lat="48.84877" lon="1.43877">
        <ele>99.400001525879</ele>
        <time>2018-04-28T14:05:44.000Z</time>
      </trkpt>
      <trkpt lat="48.84886" lon="1.43879">
        <ele>98.599998474121</ele>
        <time>2018-04-28T14:05:50.000Z</time>
      </trkpt>
      <trkpt lat="48.84897" lon="1.4388">
        <ele>97.400001525879</ele>
        <time>2018-04-28T14:05:57.000Z</time>
      </trkpt>
      <trkpt lat="48.84909" lon="1.4388">
        <ele>96</ele>
        <time>2018-04-28T14:06:04.000Z</time>
      </trkpt>
      <trkpt lat="48.84916" lon="1.4388">
        <ele>95.400001525879</ele>
        <time>2018-04-28T14:06:09.000Z</time>
      </trkpt>
      <trkpt lat="48.8492" lon="1.4388">
        <ele>95</ele>
        <time>2018-04-28T14:06:11.000Z</time>
      </trkpt>
      <trkpt lat="48.84925" lon="1.43879">
        <ele>94.400001525879</ele>
        <time>2018-04-28T14:06:14.000Z</time>
      </trkpt>
      <trkpt lat="48.84931" lon="1.43878">
        <ele>93.800003051758</ele>
        <time>2018-04-28T14:06:18.000Z</time>
      </trkpt>
      <trkpt lat="48.84933" lon="1.43877">
        <ele>93.599998474121</ele>
        <time>2018-04-28T14:06:19.000Z</time>
      </trkpt>
      <trkpt lat="48.84935" lon="1.43877">
        <ele>93.400001525879</ele>
        <time>2018-04-28T14:06:21.000Z</time>
      </trkpt>
      <trkpt lat="48.84942" lon="1.43876">
        <ele>92.800003051758</ele>
        <time>2018-04-28T14:06:25.000Z</time>
      </trkpt>
      <trkpt lat="48.84951" lon="1.43874">
        <ele>92</ele>
        <time>2018-04-28T14:06:30.000Z</time>
      </trkpt>
      <trkpt lat="48.84959" lon="1.43872">
        <ele>91.599998474121</ele>
        <time>2018-04-28T14:06:35.000Z</time>
      </trkpt>
      <trkpt lat="48.8497" lon="1.43868">
        <ele>90.599998474121</ele>
        <time>2018-04-28T14:06:42.000Z</time>
      </trkpt>
      <trkpt lat="48.84977" lon="1.43865">
        <ele>90</ele>
        <time>2018-04-28T14:06:47.000Z</time>
      </trkpt>
      <trkpt lat="48.84983" lon="1.43863">
        <ele>89.599998474121</ele>
        <time>2018-04-28T14:06:51.000Z</time>
      </trkpt>
      <trkpt lat="48.84988" lon="1.4386">
        <ele>89.400001525879</ele>
        <time>2018-04-28T14:06:55.000Z</time>
      </trkpt>
      <trkpt lat="48.84993" lon="1.43857">
        <ele>89</ele>
        <time>2018-04-28T14:06:59.000Z</time>
      </trkpt>
      <trkpt lat="48.84994" lon="1.43858">
        <ele>89</ele>
        <time>2018-04-28T14:07:00.000Z</time>
      </trkpt>
      <trkpt lat="48.85003" lon="1.43854">
        <ele>88.599998474121</ele>
        <time>2018-04-28T14:07:05.000Z</time>
      </trkpt>
      <trkpt lat="48.85007" lon="1.43851">
        <ele>88.400001525879</ele>
        <time>2018-04-28T14:07:11.000Z</time>
      </trkpt>
      <trkpt lat="48.85013" lon="1.43849">
        <ele>88.199996948242</ele>
        <time>2018-04-28T14:07:16.000Z</time>
      </trkpt>
      <trkpt lat="48.85019" lon="1.43846">
        <ele>87.800003051758</ele>
        <time>2018-04-28T14:07:20.000Z</time>
      </trkpt>
      <trkpt lat="48.85026" lon="1.43843">
        <ele>87.400001525879</ele>
        <time>2018-04-28T14:07:25.000Z</time>
      </trkpt>
      <trkpt lat="48.8503" lon="1.43842">
        <ele>87.199996948242</ele>
        <time>2018-04-28T14:07:29.000Z</time>
      </trkpt>
      <trkpt lat="48.85038" lon="1.4384">
        <ele>86.800003051758</ele>
        <time>2018-04-28T14:07:33.000Z</time>
      </trkpt>
      <trkpt lat="48.85046" lon="1.43837">
        <ele>86.400001525879</ele>
        <time>2018-04-28T14:07:38.000Z</time>
      </trkpt>
      <trkpt lat="48.85055" lon="1.43834">
        <ele>86</ele>
        <time>2018-04-28T14:07:44.000Z</time>
      </trkpt>
      <trkpt lat="48.85068" lon="1.43834">
        <ele>85.599998474121</ele>
        <time>2018-04-28T14:07:51.000Z</time>
      </trkpt>
      <trkpt lat="48.85078" lon="1.43831">
        <ele>85.199996948242</ele>
        <time>2018-04-28T14:07:56.000Z</time>
      </trkpt>
      <trkpt lat="48.85091" lon="1.43829">
        <ele>84.599998474121</ele>
        <time>2018-04-28T14:08:04.000Z</time>
      </trkpt>
      <trkpt lat="48.85107" lon="1.43827">
        <ele>84.199996948242</ele>
        <time>2018-04-28T14:08:13.000Z</time>
      </trkpt>
      <trkpt lat="48.85116" lon="1.43825">
        <ele>83.800003051758</ele>
        <time>2018-04-28T14:08:19.000Z</time>
      </trkpt>
      <trkpt lat="48.85118" lon="1.43825">
        <ele>83.800003051758</ele>
        <time>2018-04-28T14:08:21.000Z</time>
      </trkpt>
      <trkpt lat="48.85122" lon="1.43825">
        <ele>83.800003051758</ele>
        <time>2018-04-28T14:08:23.000Z</time>
      </trkpt>
      <trkpt lat="48.85128" lon="1.43824">
        <ele>83.599998474121</ele>
        <time>2018-04-28T14:08:28.000Z</time>
      </trkpt>
      <trkpt lat="48.85129" lon="1.43823">
        <ele>83.599998474121</ele>
        <time>2018-04-28T14:08:29.000Z</time>
      </trkpt>
      <trkpt lat="48.85136" lon="1.43821">
        <ele>83.400001525879</ele>
        <time>2018-04-28T14:08:33.000Z</time>
      </trkpt>
      <trkpt lat="48.8515" lon="1.43818">
        <ele>83</ele>
        <time>2018-04-28T14:08:41.000Z</time>
      </trkpt>
      <trkpt lat="48.85153" lon="1.43817">
        <ele>82.800003051758</ele>
        <time>2018-04-28T14:08:44.000Z</time>
      </trkpt>
      <trkpt lat="48.85163" lon="1.43814">
        <ele>82.599998474121</ele>
        <time>2018-04-28T14:08:50.000Z</time>
      </trkpt>
      <trkpt lat="48.85171" lon="1.43811">
        <ele>82.400001525879</ele>
        <time>2018-04-28T14:08:55.000Z</time>
      </trkpt>
      <trkpt lat="48.8518" lon="1.43806">
        <ele>82</ele>
        <time>2018-04-28T14:09:01.000Z</time>
      </trkpt>
      <trkpt lat="48.85182" lon="1.43806">
        <ele>82</ele>
        <time>2018-04-28T14:09:02.000Z</time>
      </trkpt>
      <trkpt lat="48.85189" lon="1.43802">
        <ele>81.599998474121</ele>
        <time>2018-04-28T14:09:08.000Z</time>
      </trkpt>
      <trkpt lat="48.85197" lon="1.43798">
        <ele>81.199996948242</ele>
        <time>2018-04-28T14:09:14.000Z</time>
      </trkpt>
      <trkpt lat="48.85206" lon="1.43796">
        <ele>81</ele>
        <time>2018-04-28T14:09:20.000Z</time>
      </trkpt>
      <trkpt lat="48.85211" lon="1.43795">
        <ele>80.800003051758</ele>
        <time>2018-04-28T14:09:24.000Z</time>
      </trkpt>
      <trkpt lat="48.85223" lon="1.43796">
        <ele>80.199996948242</ele>
        <time>2018-04-28T14:09:31.000Z</time>
      </trkpt>
      <trkpt lat="48.85226" lon="1.438">
        <ele>80.199996948242</ele>
        <time>2018-04-28T14:09:34.000Z</time>
      </trkpt>
      <trkpt lat="48.85227" lon="1.43804">
        <ele>80.400001525879</ele>
        <time>2018-04-28T14:09:36.000Z</time>
      </trkpt>
      <trkpt lat="48.85228" lon="1.43802">
        <ele>80.199996948242</ele>
        <time>2018-04-28T14:09:39.000Z</time>
      </trkpt>
      <trkpt lat="48.85231" lon="1.43797">
        <ele>80</ele>
        <time>2018-04-28T14:09:41.000Z</time>
      </trkpt>
      <trkpt lat="48.85232" lon="1.43794">
        <ele>80</ele>
        <time>2018-04-28T14:09:43.000Z</time>
      </trkpt>
      <trkpt lat="48.85241" lon="1.43784">
        <ele>79.400001525879</ele>
        <time>2018-04-28T14:09:50.000Z</time>
      </trkpt>
      <trkpt lat="48.85253" lon="1.43777">
        <ele>78.599998474121</ele>
        <time>2018-04-28T14:09:58.000Z</time>
      </trkpt>
      <trkpt lat="48.85263" lon="1.43771">
        <ele>77.800003051758</ele>
        <time>2018-04-28T14:10:05.000Z</time>
      </trkpt>
      <trkpt lat="48.85274" lon="1.43766">
        <ele>77.199996948242</ele>
        <time>2018-04-28T14:10:12.000Z</time>
      </trkpt>
      <trkpt lat="48.85284" lon="1.43761">
        <ele>76.800003051758</ele>
        <time>2018-04-28T14:10:19.000Z</time>
      </trkpt>
      <trkpt lat="48.85293" lon="1.43758">
        <ele>76.400001525879</ele>
        <time>2018-04-28T14:10:24.000Z</time>
      </trkpt>
      <trkpt lat="48.85301" lon="1.43755">
        <ele>76.199996948242</ele>
        <time>2018-04-28T14:10:30.000Z</time>
      </trkpt>
      <trkpt lat="48.8531" lon="1.43751">
        <ele>76</ele>
        <time>2018-04-28T14:10:35.000Z</time>
      </trkpt>
      <trkpt lat="48.85322" lon="1.43747">
        <ele>75.800003051758</ele>
        <time>2018-04-28T14:10:42.000Z</time>
      </trkpt>
      <trkpt lat="48.85333" lon="1.43743">
        <ele>75.599998474121</ele>
        <time>2018-04-28T14:10:48.000Z</time>
      </trkpt>
      <trkpt lat="48.85345" lon="1.43743">
        <ele>75.400001525879</ele>
        <time>2018-04-28T14:10:54.000Z</time>
      </trkpt>
      <trkpt lat="48.85352" lon="1.43745">
        <ele>75.400001525879</ele>
        <time>2018-04-28T14:10:58.000Z</time>
      </trkpt>
      <trkpt lat="48.85364" lon="1.43754">
        <ele>75.199996948242</ele>
        <time>2018-04-28T14:11:06.000Z</time>
      </trkpt>
      <trkpt lat="48.85367" lon="1.43757">
        <ele>75.199996948242</ele>
        <time>2018-04-28T14:11:08.000Z</time>
      </trkpt>
      <trkpt lat="48.85369" lon="1.43762">
        <ele>75.199996948242</ele>
        <time>2018-04-28T14:11:11.000Z</time>
      </trkpt>
      <trkpt lat="48.8537" lon="1.43772">
        <ele>75.400001525879</ele>
        <time>2018-04-28T14:11:16.000Z</time>
      </trkpt>
      <trkpt lat="48.85368" lon="1.43779">
        <ele>75.599998474121</ele>
        <time>2018-04-28T14:11:18.000Z</time>
      </trkpt>
      <trkpt lat="48.85369" lon="1.43781">
        <ele>75.800003051758</ele>
        <time>2018-04-28T14:11:19.000Z</time>
      </trkpt>
      <trkpt lat="48.85369" lon="1.43784">
        <ele>75.800003051758</ele>
        <time>2018-04-28T14:11:20.000Z</time>
      </trkpt>
      <trkpt lat="48.8537" lon="1.43794">
        <ele>76</ele>
        <time>2018-04-28T14:11:25.000Z</time>
      </trkpt>
      <trkpt lat="48.8537" lon="1.43796">
        <ele>76</ele>
        <time>2018-04-28T14:11:26.000Z</time>
      </trkpt>
      <trkpt lat="48.8537" lon="1.43801">
        <ele>76.199996948242</ele>
        <time>2018-04-28T14:11:28.000Z</time>
      </trkpt>
      <trkpt lat="48.85371" lon="1.43806">
        <ele>76.199996948242</ele>
        <time>2018-04-28T14:11:30.000Z</time>
      </trkpt>
      <trkpt lat="48.85372" lon="1.43811">
        <ele>76.199996948242</ele>
        <time>2018-04-28T14:11:33.000Z</time>
      </trkpt>
      <trkpt lat="48.85373" lon="1.43817">
        <ele>76.400001525879</ele>
        <time>2018-04-28T14:11:36.000Z</time>
      </trkpt>
      <trkpt lat="48.85374" lon="1.43825">
        <ele>76.599998474121</ele>
        <time>2018-04-28T14:11:40.000Z</time>
      </trkpt>
      <trkpt lat="48.85375" lon="1.43829">
        <ele>76.800003051758</ele>
        <time>2018-04-28T14:11:42.000Z</time>
      </trkpt>
      <trkpt lat="48.85379" lon="1.4384">
        <ele>77</ele>
        <time>2018-04-28T14:11:47.000Z</time>
      </trkpt>
      <trkpt lat="48.8538" lon="1.43844">
        <ele>77.199996948242</ele>
        <time>2018-04-28T14:11:49.000Z</time>
      </trkpt>
      <trkpt lat="48.85382" lon="1.43847">
        <ele>77.199996948242</ele>
        <time>2018-04-28T14:11:51.000Z</time>
      </trkpt>
      <trkpt lat="48.85386" lon="1.43848">
        <ele>77</ele>
        <time>2018-04-28T14:11:54.000Z</time>
      </trkpt>
      <trkpt lat="48.85396" lon="1.43847">
        <ele>76.599998474121</ele>
        <time>2018-04-28T14:12:00.000Z</time>
      </trkpt>
      <trkpt lat="48.85404" lon="1.43845">
        <ele>76.400001525879</ele>
        <time>2018-04-28T14:12:06.000Z</time>
      </trkpt>
      <trkpt lat="48.85406" lon="1.43846">
        <ele>76.199996948242</ele>
        <time>2018-04-28T14:12:09.000Z</time>
      </trkpt>
      <trkpt lat="48.85407" lon="1.43847">
        <ele>76.199996948242</ele>
        <time>2018-04-28T14:12:10.000Z</time>
      </trkpt>
      <trkpt lat="48.85408" lon="1.43848">
        <ele>76.199996948242</ele>
        <time>2018-04-28T14:12:11.000Z</time>
      </trkpt>
      <trkpt lat="48.85415" lon="1.43849">
        <ele>76</ele>
        <time>2018-04-28T14:12:16.000Z</time>
      </trkpt>
      <trkpt lat="48.85419" lon="1.43851">
        <ele>76</ele>
        <time>2018-04-28T14:12:21.000Z</time>
      </trkpt>
      <trkpt lat="48.85419" lon="1.43851">
        <ele>76</ele>
        <time>2018-04-28T14:12:22.000Z</time>
      </trkpt>
      <trkpt lat="48.8542" lon="1.43851">
        <ele>76</ele>
        <time>2018-04-28T14:12:28.000Z</time>
      </trkpt>
      <trkpt lat="48.85425" lon="1.43844">
        <ele>75.599998474121</ele>
        <time>2018-04-28T14:12:41.000Z</time>
      </trkpt>
      <trkpt lat="48.85433" lon="1.43839">
        <ele>75</ele>
        <time>2018-04-28T14:12:47.000Z</time>
      </trkpt>
      <trkpt lat="48.85441" lon="1.43834">
        <ele>74.599998474121</ele>
        <time>2018-04-28T14:12:53.000Z</time>
      </trkpt>
      <trkpt lat="48.85448" lon="1.4383">
        <ele>74</ele>
        <time>2018-04-28T14:12:59.000Z</time>
      </trkpt>
      <trkpt lat="48.85453" lon="1.43828">
        <ele>73.800003051758</ele>
        <time>2018-04-28T14:13:02.000Z</time>
      </trkpt>
      <trkpt lat="48.85455" lon="1.43826">
        <ele>73.800003051758</ele>
        <time>2018-04-28T14:13:04.000Z</time>
      </trkpt>
      <trkpt lat="48.8546" lon="1.43827">
        <ele>73.599998474121</ele>
        <time>2018-04-28T14:13:08.000Z</time>
      </trkpt>
      <trkpt lat="48.85463" lon="1.43827">
        <ele>73.599998474121</ele>
        <time>2018-04-28T14:13:12.000Z</time>
      </trkpt>
      <trkpt lat="48.85467" lon="1.43834">
        <ele>73.599998474121</ele>
        <time>2018-04-28T14:13:17.000Z</time>
      </trkpt>
      <trkpt lat="48.85469" lon="1.43842">
        <ele>73.599998474121</ele>
        <time>2018-04-28T14:13:20.000Z</time>
      </trkpt>
      <trkpt lat="48.85469" lon="1.43848">
        <ele>73.800003051758</ele>
        <time>2018-04-28T14:13:23.000Z</time>
      </trkpt>
      <trkpt lat="48.85474" lon="1.43861">
        <ele>74</ele>
        <time>2018-04-28T14:13:29.000Z</time>
      </trkpt>
      <trkpt lat="48.85475" lon="1.43862">
        <ele>74</ele>
        <time>2018-04-28T14:13:30.000Z</time>
      </trkpt>
      <trkpt lat="48.85476" lon="1.4387">
        <ele>74.199996948242</ele>
        <time>2018-04-28T14:13:33.000Z</time>
      </trkpt>
      <trkpt lat="48.8548" lon="1.43883">
        <ele>74.400001525879</ele>
        <time>2018-04-28T14:13:39.000Z</time>
      </trkpt>
      <trkpt lat="48.85481" lon="1.43886">
        <ele>74.599998474121</ele>
        <time>2018-04-28T14:13:41.000Z</time>
      </trkpt>
      <trkpt lat="48.85483" lon="1.43892">
        <ele>74.599998474121</ele>
        <time>2018-04-28T14:13:44.000Z</time>
      </trkpt>
      <trkpt lat="48.85486" lon="1.43905">
        <ele>74.800003051758</ele>
        <time>2018-04-28T14:13:50.000Z</time>
      </trkpt>
      <trkpt lat="48.85487" lon="1.43907">
        <ele>74.800003051758</ele>
        <time>2018-04-28T14:13:51.000Z</time>
      </trkpt>
      <trkpt lat="48.8549" lon="1.43912">
        <ele>74.599998474121</ele>
        <time>2018-04-28T14:13:54.000Z</time>
      </trkpt>
      <trkpt lat="48.85495" lon="1.4392">
        <ele>74.400001525879</ele>
        <time>2018-04-28T14:13:59.000Z</time>
      </trkpt>
      <trkpt lat="48.85495" lon="1.43922">
        <ele>74.400001525879</ele>
        <time>2018-04-28T14:14:00.000Z</time>
      </trkpt>
      <trkpt lat="48.85497" lon="1.43931">
        <ele>74.199996948242</ele>
        <time>2018-04-28T14:14:04.000Z</time>
      </trkpt>
      <trkpt lat="48.85497" lon="1.43934">
        <ele>74.199996948242</ele>
        <time>2018-04-28T14:14:05.000Z</time>
      </trkpt>
      <trkpt lat="48.855" lon="1.43942">
        <ele>74</ele>
        <time>2018-04-28T14:14:08.000Z</time>
      </trkpt>
      <trkpt lat="48.85502" lon="1.43942">
        <ele>74</ele>
        <time>2018-04-28T14:14:09.000Z</time>
      </trkpt>
      <trkpt lat="48.85503" lon="1.43947">
        <ele>74</ele>
        <time>2018-04-28T14:14:12.000Z</time>
      </trkpt>
      <trkpt lat="48.85506" lon="1.43954">
        <ele>73.800003051758</ele>
        <time>2018-04-28T14:14:16.000Z</time>
      </trkpt>
      <trkpt lat="48.85508" lon="1.43961">
        <ele>73.599998474121</ele>
        <time>2018-04-28T14:14:19.000Z</time>
      </trkpt>
      <trkpt lat="48.8551" lon="1.4397">
        <ele>73.599998474121</ele>
        <time>2018-04-28T14:14:23.000Z</time>
      </trkpt>
      <trkpt lat="48.85512" lon="1.43977">
        <ele>73.599998474121</ele>
        <time>2018-04-28T14:14:26.000Z</time>
      </trkpt>
      <trkpt lat="48.85513" lon="1.43986">
        <ele>73.599998474121</ele>
        <time>2018-04-28T14:14:30.000Z</time>
      </trkpt>
      <trkpt lat="48.85513" lon="1.43987">
        <ele>73.599998474121</ele>
        <time>2018-04-28T14:14:31.000Z</time>
      </trkpt>
      <trkpt lat="48.85516" lon="1.43997">
        <ele>73.400001525879</ele>
        <time>2018-04-28T14:14:35.000Z</time>
      </trkpt>
      <trkpt lat="48.85517" lon="1.44004">
        <ele>73.400001525879</ele>
        <time>2018-04-28T14:14:39.000Z</time>
      </trkpt>
      <trkpt lat="48.85519" lon="1.44013">
        <ele>73.199996948242</ele>
        <time>2018-04-28T14:14:44.000Z</time>
      </trkpt>
      <trkpt lat="48.85526" lon="1.44015">
        <ele>72.800003051758</ele>
        <time>2018-04-28T14:14:48.000Z</time>
      </trkpt>
      <trkpt lat="48.85529" lon="1.44015">
        <ele>72.599998474121</ele>
        <time>2018-04-28T14:14:50.000Z</time>
      </trkpt>
      <trkpt lat="48.85532" lon="1.44014">
        <ele>72.599998474121</ele>
        <time>2018-04-28T14:14:52.000Z</time>
      </trkpt>
      <trkpt lat="48.85534" lon="1.44013">
        <ele>72.400001525879</ele>
        <time>2018-04-28T14:14:53.000Z</time>
      </trkpt>
      <trkpt lat="48.85541" lon="1.44011">
        <ele>72.199996948242</ele>
        <time>2018-04-28T14:14:58.000Z</time>
      </trkpt>
      <trkpt lat="48.85546" lon="1.44007">
        <ele>71.800003051758</ele>
        <time>2018-04-28T14:15:02.000Z</time>
      </trkpt>
      <trkpt lat="48.85553" lon="1.43999">
        <ele>71.800003051758</ele>
        <time>2018-04-28T14:15:07.000Z</time>
      </trkpt>
      <trkpt lat="48.85554" lon="1.43997">
        <ele>71.599998474121</ele>
        <time>2018-04-28T14:15:10.000Z</time>
      </trkpt>
      <trkpt lat="48.85556" lon="1.43996">
        <ele>71.599998474121</ele>
        <time>2018-04-28T14:15:12.000Z</time>
      </trkpt>
      <trkpt lat="48.85557" lon="1.43994">
        <ele>71.599998474121</ele>
        <time>2018-04-28T14:15:14.000Z</time>
      </trkpt>
      <trkpt lat="48.85561" lon="1.43993">
        <ele>71.599998474121</ele>
        <time>2018-04-28T14:15:15.000Z</time>
      </trkpt>
      <trkpt lat="48.85564" lon="1.43991">
        <ele>71.400001525879</ele>
        <time>2018-04-28T14:15:17.000Z</time>
      </trkpt>
      <trkpt lat="48.85568" lon="1.43986">
        <ele>71.400001525879</ele>
        <time>2018-04-28T14:15:22.000Z</time>
      </trkpt>
      <trkpt lat="48.85573" lon="1.43981">
        <ele>71.199996948242</ele>
        <time>2018-04-28T14:15:26.000Z</time>
      </trkpt>
      <trkpt lat="48.85574" lon="1.43981">
        <ele>71.199996948242</ele>
        <time>2018-04-28T14:15:27.000Z</time>
      </trkpt>
      <trkpt lat="48.85576" lon="1.43978">
        <ele>71</ele>
        <time>2018-04-28T14:15:29.000Z</time>
      </trkpt>
      <trkpt lat="48.85579" lon="1.43974">
        <ele>71</ele>
        <time>2018-04-28T14:15:33.000Z</time>
      </trkpt>
      <trkpt lat="48.85583" lon="1.43972">
        <ele>70.800003051758</ele>
        <time>2018-04-28T14:15:38.000Z</time>
      </trkpt>
      <trkpt lat="48.85585" lon="1.43971">
        <ele>70.800003051758</ele>
        <time>2018-04-28T14:15:40.000Z</time>
      </trkpt>
      <trkpt lat="48.85588" lon="1.43967">
        <ele>70.599998474121</ele>
        <time>2018-04-28T14:15:43.000Z</time>
      </trkpt>
      <trkpt lat="48.85594" lon="1.43962">
        <ele>70.400001525879</ele>
        <time>2018-04-28T14:15:48.000Z</time>
      </trkpt>
      <trkpt lat="48.85605" lon="1.43955">
        <ele>70</ele>
        <time>2018-04-28T14:15:55.000Z</time>
      </trkpt>
      <trkpt lat="48.85609" lon="1.43954">
        <ele>70</ele>
        <time>2018-04-28T14:15:58.000Z</time>
      </trkpt>
      <trkpt lat="48.85611" lon="1.43953">
        <ele>70</ele>
        <time>2018-04-28T14:15:59.000Z</time>
      </trkpt>
      <trkpt lat="48.85614" lon="1.4395">
        <ele>70</ele>
        <time>2018-04-28T14:16:02.000Z</time>
      </trkpt>
      <trkpt lat="48.85617" lon="1.43949">
        <ele>70.199996948242</ele>
        <time>2018-04-28T14:16:04.000Z</time>
      </trkpt>
      <trkpt lat="48.85621" lon="1.43944">
        <ele>70.199996948242</ele>
        <time>2018-04-28T14:16:08.000Z</time>
      </trkpt>
      <trkpt lat="48.85623" lon="1.4394">
        <ele>70.199996948242</ele>
        <time>2018-04-28T14:16:11.000Z</time>
      </trkpt>
      <trkpt lat="48.85628" lon="1.43936">
        <ele>70.199996948242</ele>
        <time>2018-04-28T14:16:14.000Z</time>
      </trkpt>
      <trkpt lat="48.85634" lon="1.43931">
        <ele>70.400001525879</ele>
        <time>2018-04-28T14:16:18.000Z</time>
      </trkpt>
      <trkpt lat="48.85635" lon="1.43931">
        <ele>70.400001525879</ele>
        <time>2018-04-28T14:16:19.000Z</time>
      </trkpt>
      <trkpt lat="48.85644" lon="1.43926">
        <ele>70.400001525879</ele>
        <time>2018-04-28T14:16:24.000Z</time>
      </trkpt>
      <trkpt lat="48.85649" lon="1.43921">
        <ele>70.199996948242</ele>
        <time>2018-04-28T14:16:28.000Z</time>
      </trkpt>
      <trkpt lat="48.85653" lon="1.43916">
        <ele>70.199996948242</ele>
        <time>2018-04-28T14:16:32.000Z</time>
      </trkpt>
      <trkpt lat="48.85656" lon="1.43914">
        <ele>70.199996948242</ele>
        <time>2018-04-28T14:16:34.000Z</time>
      </trkpt>
      <trkpt lat="48.85657" lon="1.43913">
        <ele>70.199996948242</ele>
        <time>2018-04-28T14:16:35.000Z</time>
      </trkpt>
      <trkpt lat="48.85657" lon="1.43906">
        <ele>70</ele>
        <time>2018-04-28T14:16:40.000Z</time>
      </trkpt>
      <trkpt lat="48.85655" lon="1.439">
        <ele>70</ele>
        <time>2018-04-28T14:16:43.000Z</time>
      </trkpt>
      <trkpt lat="48.85653" lon="1.43894">
        <ele>70</ele>
        <time>2018-04-28T14:16:46.000Z</time>
      </trkpt>
      <trkpt lat="48.85653" lon="1.43889">
        <ele>70</ele>
        <time>2018-04-28T14:16:48.000Z</time>
      </trkpt>
      <trkpt lat="48.8565" lon="1.43883">
        <ele>70</ele>
        <time>2018-04-28T14:16:51.000Z</time>
      </trkpt>
      <trkpt lat="48.85651" lon="1.43881">
        <ele>70</ele>
        <time>2018-04-28T14:16:52.000Z</time>
      </trkpt>
      <trkpt lat="48.85649" lon="1.43879">
        <ele>70</ele>
        <time>2018-04-28T14:16:53.000Z</time>
      </trkpt>
      <trkpt lat="48.85647" lon="1.43872">
        <ele>70</ele>
        <time>2018-04-28T14:16:56.000Z</time>
      </trkpt>
      <trkpt lat="48.85647" lon="1.4387">
        <ele>70</ele>
        <time>2018-04-28T14:16:57.000Z</time>
      </trkpt>
      <trkpt lat="48.85648" lon="1.43867">
        <ele>70</ele>
        <time>2018-04-28T14:17:00.000Z</time>
      </trkpt>
      <trkpt lat="48.85649" lon="1.43866">
        <ele>70</ele>
        <time>2018-04-28T14:17:01.000Z</time>
      </trkpt>
      <trkpt lat="48.85655" lon="1.43861">
        <ele>70</ele>
        <time>2018-04-28T14:17:07.000Z</time>
      </trkpt>
      <trkpt lat="48.85657" lon="1.4386">
        <ele>70</ele>
        <time>2018-04-28T14:17:11.000Z</time>
      </trkpt>
      <trkpt lat="48.85662" lon="1.43861">
        <ele>69.800003051758</ele>
        <time>2018-04-28T14:17:20.000Z</time>
      </trkpt>
      <trkpt lat="48.85665" lon="1.43858">
        <ele>69.800003051758</ele>
        <time>2018-04-28T14:17:28.000Z</time>
      </trkpt>
      <trkpt lat="48.85667" lon="1.43859">
        <ele>69.800003051758</ele>
        <time>2018-04-28T14:17:45.000Z</time>
      </trkpt>
      <trkpt lat="48.85664" lon="1.43862">
        <ele>69.800003051758</ele>
        <time>2018-04-28T14:17:50.000Z</time>
      </trkpt>
      <trkpt lat="48.85665" lon="1.43871">
        <ele>70</ele>
        <time>2018-04-28T14:17:55.000Z</time>
      </trkpt>
      <trkpt lat="48.85666" lon="1.43885">
        <ele>70</ele>
        <time>2018-04-28T14:18:02.000Z</time>
      </trkpt>
      <trkpt lat="48.85667" lon="1.43894">
        <ele>70</ele>
        <time>2018-04-28T14:18:07.000Z</time>
      </trkpt>
      <trkpt lat="48.85671" lon="1.43895">
        <ele>70</ele>
        <time>2018-04-28T14:18:11.000Z</time>
      </trkpt>
      <trkpt lat="48.85678" lon="1.43894">
        <ele>70</ele>
        <time>2018-04-28T14:18:17.000Z</time>
      </trkpt>
      <trkpt lat="48.85679" lon="1.43893">
        <ele>70</ele>
        <time>2018-04-28T14:18:18.000Z</time>
      </trkpt>
      <trkpt lat="48.85687" lon="1.4389">
        <ele>70</ele>
        <time>2018-04-28T14:18:23.000Z</time>
      </trkpt>
      <trkpt lat="48.85692" lon="1.43885">
        <ele>69.800003051758</ele>
        <time>2018-04-28T14:18:28.000Z</time>
      </trkpt>
      <trkpt lat="48.85694" lon="1.43884">
        <ele>69.800003051758</ele>
        <time>2018-04-28T14:18:30.000Z</time>
      </trkpt>
      <trkpt lat="48.85698" lon="1.43882">
        <ele>69.599998474121</ele>
        <time>2018-04-28T14:18:33.000Z</time>
      </trkpt>
      <trkpt lat="48.85704" lon="1.4388">
        <ele>69.400001525879</ele>
        <time>2018-04-28T14:18:38.000Z</time>
      </trkpt>
      <trkpt lat="48.85709" lon="1.43875">
        <ele>69.199996948242</ele>
        <time>2018-04-28T14:18:42.000Z</time>
      </trkpt>
      <trkpt lat="48.8571" lon="1.43874">
        <ele>69.199996948242</ele>
        <time>2018-04-28T14:18:43.000Z</time>
      </trkpt>
      <trkpt lat="48.85714" lon="1.43871">
        <ele>69</ele>
        <time>2018-04-28T14:18:47.000Z</time>
      </trkpt>
      <trkpt lat="48.85718" lon="1.43868">
        <ele>69</ele>
        <time>2018-04-28T14:18:51.000Z</time>
      </trkpt>
      <trkpt lat="48.85719" lon="1.43866">
        <ele>68.800003051758</ele>
        <time>2018-04-28T14:18:53.000Z</time>
      </trkpt>
      <trkpt lat="48.85722" lon="1.43865">
        <ele>68.800003051758</ele>
        <time>2018-04-28T14:18:55.000Z</time>
      </trkpt>
      <trkpt lat="48.85722" lon="1.43864">
        <ele>68.800003051758</ele>
        <time>2018-04-28T14:18:57.000Z</time>
      </trkpt>
      <trkpt lat="48.85725" lon="1.43863">
        <ele>68.800003051758</ele>
        <time>2018-04-28T14:18:59.000Z</time>
      </trkpt>
      <trkpt lat="48.85732" lon="1.43859">
        <ele>68.599998474121</ele>
        <time>2018-04-28T14:19:04.000Z</time>
      </trkpt>
      <trkpt lat="48.85733" lon="1.43858">
        <ele>68.400001525879</ele>
        <time>2018-04-28T14:19:05.000Z</time>
      </trkpt>
      <trkpt lat="48.85739" lon="1.43855">
        <ele>68.400001525879</ele>
        <time>2018-04-28T14:19:09.000Z</time>
      </trkpt>
      <trkpt lat="48.8574" lon="1.43853">
        <ele>68.400001525879</ele>
        <time>2018-04-28T14:19:10.000Z</time>
      </trkpt>
      <trkpt lat="48.85745" lon="1.43847">
        <ele>68.400001525879</ele>
        <time>2018-04-28T14:19:15.000Z</time>
      </trkpt>
      <trkpt lat="48.85747" lon="1.43843">
        <ele>68.400001525879</ele>
        <time>2018-04-28T14:19:19.000Z</time>
      </trkpt>
      <trkpt lat="48.85747" lon="1.43843">
        <ele>68.400001525879</ele>
        <time>2018-04-28T14:19:20.000Z</time>
      </trkpt>
      <trkpt lat="48.8575" lon="1.43838">
        <ele>68.199996948242</ele>
        <time>2018-04-28T14:19:26.000Z</time>
      </trkpt>
      <trkpt lat="48.85751" lon="1.43837">
        <ele>68.199996948242</ele>
        <time>2018-04-28T14:19:27.000Z</time>
      </trkpt>
      <trkpt lat="48.85753" lon="1.43834">
        <ele>68.199996948242</ele>
        <time>2018-04-28T14:19:30.000Z</time>
      </trkpt>
      <trkpt lat="48.85754" lon="1.43832">
        <ele>68.199996948242</ele>
        <time>2018-04-28T14:19:32.000Z</time>
      </trkpt>
      <trkpt lat="48.8576" lon="1.43828">
        <ele>68.199996948242</ele>
        <time>2018-04-28T14:19:37.000Z</time>
      </trkpt>
      <trkpt lat="48.85763" lon="1.43828">
        <ele>68.199996948242</ele>
        <time>2018-04-28T14:19:44.000Z</time>
      </trkpt>
      <trkpt lat="48.85772" lon="1.43823">
        <ele>68</ele>
        <time>2018-04-28T14:19:48.000Z</time>
      </trkpt>
      <trkpt lat="48.85773" lon="1.43821">
        <ele>68</ele>
        <time>2018-04-28T14:19:49.000Z</time>
      </trkpt>
      <trkpt lat="48.85776" lon="1.43822">
        <ele>68</ele>
        <time>2018-04-28T14:19:52.000Z</time>
      </trkpt>
      <trkpt lat="48.85776" lon="1.43826">
        <ele>68</ele>
        <time>2018-04-28T14:19:53.000Z</time>
      </trkpt>
      <trkpt lat="48.8578" lon="1.43824">
        <ele>68</ele>
        <time>2018-04-28T14:19:56.000Z</time>
      </trkpt>
      <trkpt lat="48.85784" lon="1.43823">
        <ele>68</ele>
        <time>2018-04-28T14:19:58.000Z</time>
      </trkpt>
      <trkpt lat="48.85789" lon="1.43825">
        <ele>68</ele>
        <time>2018-04-28T14:20:00.000Z</time>
      </trkpt>
      <trkpt lat="48.85798" lon="1.43828">
        <ele>68.199996948242</ele>
        <time>2018-04-28T14:20:03.000Z</time>
      </trkpt>
      <trkpt lat="48.85799" lon="1.4383">
        <ele>68.199996948242</ele>
        <time>2018-04-28T14:20:05.000Z</time>
      </trkpt>
      <trkpt lat="48.85801" lon="1.43833">
        <ele>68.199996948242</ele>
        <time>2018-04-28T14:20:07.000Z</time>
      </trkpt>
      <trkpt lat="48.85801" lon="1.43842">
        <ele>68</ele>
        <time>2018-04-28T14:20:12.000Z</time>
      </trkpt>
      <trkpt lat="48.85802" lon="1.43851">
        <ele>68</ele>
        <time>2018-04-28T14:20:16.000Z</time>
      </trkpt>
      <trkpt lat="48.85808" lon="1.43857">
        <ele>68</ele>
        <time>2018-04-28T14:20:20.000Z</time>
      </trkpt>
      <trkpt lat="48.85809" lon="1.43861">
        <ele>68</ele>
        <time>2018-04-28T14:20:23.000Z</time>
      </trkpt>
      <trkpt lat="48.85811" lon="1.43869">
        <ele>68</ele>
        <time>2018-04-28T14:20:29.000Z</time>
      </trkpt>
      <trkpt lat="48.85812" lon="1.4387">
        <ele>68</ele>
        <time>2018-04-28T14:20:30.000Z</time>
      </trkpt>
      <trkpt lat="48.85812" lon="1.43867">
        <ele>68</ele>
        <time>2018-04-28T14:20:33.000Z</time>
      </trkpt>
      <trkpt lat="48.85814" lon="1.43869">
        <ele>68</ele>
        <time>2018-04-28T14:20:38.000Z</time>
      </trkpt>
      <trkpt lat="48.85824" lon="1.43869">
        <ele>68</ele>
        <time>2018-04-28T14:21:24.000Z</time>
      </trkpt>
      <trkpt lat="48.85825" lon="1.43871">
        <ele>68</ele>
        <time>2018-04-28T14:21:35.000Z</time>
      </trkpt>
      <trkpt lat="48.85826" lon="1.4387">
        <ele>68</ele>
        <time>2018-04-28T14:21:42.000Z</time>
      </trkpt>
      <trkpt lat="48.85827" lon="1.43871">
        <ele>68</ele>
        <time>2018-04-28T14:21:51.000Z</time>
      </trkpt>
      <trkpt lat="48.85828" lon="1.43871">
        <ele>68</ele>
        <time>2018-04-28T14:21:58.000Z</time>
      </trkpt>
      <trkpt lat="48.85833" lon="1.43871">
        <ele>68</ele>
        <time>2018-04-28T14:22:02.000Z</time>
      </trkpt>
      <trkpt lat="48.85841" lon="1.43871">
        <ele>68.199996948242</ele>
        <time>2018-04-28T14:22:08.000Z</time>
      </trkpt>
      <trkpt lat="48.85846" lon="1.43869">
        <ele>68.199996948242</ele>
        <time>2018-04-28T14:22:14.000Z</time>
      </trkpt>
      <trkpt lat="48.85847" lon="1.43868">
        <ele>68.199996948242</ele>
        <time>2018-04-28T14:22:15.000Z</time>
      </trkpt>
      <trkpt lat="48.85846" lon="1.43867">
        <ele>68.199996948242</ele>
        <time>2018-04-28T14:22:20.000Z</time>
      </trkpt>
      <trkpt lat="48.85844" lon="1.43867">
        <ele>68.199996948242</ele>
        <time>2018-04-28T14:22:27.000Z</time>
      </trkpt>
      <trkpt lat="48.85844" lon="1.43867">
        <ele>68.199996948242</ele>
        <time>2018-04-28T14:22:31.000Z</time>
      </trkpt>
      <trkpt lat="48.85843" lon="1.43866">
        <ele>68.199996948242</ele>
        <time>2018-04-28T14:22:35.000Z</time>
      </trkpt>
      <trkpt lat="48.85845" lon="1.43863">
        <ele>68.199996948242</ele>
        <time>2018-04-28T14:22:37.000Z</time>
      </trkpt>
      <trkpt lat="48.85846" lon="1.43862">
        <ele>68.400001525879</ele>
        <time>2018-04-28T14:22:39.000Z</time>
      </trkpt>
      <trkpt lat="48.85847" lon="1.43863">
        <ele>68.400001525879</ele>
        <time>2018-04-28T14:22:41.000Z</time>
      </trkpt>
      <trkpt lat="48.85847" lon="1.4386">
        <ele>68.400001525879</ele>
        <time>2018-04-28T14:22:43.000Z</time>
      </trkpt>
      <trkpt lat="48.85852" lon="1.43855">
        <ele>68.400001525879</ele>
        <time>2018-04-28T14:22:55.000Z</time>
      </trkpt>
      <trkpt lat="48.85846" lon="1.43841">
        <ele>68.599998474121</ele>
        <time>2018-04-28T14:23:01.000Z</time>
      </trkpt>
      <trkpt lat="48.8584" lon="1.43837">
        <ele>68.599998474121</ele>
        <time>2018-04-28T14:23:05.000Z</time>
      </trkpt>
      <trkpt lat="48.85839" lon="1.43841">
        <ele>68.400001525879</ele>
        <time>2018-04-28T14:23:07.000Z</time>
      </trkpt>
      <trkpt lat="48.85838" lon="1.43853">
        <ele>68.400001525879</ele>
        <time>2018-04-28T14:23:15.000Z</time>
      </trkpt>
      <trkpt lat="48.85843" lon="1.43839">
        <ele>68.599998474121</ele>
        <time>2018-04-28T14:23:22.000Z</time>
      </trkpt>
      <trkpt lat="48.85841" lon="1.43842">
        <ele>68.599998474121</ele>
        <time>2018-04-28T14:23:25.000Z</time>
      </trkpt>
      <trkpt lat="48.85842" lon="1.43844">
        <ele>68.400001525879</ele>
        <time>2018-04-28T14:23:26.000Z</time>
      </trkpt>
      <trkpt lat="48.85842" lon="1.43851">
        <ele>68.400001525879</ele>
        <time>2018-04-28T14:23:29.000Z</time>
      </trkpt>
      <trkpt lat="48.85841" lon="1.43858">
        <ele>68.400001525879</ele>
        <time>2018-04-28T14:23:31.000Z</time>
      </trkpt>
      <trkpt lat="48.8584" lon="1.43862">
        <ele>68.199996948242</ele>
        <time>2018-04-28T14:23:33.000Z</time>
      </trkpt>
      <trkpt lat="48.85821" lon="1.43882">
        <ele>68</ele>
        <time>2018-04-28T14:24:21.000Z</time>
      </trkpt>
      <trkpt lat="48.85824" lon="1.43874">
        <ele>68</ele>
        <time>2018-04-28T14:24:23.000Z</time>
      </trkpt>
      <trkpt lat="48.85826" lon="1.43873">
        <ele>68</ele>
        <time>2018-04-28T14:24:27.000Z</time>
      </trkpt>
      <trkpt lat="48.85829" lon="1.43872">
        <ele>68</ele>
        <time>2018-04-28T14:24:30.000Z</time>
      </trkpt>
      <trkpt lat="48.85829" lon="1.43875">
        <ele>68</ele>
        <time>2018-04-28T14:24:32.000Z</time>
      </trkpt>
      <trkpt lat="48.85828" lon="1.43879">
        <ele>68</ele>
        <time>2018-04-28T14:24:35.000Z</time>
      </trkpt>
      <trkpt lat="48.85827" lon="1.43869">
        <ele>68</ele>
        <time>2018-04-28T14:24:47.000Z</time>
      </trkpt>
      <trkpt lat="48.85825" lon="1.43867">
        <ele>68</ele>
        <time>2018-04-28T14:24:48.000Z</time>
      </trkpt>
      <trkpt lat="48.85825" lon="1.43865">
        <ele>68</ele>
        <time>2018-04-28T14:24:49.000Z</time>
      </trkpt>
    </trkseg>
  </trk>
</gpx>